[[{"header":{"parameterUnit":"m.s-1","parameterCategory":1,"la1":30.6,"la2":29.2853,"lo1":-89.7004,"lo2":-87.6739,"dy":0.0162,"dx":0.0183,"nx":112,"ny":82,"refTime":"2026-05-07T00:00:00:Z","depth":0,"parameterNumber":2,"parameterNumberName":"U-component_of_WINDS"},"data":[0.0,0.0,0.0,0.0,0.0,0.0,0.0,0.0,0.0,0.0,0.0,0.0,0.0,0.0,0.0,0.0,0.0,0.0,0.0,0.0,0.0,0.0,0.0,0.0,0.0,0.0,0.0,0.0,0.0,0.0,0.0,0.0,0.0,0.0,0.0,0.0,0.0,0.0,0.0,0.0,0.0,0.0,0.0,0.0,0.0,0.0,0.0,0.0,0.0,0.0,0.0,0.0,0.0,0.0,0.0,0.0,0.0,0.0,0.0,0.0,0.0,0.0,0.0,0.0,0.0,0.0,0.0,0.0,0.0,0.0,0.0,0.0,0.0,0.0,0.0,0.0,0.0,0.0,0.0,0.0,0.0,0.0,0.0,0.0,0.0,0.0,0.0,0.0,0.0,0.0,1.4601,1.3284,1.229,1.1844,1.2042,1.1945,1.1758,1.1436,0.0,0.0,0.0,0.0,0.0,0.0,0.0,0.0,0.0,0.0,0.0,0.0,0.0,0.0,0.0,0.0,0.0,0.0,0.0,0.0,0.0,0.0,0.0,0.0,0.0,0.0,0.0,0.0,0.0,0.0,0.0,0.0,0.0,0.0,0.0,0.0,0.0,0.0,0.0,0.0,0.0,0.0,0.0,0.0,0.0,0.0,0.0,0.0,0.0,0.0,0.0,0.0,0.0,0.0,0.0,0.0,0.0,0.0,0.0,0.0,0.0,0.0,0.0,0.0,0.0,0.0,0.0,0.0,0.0,0.0,0.0,0.0,0.0,0.0,0.0,0.0,0.0,0.0,0.0,0.0,0.0,0.0,0.0,0.0,0.0,0.0,0.0,0.0,0.0,0.0,0.0,0.0,0.0,0.0,0.0,0.0,0.0,0.0,0.0,0.0,0.0,0.0,0.0,0.0,1.3043,1.1902,1.2533,1.298,1.3019,1.2318,1.1849,1.1781,0.0,0.0,0.0,0.0,0.0,0.0,0.0,0.0,0.0,0.0,0.0,0.0,0.0,0.0,0.0,0.0,0.0,0.0,0.0,0.0,0.0,0.0,0.0,0.0,0.0,0.0,0.0,0.0,0.0,0.0,0.0,0.0,0.0,0.0,0.0,0.0,0.0,0.0,0.0,0.0,0.0,0.0,0.0,0.0,0.0,0.0,0.0,0.0,0.0,0.0,0.0,0.0,0.0,0.0,0.0,0.0,0.0,0.0,0.0,0.0,0.0,0.0,0.0,0.0,0.0,0.0,0.0,0.0,0.0,0.0,0.0,0.0,0.0,0.0,0.0,0.0,0.0,0.0,0.0,0.0,0.0,0.0,0.0,0.0,0.0,0.0,0.0,0.0,0.0,0.0,0.0,0.0,0.0,0.0,0.0,0.0,0.0,0.0,0.0,0.0,0.0,0.0,0.0,1.1973,1.0855,0.9507,0.9943,0.9743,0.8305,0.655,0.5463,0.5586,0.5834,0.0,0.0,0.0,0.0,0.0,0.0,0.0,0.0,0.0,0.0,0.0,0.0,0.0,0.0,0.0,0.0,0.0,0.0,0.0,0.0,0.0,0.0,0.0,0.0,0.0,0.0,0.0,0.0,0.0,0.0,0.0,0.0,0.0,0.0,0.0,0.0,0.0,0.0,0.0,0.0,0.0,0.0,0.0,0.0,0.0,0.0,0.0,0.0,0.0,0.0,0.0,0.0,0.0,0.0,0.0,0.0,0.0,0.0,0.0,0.0,0.0,0.0,0.0,0.0,0.0,0.0,0.0,0.0,0.0,0.0,0.0,0.0,0.0,0.0,0.0,0.0,0.0,0.0,0.0,0.0,0.0,0.0,0.0,0.0,0.0,0.0,0.0,0.0,0.0,0.0,0.0,0.0,0.0,0.0,0.0,0.0,0.0,0.0,0.0,0.0,0.0,0.0,0.9401,0.8277,0.6002,0.5917,0.5253,0.321,0.07,-0.1082,-0.1514,-0.1503,0.0,0.0,0.0,0.0,0.0,0.0,0.0,0.0,0.0,0.0,0.0,0.0,0.0,0.0,0.0,0.0,0.0,0.0,0.0,0.0,0.0,0.0,0.0,0.0,0.0,0.0,0.0,0.0,0.0,0.0,0.0,0.0,0.0,0.0,0.0,0.0,0.0,0.0,0.0,0.0,0.0,0.0,0.0,0.0,0.0,0.0,0.0,0.0,0.0,0.0,0.0,0.0,0.0,0.0,0.0,0.0,0.0,0.0,0.0,0.0,0.0,0.0,0.0,0.0,0.0,0.0,0.0,0.0,0.0,0.0,0.0,0.0,0.0,0.0,0.0,0.0,0.0,0.0,0.0,0.0,0.0,0.0,0.0,0.0,0.0,0.0,0.0,0.0,0.0,0.0,0.0,0.0,0.0,0.0,0.0,0.0,0.0,0.0,0.0,0.0,0.0,0.0,0.8085,0.5467,0.0995,0.0305,0.0204,0.03,-0.1902,-0.4449,-0.6887,-0.6752,0.0,0.0,0.0,0.0,0.0,0.0,0.0,0.0,0.0,0.0,0.0,0.0,0.0,0.0,0.0,0.0,0.0,0.0,0.0,0.0,0.0,0.0,0.0,0.0,0.0,0.0,0.0,0.0,0.0,0.0,0.0,0.0,0.0,0.0,0.0,0.0,0.0,0.0,0.0,0.0,0.0,0.0,0.0,0.0,0.0,0.0,0.0,0.0,0.0,0.0,0.0,0.0,0.0,0.0,0.0,0.0,0.0,0.0,0.0,0.0,0.0,0.0,0.0,0.0,0.0,0.0,0.0,0.0,0.0,0.0,0.0,0.0,0.0,0.0,0.0,0.0,0.0,0.0,0.0,0.0,0.0,0.0,0.0,0.0,0.0,0.0,0.0,0.0,0.0,0.0,0.0,0.0,0.0,0.0,0.0,0.0,0.0,0.0,0.0,0.0,0.0,0.0,0.2769,0.1172,-0.2098,-0.4041,-0.5168,-0.5329,-0.5934,-0.664,-0.7452,0.0,0.0,0.0,0.0,0.0,0.0,0.0,0.0,0.0,0.0,0.0,0.0,0.0,0.0,0.0,0.0,0.0,0.0,0.0,0.0,0.0,0.0,0.0,0.0,0.0,0.0,0.0,0.0,0.0,0.0,0.0,0.0,0.0,0.0,0.0,0.0,0.0,0.0,0.0,0.0,0.0,0.0,0.0,0.0,0.0,0.0,0.0,0.0,0.0,0.0,0.0,0.0,0.0,0.0,0.0,0.0,0.0,0.0,0.0,0.0,0.0,0.0,0.0,0.0,0.0,0.0,0.0,0.0,0.0,0.0,0.0,0.0,0.0,0.0,0.0,0.0,0.0,0.0,0.0,0.0,0.0,0.0,0.0,0.0,0.0,0.0,0.0,0.0,0.0,0.0,0.0,0.0,0.0,0.0,0.0,0.0,0.0,0.0,0.0,0.0,0.0,0.0,-0.0094,-0.1741,-0.3358,-0.5116,-0.7532,-0.9094,-0.8984,-0.9203,-0.9147,-0.8648,0.0,0.0,0.0,0.0,0.0,0.0,0.0,0.0,0.0,0.0,0.0,0.0,0.0,0.0,0.0,0.0,0.0,0.0,0.0,0.0,0.0,0.0,0.0,0.0,0.0,0.0,0.0,0.0,0.0,0.0,0.0,0.0,0.0,0.0,0.0,0.0,0.0,0.0,0.0,0.0,0.0,0.0,0.0,0.0,0.0,0.0,0.0,0.0,0.0,0.0,0.0,0.0,0.0,0.0,0.0,0.0,0.0,0.0,0.0,0.0,0.0,0.0,0.0,0.0,0.0,0.0,0.0,0.0,0.0,0.0,0.0,0.0,0.0,0.0,0.0,0.0,0.0,0.0,0.0,0.0,0.0,0.0,0.0,0.0,0.0,0.0,0.0,0.0,0.0,0.0,0.0,0.0,0.0,0.0,0.0,0.0,0.0,0.0,0.0,0.0,0.0,0.0,-0.0565,-0.4914,-0.7989,-0.8075,-1.0088,-1.1066,-1.0134,-1.1458,-1.2093,0.0,0.0,0.0,0.0,0.0,0.0,0.0,0.0,0.0,0.0,0.0,0.0,0.0,0.0,0.0,0.0,0.0,0.0,0.0,0.0,0.0,0.0,0.0,0.0,0.0,0.0,0.0,0.0,0.0,0.0,0.0,0.0,0.0,0.0,0.0,0.0,0.0,0.0,0.0,0.0,0.0,0.0,0.0,0.0,0.0,0.0,0.0,0.0,0.0,0.0,0.0,0.0,0.0,0.0,0.0,0.0,0.0,0.0,0.0,0.0,0.0,0.0,0.0,0.0,0.0,0.0,0.0,0.0,0.0,0.0,0.0,0.0,0.0,0.0,0.0,0.0,0.0,0.0,0.0,0.0,0.0,0.0,0.0,0.0,0.0,0.0,0.0,0.0,0.0,0.0,0.0,0.0,0.0,0.0,0.0,0.0,0.0,0.0,0.0,0.0,0.0,0.0,0.0,-0.5301,-0.8041,-0.9706,-0.9702,-1.1337,-1.2205,-1.171,-1.2144,-1.2027,-1.101,0.0,0.0,0.0,0.0,0.0,0.0,0.0,0.0,0.0,0.0,0.0,0.0,0.0,0.0,0.0,0.0,0.0,0.0,0.0,0.0,0.0,0.0,0.0,0.0,0.0,0.0,0.0,0.0,0.0,0.0,0.0,0.0,0.0,0.0,0.0,0.0,0.0,0.0,0.0,0.0,0.0,0.0,0.0,0.0,0.0,0.0,0.0,0.0,0.0,0.0,0.0,0.0,0.0,0.0,0.0,0.0,0.0,0.0,0.0,0.0,0.0,0.0,0.0,0.0,0.0,0.0,0.0,0.0,0.0,0.0,0.0,0.0,0.0,0.0,0.0,0.0,0.0,0.0,0.0,0.0,0.0,0.0,0.0,0.0,0.0,0.0,0.0,0.0,0.0,0.0,0.0,0.0,0.0,0.0,0.0,0.0,0.0,0.0,0.0,0.0,0.0,0.0,-0.8623,-0.9912,-1.0602,-1.1286,-1.2812,-1.3642,-1.3198,-1.3762,-1.3693,-1.2591,0.0,0.0,0.0,0.0,0.0,0.0,0.0,0.0,0.0,0.0,0.0,0.0,0.0,0.0,0.0,0.0,0.0,0.0,0.0,0.0,0.0,0.0,0.0,0.0,0.0,0.0,0.0,0.0,0.0,0.0,0.0,0.0,0.0,0.0,0.0,0.0,0.0,0.0,0.0,0.0,0.0,0.0,0.0,0.0,0.0,0.0,0.0,0.0,0.0,0.0,0.0,0.0,0.0,0.0,0.0,0.0,0.0,0.0,0.0,0.0,0.0,0.0,0.0,0.0,0.0,0.0,0.0,0.0,0.0,0.0,0.0,0.0,0.0,0.0,0.0,0.0,0.0,0.0,0.0,0.0,0.0,0.0,0.0,0.0,0.0,0.0,0.0,0.0,0.0,0.0,0.0,0.0,0.0,0.0,0.0,0.0,0.0,0.0,0.0,0.0,0.0,0.0,-1.0577,-1.0874,-1.1378,-1.2818,-1.451,-1.5191,-1.457,-1.585,-1.6206,-1.5037,0.0,0.0,0.0,0.0,0.0,0.0,0.0,0.0,0.0,0.0,0.0,0.0,0.0,0.0,0.0,0.0,0.0,0.0,0.0,0.0,0.0,0.0,0.0,0.0,0.0,0.0,0.0,0.0,0.0,0.0,0.0,0.0,0.0,0.0,0.0,0.0,0.0,0.0,0.0,0.0,0.0,0.0,0.0,0.0,0.0,0.0,0.0,0.0,0.0,0.0,0.0,0.0,0.0,0.0,0.0,0.0,0.0,0.0,0.0,0.0,2.0993,2.0912,0.0,0.0,0.0,0.0,0.0,0.0,0.0,0.0,0.0,0.0,0.0,0.0,0.0,0.0,0.0,0.0,0.0,0.0,0.0,0.0,0.0,0.0,0.0,0.0,0.0,0.0,0.0,0.0,0.0,0.0,0.0,0.0,0.0,0.0,0.0,0.0,0.0,0.0,0.0,0.0,-1.0763,-1.2678,-1.405,-1.4625,-1.6149,-1.6918,-1.6573,-1.67,-1.6206,-1.5037,-1.4077,0.0,0.0,0.0,0.0,0.0,0.0,0.0,0.0,0.0,0.0,0.0,0.0,0.0,0.0,0.0,0.0,0.0,0.0,0.0,0.0,0.0,0.0,0.0,0.0,0.0,0.0,0.0,0.0,0.0,0.0,0.0,0.0,0.0,0.0,0.0,0.0,0.0,0.0,0.0,0.0,0.0,0.0,0.0,0.0,0.0,0.0,0.0,0.0,0.0,0.0,0.0,0.0,0.0,0.0,0.0,0.0,0.0,0.0,0.0,2.0268,2.0435,0.0,0.0,0.0,0.0,0.0,0.0,0.0,0.0,0.0,0.0,0.0,0.0,0.0,0.0,0.0,0.0,0.0,0.0,0.0,0.0,0.0,0.0,0.0,0.0,0.0,0.0,0.0,0.0,0.0,0.0,0.0,0.0,0.0,0.0,0.0,0.0,0.0,0.0,0.0,0.0,-1.1441,-1.3469,-1.5209,-1.6248,-1.7068,-1.7462,-1.7174,-1.6874,-1.6326,-1.5438,-1.443,0.0,0.0,0.0,0.0,0.0,0.0,0.0,0.0,0.0,0.0,0.0,0.0,0.0,0.0,0.0,0.0,0.0,0.0,0.0,0.0,0.0,0.0,0.0,0.0,0.0,0.0,0.0,0.0,0.0,0.0,0.0,0.0,0.0,0.0,0.0,0.0,0.0,0.0,0.0,0.0,0.0,0.0,0.0,0.0,0.0,0.0,0.0,0.0,0.0,0.0,0.0,0.0,0.0,1.9504,1.967,1.9049,1.9529,1.9748,1.9781,1.9792,2.0052,2.0359,1.9908,0.0,0.0,0.0,0.0,0.0,0.0,0.0,0.0,0.0,0.0,0.0,0.0,0.0,0.0,0.0,0.0,0.0,0.0,0.0,0.0,0.0,0.0,-0.3976,-0.4493,-0.6031,-0.6681,-0.3884,0.0,0.0,0.0,0.0,0.0,0.0,0.0,0.0,0.0,0.0,0.0,-1.2195,-1.409,-1.5831,-1.7417,-1.7582,-1.7482,-1.7248,-1.6954,-1.6533,-1.5945,-1.5177,-1.4596,0.0,0.0,0.0,0.0,0.0,0.0,0.0,0.0,0.0,0.0,0.0,0.0,0.0,0.0,0.0,0.0,0.0,0.0,0.0,0.0,0.0,0.0,0.0,0.0,0.0,0.0,0.0,0.0,0.0,0.0,0.0,0.0,2.3111,2.384,0.0,0.0,0.0,0.0,0.0,0.0,0.0,0.0,0.0,0.0,0.0,0.0,0.0,1.9759,2.0068,1.9235,1.8994,1.9211,2.0109,2.0641,2.0908,2.1341,2.1558,2.153,2.0416,0.0,1.9449,1.9252,0.0,0.0,0.0,0.0,0.0,0.0,0.0,0.0,0.0,0.0,0.0,0.0,0.0,0.0,0.0,0.0,0.0,0.0,0.0,0.0,0.0,0.0,-0.713,-0.7095,-0.7366,-0.746,-0.7018,-0.692,-0.6922,-0.6796,-0.7518,-0.7823,0.0,0.0,0.0,0.0,0.0,0.0,-1.2439,-1.5077,-1.7111,-1.7549,-1.7582,-1.7569,-1.7528,-1.7255,-1.684,-1.6253,-1.5865,-1.5411,-1.487,-1.4563,0.0,0.0,0.0,0.0,0.0,0.0,0.0,0.0,0.0,0.0,0.0,0.0,0.0,0.0,0.0,0.0,0.0,0.0,0.0,0.0,0.0,0.0,0.0,0.0,0.0,0.0,0.0,0.0,0.0,2.4135,2.3977,2.3725,2.3736,2.3362,0.0,0.0,0.0,0.0,0.0,0.0,0.0,0.0,0.0,2.187,2.0555,2.0136,2.0937,2.0645,2.0812,2.1298,2.1331,2.1451,2.1611,2.1034,2.0876,2.0783,1.955,1.8887,1.8676,1.8305,1.7227,1.5784,0.0,0.0,0.0,0.0,1.2577,1.1343,1.1822,1.0995,0.9571,0.8364,0.0,0.0,0.0,0.0,0.0,0.0,0.0,-0.3324,-0.588,-0.722,-0.8085,-0.8092,-0.8096,-0.8096,-0.8096,-0.7879,-0.7584,-0.7244,-0.7627,-0.7731,-0.6956,-0.7982,0.0,0.0,0.0,-1.3244,-1.361,-1.5752,-1.7261,-1.7549,-1.7582,-1.7582,-1.7582,-1.7315,-1.7041,-1.678,-1.6333,-1.5892,-1.5471,-1.517,-1.4937,0.0,0.0,0.0,0.0,0.0,0.0,0.0,0.0,0.0,0.0,0.0,0.0,0.0,0.0,0.0,0.0,0.0,0.0,0.0,0.0,0.0,0.0,0.0,0.0,0.0,0.0,0.0,0.0,2.4746,2.4439,2.3356,2.3561,2.3196,0.0,0.0,0.0,0.0,0.0,0.0,2.3851,2.2151,2.1614,2.2514,2.1603,2.1386,2.2066,2.2252,2.249,2.2765,2.2301,2.1947,2.1697,2.0881,2.027,1.9861,1.8355,1.7742,1.7663,1.7094,1.5796,1.4295,1.411,1.2821,1.103,1.1253,1.0641,0.9582,0.9498,0.8157,0.6139,0.3775,0.1965,0.0575,0.0187,0.0,0.0,0.0,0.0,-0.5753,-0.7828,-0.8357,-0.835,-0.8459,-0.8482,-0.8584,-0.8999,-0.9013,-0.878,-0.8259,-0.8502,-0.8625,-0.8329,-0.9552,0.0,-1.0062,-1.2503,-1.438,-1.4642,-1.6215,-1.7341,-1.7562,-1.7582,-1.7582,-1.7582,-1.7382,-1.7228,-1.7154,-1.674,-1.6359,-1.6066,-1.5845,-1.5591,-1.5304,0.0,0.0,0.0,0.0,0.0,0.0,0.0,0.0,0.0,0.0,0.0,0.0,0.0,0.0,0.0,0.0,0.0,0.0,0.0,0.0,0.0,0.0,0.0,0.0,0.0,0.0,0.0,0.0,0.0,2.2693,2.2512,0.0,0.0,0.0,0.0,2.328,2.3769,2.3722,2.2805,2.2692,2.2876,2.3623,2.3556,2.3455,2.3452,2.3444,2.3111,2.2553,2.2524,2.2041,2.1354,2.1558,2.1071,1.9774,1.738,1.637,1.6433,1.5219,1.4672,1.4314,1.2155,1.0513,0.9427,0.9621,0.903,0.8117,0.7811,0.6195,0.3715,0.1055,-0.3631,-0.8234,-0.8262,-0.8189,0.0,0.0,-0.8252,-0.8402,-0.8428,-0.8465,-0.8472,-0.8479,-0.8482,-0.8895,-1.0335,-1.0534,-1.0463,-1.0255,-1.1067,-1.1803,-1.2047,0.0,-1.3522,-1.2553,-1.3824,-1.5023,-1.519,-1.6625,-1.7569,-1.7582,-1.7582,-1.7582,-1.7582,-1.7569,-1.7442,-1.7271,-1.7121,-1.6974,-1.6673,-1.6647,-1.6506,-1.6213,-1.5919,0.0,0.0,0.0,0.0,0.0,0.0,0.0,0.0,0.0,0.0,0.0,0.0,0.0,0.0,0.0,0.0,0.0,0.0,0.0,0.0,0.0,0.0,0.0,0.0,0.0,0.0,0.0,0.0,2.3561,2.3918,0.0,2.2669,2.3814,2.4432,2.3794,2.4259,2.4719,2.5144,2.4541,2.4311,2.4524,2.4514,2.4345,2.397,2.3857,2.3533,2.283,2.2071,2.1258,2.0383,1.9677,1.8754,1.7521,1.5808,1.4637,1.3779,1.2432,1.1905,1.1806,1.0934,0.985,0.8769,0.8827,0.8589,0.816,0.8226,0.7475,0.5177,-0.3081,-0.7115,-0.8859,-0.8776,-0.8591,-0.8515,-0.8498,-0.8591,-0.868,-0.8618,-0.8703,-0.8991,-0.995,-1.0162,-1.0588,-1.207,-1.2389,-1.2578,-1.3446,-1.3028,-1.2525,-1.247,-1.3667,-1.4354,-1.3882,-1.5349,-1.6401,-1.6504,-1.7186,-1.7582,-1.7582,-1.7582,-1.7582,-1.7582,-1.7582,-1.7542,-1.7435,-1.7428,-1.7295,-1.7007,-1.6987,-1.6854,-1.656,-1.6266,-1.5825,0.0,0.0,0.0,0.0,0.0,0.0,0.0,0.0,0.0,0.0,0.0,0.0,0.0,0.0,0.0,0.0,0.0,0.0,0.0,0.0,0.0,0.0,0.0,0.0,0.0,2.5255,2.5128,2.4255,2.4975,2.4938,2.3567,2.4469,2.4973,2.4599,2.5059,2.5753,2.669,2.5752,2.5373,2.579,2.5432,2.4736,2.3793,2.371,2.3133,2.1942,2.1182,2.0352,1.9367,1.8159,1.7002,1.5799,1.4029,1.2754,1.1882,1.046,0.9844,0.9887,0.9766,0.9205,0.8489,0.854,0.8461,0.8282,0.7454,0.5027,0.1081,-0.6413,-0.8949,-0.8824,-0.879,-0.8669,-0.8659,-0.8642,-0.871,-0.8788,-0.8788,-0.9187,-0.9915,-1.0891,-1.1433,-1.2077,-1.3048,-1.3696,-1.4234,-1.5204,-1.4084,-1.3299,-1.4168,-1.4692,-1.5161,-1.5506,-1.6523,-1.7295,-1.7295,-1.7462,-1.7582,-1.7582,-1.7582,-1.7582,-1.7582,-1.7582,-1.7582,-1.7582,-1.7582,-1.7495,-1.7301,-1.7201,-1.7061,-1.686,-1.6473,-1.6086,-1.5691,0.0,0.0,0.0,0.0,0.0,0.0,0.0,0.0,0.0,0.0,0.0,0.0,0.0,0.0,0.0,0.0,0.0,0.0,0.0,0.0,0.0,0.0,0.0,2.4632,2.5442,2.5728,2.4606,2.5431,2.561,2.4184,2.5046,2.5623,2.5623,2.6189,2.6759,2.7263,2.6256,2.6101,2.721,2.6122,2.4651,2.2949,2.2882,2.1839,1.9857,1.99,1.9336,1.8302,1.7286,1.6041,1.4729,1.2096,1.0936,1.0874,0.9313,0.8804,0.891,0.8611,0.8496,0.8516,0.8665,0.872,0.8301,0.5107,-0.1563,-0.8913,-0.891,-0.889,-0.8863,-0.8863,-0.8846,-0.894,-0.894,-0.894,-0.894,-0.894,-1.0025,-1.1105,-1.1214,-1.2295,-1.3372,-1.3372,-1.4556,-1.5417,-1.5417,-1.4341,-1.4234,-1.7147,-1.6387,-1.5956,-1.7364,-1.7582,0.0,-1.7582,-1.7582,-1.7582,-1.7582,-1.7582,-1.7582,-1.7582,-1.7582,-1.7582,-1.7582,-1.7582,-1.7582,-1.7582,-1.7315,-1.7161,-1.7161,-1.6587,-1.6286,-1.6286,0.0,0.0,0.0,0.0,0.0,0.0,0.0,0.0,0.0,0.0,0.0,0.0,0.0,0.0,0.0,0.0,0.0,0.0,0.0,0.0,0.0,2.4682,2.5382,2.5182,2.5827,2.6295,2.6246,2.6505,2.644,2.5859,2.6083,2.6214,2.6214,2.6427,2.6559,2.669,2.6435,2.6024,2.554,2.4368,2.3082,2.1799,2.1086,1.998,1.8624,1.8829,1.7841,1.5981,1.5646,1.4278,1.2102,1.135,1.0409,0.9478,0.9003,0.8899,0.893,0.8845,0.8821,0.8842,0.8886,0.8806,0.7473,-0.1895,-0.6852,-0.891,-0.8883,-0.887,-0.886,-0.8954,-0.8944,-0.894,-0.894,-0.894,-0.894,-0.894,-1.0025,-1.1324,-1.2403,-1.3804,-1.5097,-1.6174,-1.6717,-1.7035,-1.7035,-1.5849,-1.5417,-1.7259,-1.7252,-1.7147,-1.7582,-1.7582,-1.7582,-1.7582,-1.7582,-1.7582,-1.7582,-1.7582,-1.7582,-1.7582,-1.7582,-1.7582,-1.7582,-1.7582,-1.7582,-1.7582,-1.7508,-1.7462,-1.7462,-1.6887,-1.6587,0.0,0.0,0.0,0.0,0.0,0.0,0.0,0.0,0.0,0.0,0.0,0.0,0.0,0.0,0.0,0.0,0.0,0.0,0.0,0.0,0.0,0.0,2.5535,2.6582,2.6603,2.7214,2.757,2.7384,2.7597,2.7516,2.6904,2.681,2.6917,2.7143,2.6772,2.6593,2.6823,2.5962,2.521,2.48,2.32,2.1744,2.0701,1.9652,1.8626,1.7718,1.7272,1.6361,1.5089,1.3922,1.2505,1.1105,1.0457,0.9699,0.894,0.894,0.8944,0.8954,0.0,0.0,0.0,0.0,0.627,0.4139,-0.2793,-0.6842,-0.889,-0.887,-0.8856,-0.8846,-0.8944,-0.894,-0.9047,-0.9699,-0.9809,-0.9915,-1.0566,-1.1864,-1.3156,-1.4019,-1.531,-1.6387,-1.6611,-1.7147,-1.747,-1.6823,-1.6499,0.0,-1.747,-1.7041,-1.6929,-1.7477,-1.7582,-1.7582,-1.7582,-1.7582,-1.7582,-1.7582,-1.7582,-1.7582,-1.7582,-1.7582,0.0,0.0,0.0,-1.7837,-1.8212,-1.7707,0.0,0.0,0.0,0.0,0.0,-1.8621,0.0,0.0,-1.8218,-1.7888,0.0,0.0,0.0,0.0,0.0,0.0,0.0,0.0,0.0,0.0,0.0,0.0,0.0,0.0,0.0,0.0,2.6439,2.8146,2.8161,2.8814,2.9045,2.8196,2.8688,2.8615,2.7396,2.736,2.7551,2.8035,2.7087,2.6713,2.7107,2.5006,0.0,0.0,0.0,2.0482,1.9694,1.849,1.7563,1.6935,1.5701,1.4989,1.4877,1.2295,1.0996,1.0781,0.9482,0.894,0.894,0.8944,0.8846,0.8866,0.8866,0.8866,0.8412,0.4468,0.1338,-0.1004,-0.1005,0.0,0.0,-0.8876,-0.8967,-0.894,-0.894,-0.894,-0.9154,-1.0672,-1.1105,-1.1433,-1.294,-1.4341,-1.5417,-1.5417,-1.6499,-1.7259,-1.5956,-1.6711,-1.7259,-1.5849,-1.6711,-1.7582,-1.7582,-1.6499,-1.6062,-1.7364,-1.7582,-1.7582,-1.7582,-1.7582,-1.7687,-1.7786,-1.7786,0.0,-1.8094,-1.8094,-1.8094,-1.8094,-1.8094,-1.8483,-1.9411,-1.8302,-1.8316,-1.9558,-1.9941,-2.0261,-2.0597,-2.216,-2.2888,-2.2938,-2.0609,-1.9905,0.0,0.0,0.0,0.0,0.0,0.0,0.0,0.0,0.0,0.0,0.0,0.0,0.0,0.0,0.0,2.5372,2.64,2.7314,2.7715,2.8541,2.903,2.8814,2.9311,2.9006,2.7477,2.7703,2.7998,2.811,2.7136,2.6337,2.5955,2.37,2.2323,2.2002,1.9654,1.8426,1.8422,1.7492,1.6472,1.5457,1.5352,0.0,1.186,1.1324,1.0457,0.9265,0.9047,0.894,0.894,0.885,0.8873,0.8903,0.8903,0.8903,0.7644,-0.257,-0.6626,-0.7203,-0.7387,-0.8036,-0.8876,-0.9086,-0.9035,-0.894,-0.894,-0.894,0.0,-1.0672,-1.1105,-1.1433,-1.294,-1.4341,-1.5417,-1.5417,-1.6499,-1.7477,-1.7259,-1.7364,-1.7477,-1.7252,-1.7364,-1.7582,-1.7582,-1.7364,-1.7259,-1.7582,-1.7582,-1.7582,-1.7582,-1.7582,-1.7989,-1.9117,-1.922,-1.9627,-2.0837,-2.0939,-2.0939,-2.0939,-2.0939,-2.1009,-2.1249,-2.0937,-2.1081,-2.1688,-2.1762,-2.1965,-2.2429,-2.2707,-2.3261,-2.3819,-2.3029,-2.2774,0.0,0.0,0.0,0.0,0.0,0.0,0.0,0.0,0.0,0.0,0.0,2.4433,2.5114,0.0,2.5507,2.5685,2.7357,2.8557,2.8366,2.9358,2.9747,2.8871,2.8967,2.8856,2.8145,2.8348,2.8623,2.8901,2.744,2.6401,2.6109,2.3298,2.1553,2.1347,1.9047,1.7992,1.8312,1.7369,1.6337,1.5229,1.4607,1.3156,1.1105,1.0351,0.9588,0.894,0.894,0.8947,0.8846,0.8876,0.7179,0.4137,0.1117,-0.0,-0.0559,-0.5039,-0.7639,-0.8893,-0.9059,-0.9025,-0.9075,-0.9906,-0.9543,-0.9154,-1.0672,-1.0566,-1.0457,-1.2615,-1.3264,-1.3614,-1.5263,-1.6168,-1.6719,-1.6719,-1.7268,-1.7769,-1.7615,-1.7582,-1.7582,-1.7582,-1.7582,-1.7582,-1.7582,-1.7582,-1.7582,-1.7582,-1.7582,-1.7891,-1.8506,-1.861,-1.9117,-2.0538,-2.0641,-2.1019,-2.1915,-2.2034,-2.2034,-2.2034,-2.2034,-2.2425,-2.3323,-2.2714,-2.2703,-2.3626,-2.3817,-2.4,-2.4297,-2.5147,-2.5883,-2.6453,-2.6573,-2.6242,0.0,0.0,0.0,0.0,0.0,0.0,0.0,0.0,2.5906,2.6255,2.556,2.5232,2.6302,2.6308,2.6145,2.6063,2.8007,2.932,2.8772,2.9656,2.9902,2.8574,2.8679,2.8818,2.8932,2.8831,2.8942,2.9403,2.7383,2.6089,2.5946,2.277,2.0966,2.0785,1.8863,1.7938,1.8258,1.753,1.6437,1.4984,1.3804,1.2403,1.0676,0.9482,0.894,0.894,0.8944,0.885,0.8759,0.7639,0.3689,-0.2232,-0.7073,-0.8903,-0.8559,-0.6272,-0.6826,-0.887,-0.892,-0.9109,-0.9489,-1.0753,-1.0512,-1.0249,-1.2668,-1.254,-1.2087,-1.4719,-1.5493,-1.5869,-1.7538,-1.809,-1.813,-1.813,-1.809,-1.7996,-1.7802,-1.7709,-1.7689,-1.7749,-1.7762,-1.7762,-1.7762,-1.7962,-1.802,-1.7707,-1.7786,-1.8422,-1.9613,-1.9925,-2.0664,-2.2155,-2.2367,-2.2605,-2.3126,-2.3255,-2.3255,-2.3255,-2.3255,-2.3911,-2.528,-2.4333,-2.4263,-2.5522,-2.5835,-2.6037,-2.6111,-2.7563,-2.8555,-2.9053,-2.9404,-2.9029,2.7773,2.6792,2.6246,2.614,2.619,2.6304,0.0,0.0,2.6986,2.6396,2.6533,2.6864,2.7374,2.6904,2.676,2.7668,2.7324,2.7063,2.7456,2.7644,2.7794,2.81,2.9227,2.9757,2.8978,2.8458,2.8256,2.8286,2.6231,2.4584,2.3752,2.1423,1.9652,1.8813,1.7513,1.6995,1.7299,1.7237,1.602,1.348,1.3372,1.1864,0.9154,0.8937,0.894,0.894,0.885,0.8876,0.8447,0.3128,-0.2569,-0.7991,-0.8647,-0.8866,-0.8866,-0.8523,-0.8634,-0.8897,-0.9252,-1.0051,-1.0945,-1.1373,-1.2033,-1.2871,-1.3497,-1.3421,-1.3413,-1.5367,-1.5873,-1.6211,-1.759,-1.8243,-1.8444,-1.8444,-1.8237,-1.811,-1.8343,-1.8183,-1.8076,-1.8337,-1.839,-1.839,-1.839,-1.9446,-1.9772,-1.7867,-1.8603,-1.9628,-2.0136,-2.1217,-2.2686,-2.4485,-2.4625,-2.5179,-2.6404,-2.6516,-2.6516,-2.6516,-2.6516,-2.6535,-2.6798,-2.6583,-2.6766,-2.7369,-2.7418,-2.7621,-2.7999,-2.8155,-2.8711,-2.9502,-2.9551,-2.9653,2.7812,2.7094,2.6686,0.0,2.6421,2.6959,2.7067,2.7327,2.7616,2.7944,2.7774,2.7853,2.8849,2.8252,2.7936,0.0,2.8617,2.8464,2.8508,2.856,2.8499,2.8423,2.932,2.9571,2.8518,2.8229,2.7801,2.7219,2.523,2.3772,2.3425,2.0653,1.8888,1.855,1.7566,1.7021,1.7148,1.6463,1.5205,1.3264,1.2403,1.0891,0.894,0.894,0.8947,0.885,0.888,0.6953,0.324,-0.2681,-0.6616,-0.8883,-0.8866,-0.8853,-0.8964,-0.9045,-0.963,-1.044,-1.0673,-1.1603,-1.2846,-1.3933,-1.3932,-1.3915,-1.5672,-1.5516,-1.5121,-1.6671,-1.715,-1.7335,-1.8242,-1.8651,-1.8744,-1.8744,-1.8651,-1.8544,-1.8504,-1.8397,-1.8343,-1.8464,-1.849,-1.849,-1.849,-1.9764,-2.0409,-1.9499,-2.0613,-2.1925,-2.2913,-2.3566,-2.4477,-2.6022,-2.6371,-2.6636,-2.6929,-2.7246,-2.7393,-2.7393,-2.7393,-2.75,-2.7744,-2.7764,-2.7851,-2.8027,-2.8027,-2.8115,-2.8291,-2.8291,-2.873,-2.957,-2.957,-2.9941,2.7829,0.0,0.0,2.6137,2.657,2.7375,2.778,2.8002,2.8355,2.9159,2.8889,2.8749,2.9656,2.9041,2.8619,2.947,2.9188,2.8882,2.8795,2.8831,2.8657,2.8327,2.8918,2.8907,2.7743,2.7661,2.709,2.5782,2.3987,2.2737,2.2206,1.9966,1.8537,1.8232,1.7654,1.7158,1.6736,1.5858,1.4449,1.2729,1.1647,1.0355,0.895,0.8954,0.8054,0.6482,0.6391,0.3576,-0.1673,-0.673,-0.8883,-0.8971,-0.9404,-0.9525,-0.9672,-1.0277,-1.0864,-1.1638,-1.2227,-1.331,-1.46,-1.5904,-1.5683,-1.5274,-1.747,-1.7322,-1.6714,-1.781,-1.8223,-1.837,-1.8711,-1.8925,-1.9045,-1.9045,-1.8985,-1.8885,-1.8758,-1.8671,-1.8742,-1.925,-1.9382,-1.9487,-1.9918,-2.1205,-2.2164,-2.2164,-2.3468,-2.4615,-2.5149,-2.5555,-2.6276,-2.726,-2.7646,-2.7715,-2.7393,-2.7656,-2.7842,-2.7842,-2.7842,-2.7978,-2.8281,-2.8291,-2.8291,-2.8291,-2.8291,-2.8291,-2.8291,-2.8291,-2.873,-2.957,-2.957,-3.0049,0.0,0.0,2.738,2.6707,2.6612,2.695,2.8268,2.9065,2.9479,2.932,2.9553,2.9656,2.948,2.8705,2.8447,2.9593,2.7974,2.6783,2.727,2.7355,2.7359,2.7371,2.782,2.7695,2.6648,2.6565,2.5698,2.3644,2.2509,2.1019,1.9182,1.9026,1.8578,1.7647,1.7562,1.6916,1.5512,1.5411,1.4019,1.1214,1.1105,1.0363,0.8863,0.8883,0.5708,0.0223,0.0223,-0.1449,-0.4582,-0.7616,-0.8863,-0.9078,-1.0468,-1.1215,-1.1617,-1.3163,-1.2772,-1.1768,-1.3639,-1.5134,-1.6175,-1.608,-1.6931,-1.7988,-1.839,-1.8277,-1.7994,-1.8397,-1.8684,-1.8838,-1.8571,-1.8925,-1.9352,-1.9352,-1.9132,-1.8998,-1.9279,-1.9112,-1.9432,-2.1163,-2.1556,-2.2001,-2.3343,-2.4896,-2.59,-2.59,-2.7239,-2.7544,-2.5806,-2.71,-2.8252,-2.8252,-2.8262,-2.8271,-2.8252,-2.8262,-2.8271,-2.8271,-2.8271,-2.8281,-2.8291,-2.8291,-2.8291,-2.8291,-2.8291,-2.8291,-2.8291,-2.8291,-2.873,-2.957,-2.957,-3.0049,2.8035,0.0,2.764,2.7876,2.8268,2.8693,2.9169,2.9753,2.9973,2.9276,2.9163,2.9178,2.895,2.851,2.8323,2.8929,2.7893,2.6981,2.6798,2.6412,2.5703,2.4587,2.5239,0.0,2.2105,2.3968,2.489,2.3781,2.1946,2.0699,2.0396,1.8942,1.7462,1.6168,1.6174,1.5417,1.4019,1.3048,1.2077,1.1105,1.015,0.838,0.5926,0.3908,0.1896,-0.0223,-0.4134,-0.6495,-0.7619,-1.0185,-1.1011,-1.0763,-1.2427,-1.3184,-1.3385,-1.5091,-1.5465,-1.5102,-1.5898,-1.6904,-1.8101,-1.818,-1.8275,-1.8364,-1.8464,-1.8283,-1.807,-1.817,-1.8263,-1.8364,-1.8464,-1.8778,-1.9072,-1.9072,-1.9145,-1.9245,-1.9345,-2.0064,-2.09,-2.145,-2.2363,-2.3263,-2.371,-2.5041,-2.6381,-2.7394,-2.795,-2.8126,-2.7418,-2.797,-2.8291,-2.8291,-2.8291,-2.8291,-2.8291,-2.8291,-2.8291,-2.8291,-2.8291,-2.8291,-2.8291,-2.8291,-2.8291,-2.8291,-2.8291,-2.8291,-2.8291,-2.8574,-2.9004,-2.958,-2.9853,-3.0312,2.9058,2.8979,2.8696,2.8883,2.928,2.9669,2.9894,2.9972,2.9955,2.9558,2.9147,2.8807,2.8626,2.805,2.7711,2.8101,2.7054,2.5968,2.5307,2.4882,2.4084,2.2514,2.2891,2.2341,0.0,0.0,2.2212,2.1892,2.1137,2.0122,1.9036,1.7637,1.6174,1.4663,1.4663,1.3911,1.2512,1.1778,1.1029,1.0268,0.7141,0.4688,0.279,-0.0223,-0.223,-0.3456,-0.7946,-0.9894,-1.0036,-1.2046,-1.2679,-1.2608,-1.4204,-1.4988,-1.5199,-1.6858,-1.7563,-1.7675,-1.7861,-1.8404,-1.9098,-1.9185,-1.8951,-1.8644,-1.8644,-1.851,-1.8364,-1.8364,-1.8437,-1.8537,-1.8624,-1.8865,-1.9085,-1.9085,-1.9672,-2.0148,-2.0148,-2.1373,-2.2589,-2.3143,-2.3925,-2.482,-2.527,-2.6273,-2.7168,-2.8174,-2.8291,-2.8291,-2.8291,-2.8291,-2.8291,-2.8291,-2.8291,-2.8291,-2.8291,-2.8291,-2.8291,-2.8291,-2.8291,-2.8291,-2.8291,-2.8291,-2.8291,-2.8291,-2.8291,-2.8291,-2.8291,-2.8711,-2.9141,-2.958,-3.0,-3.0449,3.055,3.0546,3.0352,2.9798,2.9645,2.9765,3.0334,2.982,2.9426,3.0023,2.9194,2.8356,0.0,0.0,2.6632,2.6983,2.5387,2.3859,2.2969,2.2805,2.2339,0.0,0.0,0.0,0.0,0.0,1.783,1.8149,1.9719,1.9115,1.5713,1.5411,1.4663,1.3264,1.3161,1.2512,1.1,1.1143,1.0292,0.8323,0.2677,-0.0111,-0.0557,-0.3571,-0.6374,-0.9193,-1.1067,-1.1806,-1.1711,-1.3276,-1.3963,-1.439,-1.5879,-1.6601,-1.7056,-1.8356,-1.9125,-1.9366,-1.9366,-1.9366,-1.9319,-1.9038,-1.8931,-1.8925,-1.8925,-1.8911,-1.8905,-1.8905,-1.9105,-1.9259,-1.8978,-1.9233,-1.9455,-1.9455,-2.0573,-2.1692,-2.1692,-2.2814,-2.4378,-2.5827,-2.6155,-2.6608,-2.8067,-2.8291,-2.8291,-2.8291,-2.8291,-2.8291,-2.8291,-2.8291,-2.8291,-2.8291,-2.8291,-2.8291,-2.8291,-2.8291,-2.8291,-2.8291,-2.8291,-2.8291,-2.8291,-2.8291,-2.8291,-2.8291,-2.8291,-2.8291,-2.8291,-2.874,-2.917,-2.958,-3.0029,-3.0469,3.0386,3.0505,3.0468,3.0322,3.0205,3.0034,2.969,2.9299,2.8953,2.8486,2.7589,2.6649,0.0,0.0,0.0,2.321,2.3172,0.0,2.0712,2.0369,0.0,1.7357,0.0,1.6223,1.4237,1.4881,0.0,1.4263,1.553,1.6504,1.6944,1.4961,1.3156,1.1755,1.2014,1.1266,0.9507,0.522,0.2777,0.2231,0.0779,-0.2338,-0.6725,-0.8937,-1.0386,-1.1177,-1.2332,-1.2969,-1.3276,-1.5005,-1.5783,-1.6258,-1.7982,-1.8705,-1.877,-1.9137,-1.9299,-1.9366,-1.9366,-1.9366,-1.9359,-1.9279,-1.9105,-1.8925,-1.8925,-1.8771,-1.8604,-1.8604,-1.8657,-1.8698,-1.8617,-1.9682,-2.0674,-2.0681,-2.1969,-2.3263,-2.3263,-2.4488,-2.5599,-2.6045,-2.6943,-2.7843,-2.8291,-2.8291,-2.8291,-2.8291,-2.8291,-2.8291,-2.8291,-2.8291,-2.8291,-2.8291,-2.8291,-2.8291,-2.8291,-2.8291,-2.8291,-2.8291,-2.8291,-2.8291,-2.8291,-2.8291,-2.8291,-2.8291,-2.8291,-2.8291,-2.8291,-2.9043,-2.9463,-2.959,-3.0351,-3.0781,3.1246,3.1172,3.0866,3.0502,3.0363,3.0024,2.9067,2.816,2.7315,2.6611,2.5533,0.0,2.3372,2.3037,0.0,0.0,0.0,0.0,1.7328,1.7008,1.6261,0.0,1.4023,0.0,1.1544,1.2233,1.256,1.2211,1.393,1.4978,1.4973,1.3506,1.19,1.0166,1.041,0.8722,0.5021,0.1667,-0.1335,-0.391,-0.3899,-0.613,-1.0208,-1.1054,-1.1805,-1.2564,-1.3821,-1.4636,-1.4988,-1.6712,-1.7673,-1.7937,-1.9061,-1.9366,-1.9366,-1.9366,-1.9366,-1.9366,-1.9366,-1.9366,-1.9366,-1.9366,-1.9252,-1.9118,-1.9118,-1.9005,-1.8871,-1.8871,-1.8871,-1.9097,-1.9745,-2.063,-2.1526,-2.2196,-2.3562,-2.482,-2.482,-2.6045,-2.7051,-2.7051,-2.7726,-2.8291,-2.8291,-2.8291,-2.8291,-2.8291,-2.8291,-2.8291,-2.8291,-2.8291,-2.8291,-2.8291,-2.8291,-2.8291,-2.8291,-2.8291,-2.8291,-2.8291,-2.8291,-2.8291,-2.8291,-2.8291,-2.8291,-2.8291,-2.8291,-2.8389,-2.8574,-2.9238,-2.9668,-2.9863,-3.0566,-3.0889,3.2279,3.1998,3.1323,3.0505,3.0106,2.9578,2.8171,2.648,2.5042,2.4396,0.0,2.2024,2.066,2.0188,1.9423,1.759,0.0,1.5949,1.4099,1.379,1.3239,1.1843,1.1658,1.1161,1.0083,1.0042,1.0443,1.113,1.3148,1.368,1.2073,1.1283,0.9842,0.775,0.775,0.4808,-0.1115,-0.1223,-0.3896,-0.9335,-0.9217,-1.0197,-1.1937,-1.1805,-1.2446,-1.3753,-1.5487,-1.6306,-1.6712,-1.8233,-1.9098,-1.9366,-1.9366,-1.9366,-1.9366,-1.9366,-1.9366,-1.9366,-1.9366,-1.9366,-1.9366,-1.9366,-1.9366,-1.9366,-1.9366,-1.9366,-1.9482,-1.9591,-1.97,-2.004,-2.1479,-2.2024,-2.2476,-2.3822,-2.527,-2.6381,-2.6381,-2.7394,-2.8291,-2.8291,-2.8291,-2.8291,-2.8291,-2.8291,-2.8291,-2.8291,-2.8291,-2.8291,-2.8291,-2.8291,-2.8291,-2.8291,-2.8291,-2.8291,-2.8291,-2.8291,-2.8291,-2.8291,-2.8291,-2.8291,-2.8291,-2.8291,-2.8291,-2.8291,-2.835,-2.8555,-2.8916,-2.9414,-2.9834,-3.0205,-3.0674,-3.0889,3.1614,3.1599,3.1309,3.0502,2.9158,2.7631,2.6337,2.4665,0.0,0.0,2.0681,1.9633,1.8575,1.8172,1.7669,1.6507,0.0,0.0,0.0,0.0,1.2989,0.0,1.0288,0.9838,0.8744,0.8786,0.0,0.9375,0.9721,1.0851,1.2937,0.8383,0.4462,0.1673,0.1562,-0.1338,-0.7296,-0.739,-0.8719,-1.13,-1.1184,-1.17,-1.3073,-1.4445,-1.5189,-1.5522,-1.7016,-1.7896,-1.8499,-1.8785,-1.9098,-1.9366,-1.9366,-1.9366,-1.9366,-1.9366,-1.9366,-1.9366,-1.9366,-1.9366,-1.9366,-1.9366,-1.9366,-1.9366,-1.9366,-1.9366,-1.97,-2.0923,-2.1252,-2.1586,-2.3039,-2.4369,-2.5371,-2.5599,-2.6834,-2.795,-2.795,-2.8067,-2.8291,-2.8291,-2.8291,-2.8291,-2.8291,-2.8291,-2.8291,-2.8291,-2.8291,-2.8291,-2.8291,-2.8291,-2.8291,-2.8291,-2.8291,-2.8291,-2.8291,-2.8291,-2.8291,-2.8291,-2.8291,-2.8291,-2.8291,-2.8291,-2.8291,-2.8291,-2.8633,-2.8848,-2.8916,-2.9707,-3.0127,-3.0205,-3.0674,-3.0889,3.0995,3.0872,3.0535,2.9258,2.7732,2.6189,2.4786,0.0,0.0,0.0,1.8341,1.7089,1.5942,0.0,0.0,0.0,0.0,0.0,0.0,0.0,0.0,0.0,0.8931,0.8772,0.0,0.8397,0.8535,0.8876,0.8893,0.9565,1.0929,0.2452,-0.2456,-0.2343,-0.3792,-0.6475,-1.0315,-1.017,-1.0961,-1.2827,-1.2673,-1.3317,-1.4647,-1.5667,-1.638,-1.7053,-1.8033,-1.8664,-1.8931,-1.9092,-1.9239,-1.9366,-1.9366,-1.9366,-1.9366,-1.9366,-1.9366,-1.9366,-1.9366,-1.9366,-1.9366,-1.9366,-1.9366,-1.9591,-2.0256,-2.0594,-2.0809,-2.2371,-2.2702,-2.3039,-2.4599,-2.5599,-2.6264,-2.7051,-2.7833,-2.8291,-2.8291,-2.8291,-2.8291,-2.8291,-2.8291,-2.8291,-2.8291,-2.8291,-2.8291,-2.8291,-2.8291,-2.8291,-2.8291,-2.8291,-2.8291,-2.8291,-2.8291,-2.8291,-2.8291,-2.8291,-2.8291,-2.8291,-2.8291,-2.8291,-2.8291,-2.8506,-2.8613,-2.8613,-2.9043,-2.9365,-2.959,-3.0,-3.0322,-3.0566,-3.0791,-3.0889,3.0435,3.0024,2.9329,2.7767,2.6189,2.459,2.3253,2.0578,0.0,0.0,1.6272,1.4911,1.3645,0.0,1.3803,0.0,0.0,0.0,0.0,0.0,0.0,0.0,0.7679,0.0,0.818,0.8305,0.8441,0.8893,0.6517,0.5043,0.5043,-0.3804,-0.7871,-0.5479,-0.8057,-1.0181,-1.1603,-1.1603,-1.255,-1.4146,-1.4246,-1.5049,-1.646,-1.6721,-1.7302,-1.8257,-1.8724,-1.8958,-1.9038,-1.9272,-1.9366,-1.9366,-1.9366,-1.9366,-1.9366,-1.9366,-1.9591,-1.9924,-1.9924,-2.004,-2.0378,-2.0378,-2.0155,-2.0033,-2.1252,-2.1805,-2.2371,-2.3822,-2.4275,-2.4599,-2.6155,-2.6608,-2.6825,-2.8067,-2.8291,-2.8291,-2.8291,-2.8291,-2.8291,-2.8291,-2.8291,-2.8291,-2.8291,-2.8291,-2.8291,-2.8291,-2.8291,-2.8291,-2.8291,-2.8291,-2.8291,-2.8291,-2.8291,-2.8291,-2.8291,-2.8291,-2.8291,-2.8291,-2.8291,-2.8291,-2.8291,-2.8701,-2.8916,-2.8916,-2.9434,-2.9863,-3.0195,-3.0293,-3.0537,-3.0889,-3.0889,-3.0937,3.0325,2.9044,2.7512,2.6655,2.4677,2.2621,2.1323,0.0,0.0,1.5726,1.4617,1.3557,1.2592,1.2716,1.2719,0.0,0.0,1.1652,0.0,0.0,0.0,0.0,0.0,0.0,0.8014,0.8213,0.8448,0.8917,-0.1119,-0.731,-0.731,-0.8329,-0.8772,-0.852,-1.0512,-1.138,-1.1223,-1.2698,-1.4235,-1.5701,-1.6162,-1.7071,-1.8229,-1.8519,-1.8751,-1.8844,-1.8905,-1.9078,-1.9332,-1.9359,-1.9366,-1.9366,-1.9366,-1.9366,-1.9366,-1.9366,-2.0256,-2.1365,-2.1365,-2.2258,-2.3375,-2.3375,-2.2484,-2.1472,-2.1586,-2.2589,-2.3933,-2.5406,-2.5845,-2.6273,-2.7726,-2.8067,-2.8174,-2.8291,-2.8291,-2.8291,-2.8291,-2.8291,-2.8291,-2.8291,-2.8291,-2.8291,-2.8291,-2.8291,-2.8291,-2.8291,-2.8291,-2.8291,-2.8291,-2.8291,-2.8291,-2.8291,-2.8291,-2.8291,-2.8291,-2.8291,-2.8291,-2.8291,-2.8291,-2.8291,-2.8291,-2.8701,-2.8916,-2.8916,-2.9717,-3.0156,-3.0195,-3.0625,-3.085,-3.0889,-3.0889,-3.1094,2.8935,2.7802,2.6578,2.5706,2.3513,2.1246,2.0134,0.0,1.5694,1.4553,1.352,1.2732,1.2372,1.1938,1.1756,1.2382,1.1123,0.9971,0.9819,0.0,0.0,0.0,0.7353,0.0,0.0,0.0,0.2471,0.0892,-0.5258,-0.9436,-1.054,-1.0647,-1.0516,-1.0257,-1.1891,-1.297,-1.3691,-1.4326,-1.5544,-1.7156,-1.7544,-1.8019,-1.8504,-1.8791,-1.8831,-1.8664,-1.8664,-1.8731,-1.8844,-1.8844,-1.8945,-1.9098,-1.9098,-1.9759,-2.0702,-2.0702,-2.1707,-2.2927,-2.2927,-2.3263,-2.3822,-2.3822,-2.4044,-2.4258,-2.4258,-2.471,-2.5489,-2.6961,-2.7403,-2.7511,-2.8174,-2.8291,-2.8291,-2.8291,-2.8291,-2.8291,-2.8291,-2.8291,-2.8291,-2.8291,-2.8291,-2.8291,-2.8291,-2.8291,-2.8291,-2.8291,-2.8291,-2.8291,-2.8291,-2.8291,-2.8291,-2.8291,-2.8291,-2.8291,-2.8291,-2.8291,-2.8291,-2.8291,-2.8291,-2.8291,-2.8291,-2.8945,-2.9307,-2.9307,-3.0166,-3.0615,-3.0615,-3.0801,-3.0889,-3.0898,-3.1152,-3.1357,2.7524,2.637,2.525,2.4313,2.2215,2.0104,0.0,1.6947,1.4879,1.3882,1.2952,1.2224,1.1922,1.1316,1.0965,1.1511,0.9907,0.8657,0.8792,0.8052,0.0,0.0,0.0,0.6594,0.5638,0.0428,-0.4025,-0.6919,-0.8729,-1.063,-1.2502,-1.2806,-1.2555,-1.1755,-1.3156,-1.4449,-1.5417,-1.5934,-1.6839,-1.805,-1.835,-1.849,-1.8497,-1.8704,-1.8684,-1.849,-1.849,-1.849,-1.849,-1.849,-1.8657,-1.8911,-1.9261,-2.0344,-2.1684,-2.1925,-2.3063,-2.4488,-2.4488,-2.482,-2.516,-2.516,-2.5827,-2.6717,-2.6717,-2.6717,-2.6943,-2.8067,-2.8291,-2.8291,-2.8291,-2.8291,-2.8291,-2.8291,-2.8291,-2.8291,-2.8291,-2.8291,-2.8291,-2.8291,-2.8291,-2.8291,-2.8291,-2.8291,-2.8291,-2.8291,-2.8291,-2.8291,-2.8291,-2.8291,-2.8291,-2.8291,-2.8291,-2.8291,-2.8291,-2.8291,-2.8291,-2.8291,-2.8291,-2.835,-2.8476,-2.918,-2.9629,-2.9756,-3.0508,-3.0889,-3.0889,-3.0889,-3.0889,-3.0898,-3.1318,-3.165,2.6408,2.4968,2.3294,2.2253,2.0629,1.9058,1.8156,1.6494,1.4879,1.3882,1.2952,1.1996,1.1013,1.0783,1.036,0.8871,0.8585,0.8243,0.7285,0.7111,0.0,0.0,0.0,0.3223,-0.0,-0.5496,-1.0028,-1.2956,-1.2325,-1.2617,-1.4608,-1.5154,-1.477,-1.3372,-1.4663,-1.5417,-1.5417,-1.7117,-1.7935,-1.805,-1.835,-1.849,-1.849,-1.8497,-1.8497,-1.849,-1.849,-1.849,-1.849,-1.849,-1.8657,-1.9004,-2.0098,-2.0899,-2.1768,-2.2774,-2.4401,-2.6045,-2.6045,-2.7051,-2.8291,-2.8291,-2.8291,-2.8291,-2.8291,-2.8291,-2.8291,-2.8291,-2.8291,-2.8291,-2.8291,-2.8291,-2.8291,-2.8291,-2.8291,-2.8291,-2.8291,-2.8291,-2.8291,-2.8291,-2.8291,-2.8291,-2.8291,-2.8291,-2.8291,-2.8291,-2.8291,-2.8291,-2.8291,-2.8291,-2.8291,-2.8291,-2.8291,-2.8291,-2.8291,-2.8291,-2.8291,-2.8291,-2.8291,-2.8476,-2.8896,-2.9336,-2.9766,-3.0185,-3.0654,-3.0889,-3.0889,-3.0889,-3.0889,-3.0898,-3.1318,-3.1973,2.3789,2.2812,2.1932,2.1333,1.9508,1.7588,1.6685,1.5284,1.3882,1.2952,1.199,1.1162,1.0858,0.9664,0.8782,0.8821,0.7238,0.6309,0.0,0.0,0.0,0.7387,0.0209,-0.506,0.0,-0.9057,-1.119,-1.1717,-1.245,-1.3516,-1.5035,-1.5328,-1.5204,-1.477,-1.6174,-1.6929,-1.6929,-1.7463,-1.7729,-1.7736,-1.8036,-1.819,-1.819,-1.817,-1.8176,-1.8176,-1.7963,-1.7869,-1.7869,-1.7869,-1.8569,-1.9794,-2.0108,-2.1707,-2.3823,-2.4138,-2.5354,-2.676,-2.676,-2.6987,-2.7471,-2.7764,-2.7861,-2.792,-2.8203,-2.8291,-2.8291,-2.8291,-2.8291,-2.8291,-2.8291,-2.8291,-2.8291,-2.8291,-2.8291,-2.8291,-2.8291,-2.8291,-2.8291,-2.8291,-2.8291,-2.8291,-2.8291,-2.8291,-2.8291,-2.8291,-2.8291,-2.8291,-2.8291,-2.8291,-2.8291,-2.8291,-2.8291,-2.8291,-2.8291,-2.8291,-2.8291,-2.8291,-2.8291,-2.835,-2.8486,-2.918,-2.9629,-2.9766,-3.0508,-3.0889,-3.0889,-3.0889,-3.1191,-3.1777,-3.2197,-3.2685,0.0,2.1452,2.0969,1.9959,1.8404,1.6883,1.5553,1.4483,1.3302,1.199,1.1236,1.0559,0.9809,0.8775,0.8021,0.8048,0.6638,0.0,0.0,0.0,0.0,0.1215,0.0,0.0,-0.9823,-1.1071,-1.2032,-1.2729,-1.3588,-1.477,-1.6174,-1.628,-1.628,-1.628,-1.7147,-1.7582,-1.7582,-1.7582,-1.7582,-1.7589,-1.7776,-1.7869,-1.7869,-1.7856,-1.7856,-1.7862,-1.7669,-1.7891,0.0,-1.8297,-1.9306,-2.0845,-2.133,-2.2823,-2.4855,-2.5236,-2.6123,-2.7012,-2.7012,-2.7012,-2.706,-2.7334,-2.7422,-2.7471,-2.7734,-2.8037,-2.8262,-2.8096,-2.8174,-2.8291,-2.8291,-2.8291,-2.8291,-2.8291,-2.8291,-2.8291,-2.8291,-2.8291,-2.8291,-2.8291,-2.8291,-2.8291,-2.8291,-2.8291,-2.8291,-2.8291,-2.8291,-2.8291,-2.8291,-2.8291,-2.8291,-2.8291,-2.8291,-2.8291,-2.8291,-2.8291,-2.8291,-2.8291,-2.8291,-2.8359,-2.8525,-2.9199,-2.9648,-2.9805,-3.0518,-3.0889,-3.0889,-3.1055,-3.1484,-3.2178,-3.2598,-3.3027,0.0,2.0427,1.9971,1.8138,1.7342,1.6477,1.4715,1.3962,0.0,1.1304,1.0789,1.0115,0.825,0.8047,0.7823,0.6767,0.6671,0.0,0.0,0.0,0.0,0.0,-0.5984,-0.6077,-1.1206,-1.1937,-1.3004,-1.5209,-1.5524,-1.6168,-1.7582,-1.7582,-1.7582,-1.7582,-1.7582,-1.7582,-1.7582,-1.7582,-1.7582,-1.7582,-1.7582,-1.7582,-1.7582,-1.7582,-1.7582,-1.7582,-1.7582,-1.8401,-1.9627,-1.9627,-2.0638,-2.2353,-2.3326,-2.4143,-2.4954,-2.5954,-2.6592,-2.6924,-2.6924,-2.6924,-2.6924,-2.6963,-2.7012,-2.7051,-2.6992,-2.7568,-2.8164,-2.7734,-2.7939,-2.8281,-2.8252,-2.8271,-2.8291,-2.8291,-2.8291,-2.8291,-2.8291,-2.8291,-2.8291,-2.8291,-2.8291,-2.8291,-2.8291,-2.8291,-2.8291,-2.8291,-2.8291,-2.8291,-2.8291,-2.8291,-2.8291,-2.8291,-2.8291,-2.8291,-2.8291,-2.8291,-2.8291,-2.8291,-2.8291,-2.8467,-2.8857,-2.9326,-2.9756,-3.0146,-3.0635,-3.0889,-3.0889,-3.1309,-3.1738,-3.2178,-3.2598,-3.3027,1.5987,0.0,1.6764,1.6062,1.5145,1.4439,0.0,1.3221,1.2512,0.0,0.0,0.957,0.9199,0.7811,0.6831,0.6997,0.0,0.0,0.0,0.0,0.0,-0.8017,-0.998,-1.0954,-1.1074,-1.3153,-1.4787,-1.531,-1.6493,-1.7252,-1.7582,-1.7582,-1.7582,-1.7582,-1.7582,-1.7582,-1.7582,-1.7582,-1.7582,-1.7582,-1.7582,-1.7582,-1.7582,-1.7582,-1.7582,-1.7582,-1.7582,-1.8401,-1.9627,-1.9627,-2.1097,-2.3309,-2.3628,-2.4415,-2.5513,-2.5722,-2.5957,-2.6045,-2.6045,-2.6045,-2.6094,-2.6426,-2.6982,-2.7393,-2.6738,-2.7139,-2.7725,-2.7295,-2.7715,-2.8223,-2.7891,-2.8057,-2.8291,-2.8291,-2.8291,-2.8291,-2.8291,-2.8291,-2.8291,-2.8291,-2.8291,-2.8291,-2.8291,-2.8291,-2.8291,-2.8291,-2.8291,-2.8291,-2.8291,-2.8291,-2.8291,-2.8291,-2.8291,-2.8291,-2.8291,-2.8291,-2.8291,-2.8291,-2.8291,-2.834,-2.8437,-2.917,-2.9619,-2.9717,-3.0488,-3.0889,-3.0889,-3.1309,-3.1738,-3.2178,-3.2598,-3.3027,1.3576,1.4437,1.5196,1.4673,1.4099,1.36,1.3164,0.0,0.0,0.0,0.0,0.0,0.8754,0.7548,0.0,0.0,0.5589,0.0,0.0,0.0,-0.5855,-0.8304,-1.1256,-1.2773,-1.2028,-1.4051,-1.563,-1.6387,-1.7147,-1.7582,-1.7582,-1.7582,-1.7582,-1.7582,-1.7582,-1.7582,-1.7582,-1.7582,-1.7582,-1.7582,-1.7582,-1.7582,-1.7582,-1.8199,-1.8199,-1.7582,-1.8304,-1.9324,-2.0538,-2.0538,-2.2165,-2.4609,-2.4609,-2.502,-2.5742,-2.5742,-2.5742,-2.5742,-2.5742,-2.5869,-2.6074,-2.6309,-2.6836,-2.7246,-2.6582,-2.6846,-2.7275,-2.6846,-2.7344,-2.7949,-2.7725,-2.7978,-2.8291,-2.8291,-2.8291,-2.8291,-2.8291,-2.8291,-2.8291,-2.8291,-2.8291,-2.8291,-2.8291,-2.8291,-2.8291,-2.8291,-2.8291,-2.8291,-2.8291,-2.8291,-2.8291,-2.8291,-2.8291,-2.8291,-2.8291,-2.8291,-2.8291,-2.8291,-2.8291,-2.8291,-2.8291,-2.9121,-2.9756,-3.0166,-3.0644,-3.0889,-3.0889,-3.1309,-3.1738,-3.2178,-3.2598,-3.3027,1.2189,1.3138,1.4069,1.3359,1.3266,1.307,1.2238,0.0,0.0,0.0,0.0,0.0,0.0,0.0,0.0,0.0,0.0,0.0,-0.2607,-0.755,-1.0412,-0.9201,-1.1695,-1.3598,-1.3633,-1.486,-1.628,-1.7477,-1.7582,-1.7582,-1.7582,-1.7582,-1.7582,-1.7582,-1.7582,-1.7582,-1.7582,-1.7582,-1.7582,-1.7582,-1.7582,-1.7687,-1.7891,-1.9117,-1.9117,-1.8297,-1.942,-2.0743,-2.2055,-2.2055,-2.3484,-2.5742,-2.5742,-2.5742,-2.5742,-2.5742,-2.5742,-2.5752,-2.581,-2.6162,-2.6572,-2.6504,-2.6768,-2.7031,-2.6611,-2.6728,-2.6943,-2.6582,-2.706,-2.7666,-2.7666,-2.7978,-2.8291,-2.8291,-2.8291,-2.8291,-2.8291,-2.8291,-2.8291,-2.8291,-2.8291,-2.8291,-2.8291,-2.8291,-2.8291,-2.8291,-2.8291,-2.8291,-2.8291,-2.8291,-2.8291,-2.8291,-2.8291,-2.8291,-2.8291,-2.8291,-2.8291,-2.8291,-2.8291,-2.835,-2.8486,-2.9189,-2.999,-3.0869,-3.0889,-3.0889,-3.0889,-3.125,-3.168,-3.2178,-3.2529,-3.2959,1.1431,1.169,1.1757,1.1041,1.1065,1.1169,1.0803,0.0,0.0,0.0,0.0,0.0,0.0,0.0,0.0,0.0,0.0,-0.4115,0.0,0.0,-1.1071,-1.0804,-1.4361,-1.6305,-1.503,-1.6367,-1.7364,-1.7582,-1.7582,-1.7582,-1.7582,-1.7582,-1.7582,-1.7582,-1.7582,-1.7582,-1.7582,-1.7582,-1.7582,-1.7582,-1.7582,-1.8199,-1.9324,-1.9524,-2.0135,-2.1041,-2.1245,-2.2156,-2.3384,-2.3384,-2.4304,-2.5742,-2.5742,-2.5742,-2.5742,-2.5742,-2.5742,-2.5791,-2.6162,-2.6807,-2.7412,-2.7041,-2.7217,-2.748,-2.7051,-2.6963,-2.7002,-2.6934,-2.7275,-2.7666,-2.7666,-2.7978,-2.8291,-2.8291,-2.8291,-2.8291,-2.8291,-2.8291,-2.8291,-2.8291,-2.8291,-2.8291,-2.8291,-2.8291,-2.8291,-2.8291,-2.8291,-2.8291,-2.8291,-2.8291,-2.8291,-2.8291,-2.8291,-2.8291,-2.8291,-2.8291,-2.8291,-2.8291,-2.8291,-2.8613,-2.9346,-2.9502,-2.999,-3.0869,-3.0889,-3.0889,-3.0889,-3.0957,-3.1396,-3.2168,-3.2236,-3.2685,1.1076,1.1309,1.1214,1.0557,1.0595,1.0605,0.9977,0.0,0.0,0.0,0.0,0.0,0.0,0.0,0.5441,0.2236,0.0,-0.8208,-0.8055,-1.087,-1.2663,-1.2235,-1.5291,-1.6806,-1.5469,-1.6753,-1.7582,-1.7582,-1.7582,-1.7582,-1.7582,-1.7582,-1.7582,-1.7582,-1.7582,-1.7582,-1.7582,-1.8304,-1.8304,-1.7582,-1.8297,-1.9013,-1.9627,-2.1151,-2.1752,-2.1752,-2.2466,-2.3176,-2.3692,-2.3692,-2.4501,-2.5742,-2.5742,-2.5742,-2.5742,-2.5742,-2.5889,-2.6113,-2.6318,-2.6953,-2.7627,-2.7432,-2.7656,-2.793,-2.75,-2.7363,-2.7363,-2.7363,-2.751,-2.7666,-2.7666,-2.7978,-2.8291,-2.8291,-2.8291,-2.8291,-2.8291,-2.8291,-2.8291,-2.8291,-2.8291,-2.8291,-2.8291,-2.8291,-2.8291,-2.8291,-2.8291,-2.8291,-2.8291,-2.8291,-2.8291,-2.8291,-2.8291,-2.8291,-2.8291,-2.8291,-2.8291,-2.8291,-2.8506,-2.8916,-2.9541,-2.9785,-3.0215,-3.0879,-3.0889,-3.0889,-3.0889,-3.0889,-3.1328,-3.2168,-3.2168,-3.2617,1.0744,1.0999,1.1051,1.0058,0.0,1.0265,0.9442,0.0,0.0,0.0,0.0,0.0,0.0,0.4066,0.0,-0.361,-0.8346,-1.1521,-1.2338,-1.3817,-1.4518,-1.3613,-1.5719,-1.6905,-1.6043,-1.6929,-1.7582,-1.7582,-1.7582,-1.7582,-1.7582,-1.7582,-1.7582,-1.7582,-1.7582,-1.7786,-1.8094,-1.9117,-1.9117,-1.8094,-1.942,-2.0238,-2.0641,-2.2776,-2.3285,-2.2667,-2.3692,-2.4196,-2.4196,-2.4196,-2.4815,-2.5742,-2.5742,-2.5742,-2.5752,-2.585,-2.6162,-2.6553,-2.666,-2.7178,-2.7812,-2.7812,-2.8027,-2.8232,-2.791,-2.7812,-2.7812,-2.7812,-2.7812,-2.7812,-2.7812,-2.8057,-2.8291,-2.8291,-2.8291,-2.8291,-2.8291,-2.8291,-2.8291,-2.8291,-2.8291,-2.8291,-2.8291,-2.8291,-2.8291,-2.8291,-2.8291,-2.8291,-2.8291,-2.8291,-2.8291,-2.8291,-2.8291,-2.833,-2.8428,-2.8535,-2.8594,-2.8594,-2.8799,-2.916,-2.9697,-3.0029,-3.042,-3.0879,-3.0889,-3.0889,-3.0889,-3.0889,-3.1328,-3.2168,-3.2168,-3.2617,1.0131,1.0565,1.0621,0.851,0.868,0.0,0.9135,0.8787,0.0,0.8229,0.0,0.0,0.0,0.009,-0.1971,-0.8711,-1.1547,-1.2877,-1.2458,-1.4784,-1.6175,-1.5122,-1.6533,-1.7562,-1.747,-1.7582,-1.7582,-1.7582,-1.7582,-1.7582,-1.7582,-1.7582,-1.7582,-1.7582,-1.7582,-1.8199,-1.942,-1.9524,-1.9524,-1.942,-2.0837,-2.2156,-2.3384,-2.3583,-2.4304,-2.543,-2.5528,-2.5538,-2.5538,-2.5538,-2.5635,-2.5742,-2.5742,-2.5742,-2.5781,-2.6191,-2.6611,-2.7031,-2.7432,-2.7871,-2.8252,-2.8252,-2.8271,-2.8281,-2.8262,-2.8252,-2.8252,-2.8252,-2.8252,-2.8252,-2.8252,-2.8271,-2.8291,-2.8291,-2.8291,-2.8291,-2.8291,-2.8291,-2.8291,-2.8291,-2.8291,-2.8291,-2.8291,-2.8291,-2.8291,-2.8291,-2.8291,-2.8291,-2.8291,-2.8291,-2.8291,-2.8291,-2.8291,-2.8447,-2.8838,-2.9248,-2.9482,-2.9482,-2.9121,-2.9287,-3.0117,-3.0176,-3.042,-3.0879,-3.0889,-3.0889,-3.0889,-3.0889,-3.1328,-3.2168,-3.2168,-3.2617,0.9082,0.9553,0.9941,0.9432,0.0,0.0,0.0,0.5851,0.4125,0.3033,0.1339,0.0,0.0,0.0,-0.8602,-1.2992,-1.3663,-1.391,-1.474,-1.5911,-1.6612,-1.6484,-1.7088,-1.7582,-1.7582,-1.7582,-1.7582,-1.7582,-1.7582,-1.7996,-1.8812,-1.8812,-1.9213,-2.0128,-2.0128,-2.0436,-2.0939,-2.176,-2.2165,-2.2165,-2.2667,-2.3176,-2.3692,-2.4609,-2.5226,-2.5742,-2.5742,-2.5742,-2.5742,-2.5742,-2.5742,-2.5742,-2.5742,-2.5742,-2.5791,-2.623,-2.665,-2.708,-2.751,-2.7939,-2.8291,-2.8291,-2.8291,-2.8291,-2.8291,-2.8291,-2.8291,-2.8291,-2.8291,-2.8291,-2.8291,-2.8291,-2.8291,-2.8291,-2.8291,-2.8291,-2.8291,-2.8291,-2.8291,-2.8291,-2.8291,-2.8291,-2.8291,-2.8291,-2.8291,-2.8291,-2.8516,-2.8682,-2.8682,-2.8916,-2.9092,-2.9092,-2.9092,-2.915,-2.9307,-2.9473,-2.9687,-2.9941,-2.9805,-2.9863,-3.0185,-3.0478,-3.0713,-3.0889,-3.0889,-3.0889,-3.0889,-3.0889,-3.1328,-3.2168,-3.2168,-3.2617,0.8279,0.9016,0.9299,0.0,0.0,0.0,0.3284,0.2375,0.0904,-0.0678,-0.3364,-0.6757,-1.1144,0.0,0.0,0.0,-1.4472,-1.4455,-1.6031,-1.652,-1.6814,-1.7114,-1.7408,-1.7582,-1.7582,-1.7582,-1.7786,-1.8199,-1.8199,-1.8812,-2.0238,-2.0231,-2.0735,-2.1643,-2.1752,-2.1853,-2.2366,-2.3276,-2.389,-2.4304,-2.4304,-2.4304,-2.4402,-2.5323,-2.5742,-2.5742,-2.5742,-2.5742,-2.5742,-2.5742,-2.5742,-2.5742,-2.5742,-2.5742,-2.581,-2.6377,-2.6768,-2.71,-2.7666,-2.8057,-2.8291,-2.8291,-2.8291,-2.8291,-2.8291,-2.8291,-2.8291,-2.8291,-2.8291,-2.8291,-2.8291,-2.8291,-2.8291,-2.8291,-2.8291,-2.8291,-2.8291,-2.8291,-2.8291,-2.8291,-2.8291,-2.8291,-2.8291,-2.8291,-2.834,-2.8467,-2.874,-2.8965,-2.9111,-2.9385,-2.957,-2.957,-2.9687,-2.9766,-2.9766,-2.9902,-3.0107,-3.04,-3.042,-3.042,-3.042,-3.0723,-3.0889,-3.0889,-3.0889,-3.0889,-3.0889,-3.0889,-3.1328,-3.2168,-3.2168,-3.2617,0.7686,0.8895,0.0,0.0,0.0,0.0,-0.2644,-0.1354,-0.076,-0.2203,-0.6225,-1.0224,-1.2528,-1.2086,0.0,-1.3473,-1.3815,-1.4455,-1.6025,-1.652,-1.6814,-1.7108,-1.7402,-1.7582,-1.7582,-1.7582,-1.8199,-1.9524,-1.9627,-2.0238,-2.1651,-2.1752,-2.1752,-2.1752,-2.1752,-2.2366,-2.3692,-2.3692,-2.4402,-2.5742,-2.5742,-2.5742,-2.5742,-2.5742,-2.5742,-2.5742,-2.5742,-2.5742,-2.5742,-2.5645,-2.5645,-2.5742,-2.5645,-2.5645,-2.585,-2.6699,-2.7012,-2.7139,-2.7998,-2.8291,-2.8291,-2.8291,-2.8291,-2.8291,-2.8291,-2.8291,-2.8291,-2.8291,-2.8291,-2.8291,-2.8291,-2.8291,-2.8291,-2.8291,-2.8291,-2.8291,-2.8291,-2.8291,-2.8291,-2.8291,-2.8291,-2.8291,-2.8291,-2.8301,-2.8437,-2.8857,-2.8926,-2.9092,-2.9531,-2.958,-2.958,-2.958,-2.9961,-3.0205,-3.0205,-3.0625,-3.0889,-3.0889,-3.0889,-3.0889,-3.0889,-3.0889,-3.0889,-3.0889,-3.0889,-3.0889,-3.0889,-3.0889,-3.1328,-3.2168,-3.2168,-3.2617,0.2793,0.0,0.0,0.0,0.0,0.0,0.0,-0.4789,0.0,0.0,-1.0413,-1.2383,-1.3281,-1.3878,-1.4415,-1.5081,-1.519,-1.5369,-1.585,-1.6393,-1.674,-1.6827,-1.7281,-1.7582,-1.7582,-1.8401,-1.922,-1.9524,-2.0538,-2.1651,-2.3076,-2.3076,-2.3583,-2.451,-2.4501,-2.4716,-2.5118,-2.5128,-2.5333,-2.5742,-2.5742,-2.5742,-2.5742,-2.5742,-2.5742,-2.5742,-2.5742,-2.5742,-2.5635,-2.4707,-2.4815,-2.5635,-2.4609,-2.5093,-2.626,-2.6816,-2.7207,-2.7549,-2.8105,-2.8291,-2.8291,-2.8291,-2.8291,-2.8291,-2.8291,-2.8291,-2.8291,-2.8291,-2.8291,-2.8291,-2.8291,-2.8291,-2.8291,-2.8291,-2.8291,-2.8291,-2.8291,-2.8291,-2.8291,-2.8291,-2.8291,-2.8291,-2.8291,-2.8535,-2.8779,-2.8896,-2.9434,-2.998,-3.0439,-3.0498,-3.0498,-3.0498,-3.0605,-3.0684,-3.0684,-3.081,-3.0889,-3.0889,-3.0889,-3.0889,-3.0889,-3.0889,-3.0889,-3.0889,-3.0889,-3.0889,-3.0889,-3.0889,-3.1328,-3.2168,-3.2168,-3.2617,0.0292,0.0,0.0,0.0,0.0,0.0,0.0,0.0,0.0,0.0,-1.2643,-1.3507,-1.4353,-1.5,-1.5491,-1.5785,-1.5832,-1.5832,-1.5832,-1.6339,-1.6707,-1.6707,-1.7221,-1.7786,-1.8297,-1.9117,-2.0033,-2.1151,-2.2055,-2.3076,-2.4402,-2.4501,-2.4815,-2.5635,-2.5742,-2.5742,-2.5742,-2.5742,-2.5742,-2.5742,-2.5742,-2.5742,-2.5742,-2.5742,-2.5742,-2.5635,-2.5118,-2.4922,-2.4815,-2.3484,-2.3692,-2.4815,-2.3998,-2.4352,-2.5467,-2.6584,-2.7178,-2.749,-2.8086,-2.8291,-2.8291,-2.8291,-2.8291,-2.8291,-2.8291,-2.8291,-2.8291,-2.8291,-2.8291,-2.8291,-2.8291,-2.8291,-2.8291,-2.8291,-2.8291,-2.8291,-2.8291,-2.8291,-2.8291,-2.8291,-2.8428,-2.8545,-2.8545,-2.8896,-2.9238,-2.9404,-3.0019,-3.0576,-3.0859,-3.0889,-3.0889,-3.0889,-3.0889,-3.0889,-3.0889,-3.0889,-3.0889,-3.0889,-3.0889,-3.0889,-3.0889,-3.0889,-3.0889,-3.0889,-3.0889,-3.0889,-3.0889,-3.0889,-3.124,-3.1904,-3.1904,-3.2363,-0.0981,0.0,0.0,0.0,0.0,0.0,0.0,0.0,-1.0438,-1.2922,0.0,-1.3897,-1.5536,-1.5611,-1.5524,-1.5785,-1.5832,-1.5832,-1.5832,-1.6313,-1.6673,-1.67,-1.7304,-1.8269,-1.9524,-1.9834,-2.1033,-2.343,-2.3737,-2.4347,-2.5577,-2.5674,-2.5693,-2.5742,-2.5742,-2.5742,-2.5742,-2.5742,-2.5742,-2.5742,-2.5742,-2.5742,-2.5742,-2.5742,-2.5742,-2.5635,-2.4304,-2.3692,-2.3583,-2.2156,-2.2257,-2.3484,-2.3384,-2.3502,-2.4035,-2.6072,-2.6929,-2.7187,-2.8008,-2.8291,-2.8291,-2.8291,-2.8291,-2.8291,-2.8291,-2.8291,-2.8291,-2.8291,-2.8291,-2.8291,-2.8291,-2.8291,-2.8291,-2.8291,-2.8291,-2.8301,-2.834,-2.835,-2.8359,-2.8398,-2.8711,-2.8975,-2.8975,-2.9336,-2.9766,-3.0195,-3.0625,-3.0889,-3.0889,-3.0889,-3.0889,-3.0889,-3.0889,-3.0889,-3.0889,-3.0889,-3.0889,-3.0889,-3.0889,-3.0889,-3.0889,-3.0889,-3.0889,-3.0889,-3.0889,-3.0889,-3.0889,-3.0889,-3.1103,-3.1514,-3.1562,-3.2012,0.0,0.0,0.0,0.0,0.0,0.0,0.0,0.0,-1.3171,-1.4628,-1.51,-1.5396,-1.571,-1.5778,-1.5758,-1.5818,-1.5832,-1.5832,-1.5832,-1.6139,-1.6446,-1.6673,-1.8016,-1.9045,-1.9502,-2.1558,-2.2953,-2.3143,-2.4209,-2.4909,-2.5215,-2.5215,-2.5371,-2.5723,-2.5742,-2.5742,-2.5742,-2.5742,-2.5742,-2.5742,-2.5742,-2.5742,-2.5742,-2.5742,-2.5742,-2.5635,-2.4304,-2.3692,-2.3484,-2.1049,-2.0845,-2.2055,-2.0947,-2.2028,-2.4307,-2.5106,-2.6361,-2.7598,-2.8115,-2.8291,-2.8291,-2.8291,-2.8291,-2.8291,-2.8291,-2.8291,-2.8291,-2.8291,-2.8291,-2.8291,-2.8291,-2.8291,-2.8291,-2.8291,-2.8291,-2.8389,-2.8711,-2.8779,-2.8887,-2.9228,-2.9365,-2.9434,-2.9434,-2.9785,-3.0215,-3.0674,-3.083,-3.0889,-3.0889,-3.0889,-3.0889,-3.0889,-3.0889,-3.0889,-3.0889,-3.0889,-3.0889,-3.0889,-3.0889,-3.0889,-3.0889,-3.0889,-3.0889,-3.0889,-3.0889,-3.0889,-3.0889,-3.0889,-3.1103,-3.1523,-3.1865,-3.2305,0.0,0.0,0.0,0.0,0.0,0.0,0.0,-1.4235,-1.4682,-1.5478,-1.5725,-1.5832,-1.5832,-1.5832,-1.5832,-1.5832,-1.5832,-1.5832,-1.5832,-1.6086,-1.6667,-1.7549,-1.8547,-1.9706,-2.1078,-2.2498,-2.3435,-2.3616,-2.4361,-2.4756,-2.4756,-2.4756,-2.4863,-2.5098,-2.5312,-2.5312,-2.5107,-2.5527,-2.5635,-2.542,-2.4925,-2.4402,-2.3791,-2.4402,-2.3998,-2.2776,-2.2064,-2.176,-2.1558,-1.9524,-1.942,-2.0641,-1.993,-2.1059,-2.3207,-2.4226,-2.5797,-2.7412,-2.7842,-2.8125,-2.8291,-2.8291,-2.8291,-2.8291,-2.8291,-2.8291,-2.8291,-2.8291,-2.8291,-2.8291,-2.8291,-2.8291,-2.8291,-2.8291,-2.8291,-2.8408,-2.8828,-2.8916,-2.9053,-2.9482,-2.9736,-2.9873,-2.9873,-3.0234,-3.0615,-3.0859,-3.0889,-3.0889,-3.0889,-3.0889,-3.0889,-3.0889,-3.0889,-3.0889,-3.0889,-3.0889,-3.0889,-3.0889,-3.0889,-3.0889,-3.0889,-3.0889,-3.0889,-3.0889,-3.0889,-3.0889,-3.0889,-3.0889,-3.1006,-3.123,-3.166,-3.209,0.0,0.0,0.0,0.0,0.0,0.0,0.0,-1.5264,-1.5538,-1.5778,-1.5832,-1.5832,-1.5832,-1.5832,-1.5832,-1.5832,-1.5832,-1.5832,-1.5832,-1.6231,-1.7064,-1.8431,-1.9201,-2.0565,-2.269,-2.3094,-2.3502,-2.4244,-2.4307,-2.4307,-2.4307,-2.4307,-2.4346,-2.4414,-2.4766,-2.4785,-2.4424,-2.4946,-2.5064,-2.4774,-2.3797,-2.2667,-2.1347,-2.2466,-2.1862,-1.993,-1.9731,-1.9627,-1.9531,-1.8199,-1.8304,-1.9324,-1.9524,-2.0436,-2.1895,-2.371,-2.5423,-2.6973,-2.749,-2.7891,-2.8193,-2.8271,-2.8291,-2.8291,-2.8291,-2.8291,-2.8291,-2.8291,-2.8291,-2.8291,-2.8291,-2.8291,-2.831,-2.8389,-2.8398,-2.8516,-2.8935,-2.9092,-2.9268,-2.9707,-3.0078,-3.0322,-3.0322,-3.0635,-3.0889,-3.0889,-3.0889,-3.0889,-3.0889,-3.0889,-3.0889,-3.0889,-3.0889,-3.0889,-3.0889,-3.0889,-3.0889,-3.0889,-3.0889,-3.0889,-3.0889,-3.0889,-3.0889,-3.0889,-3.0889,-3.0889,-3.0889,-3.0889,-3.0889,-3.0898,-3.1406,-3.1826,0.0,0.0,0.0,0.0,0.0,0.0,0.0,0.0,-1.5785,0.0,-1.5832,-1.5832,-1.5832,-1.5832,-1.5832,-1.5832,-1.5832,-1.5832,-1.5832,-1.6798,-1.769,-1.8104,-2.0259,-2.1839,-2.2461,-2.3542,-2.4132,-2.3906,-2.3877,-2.3877,-2.3877,-2.3877,-2.4043,-2.4404,-2.4473,-2.4473,-2.4414,-2.3476,-2.3103,-2.329,-2.2378,-2.1245,-1.993,-2.0033,-2.0641,-2.1347,-2.0135,-1.9627,-1.9531,-1.8199,-1.7687,-1.7996,-1.9117,-2.0436,-2.1895,-2.371,-2.5254,-2.6582,-2.7393,-2.7705,-2.7812,-2.8174,-2.8291,-2.8291,-2.8291,-2.8291,-2.8291,-2.8291,-2.8291,-2.8291,-2.8291,-2.8291,-2.8389,-2.875,-2.8838,-2.8955,-2.9385,-2.9775,-3.0166,-3.0625,-3.0762,-3.0801,-3.0801,-3.085,-3.0889,-3.0889,-3.0889,-3.0889,-3.0889,-3.0889,-3.0889,-3.0889,-3.0889,-3.0889,-3.0889,-3.0889,-3.0889,-3.0889,-3.0889,-3.0889,-3.0889,-3.0889,-3.0889,-3.0889,-3.0889,-3.0889,-3.0889,-3.0889,-3.0889,-3.0908,-3.1709,-3.2119,-0.8226,-0.9707,0.0,0.0,0.0,0.0,0.0,0.0,-1.5832,-1.5832,-1.5832,-1.5832,-1.5832,-1.5832,-1.5832,-1.5832,-1.6386,-1.685,-1.685,-1.7956,-1.9092,-2.0195,-2.127,-2.2281,-2.311,-2.3688,-2.3887,-2.3457,-2.3428,-2.3428,-2.3428,-2.3428,-2.3506,-2.3701,-2.3281,-2.2915,-2.2662,-2.1986,-2.134,-2.0826,-2.0678,-1.9826,-1.8506,-1.8506,-1.8805,-1.9413,-1.8708,-1.8506,-1.8401,-1.7891,-1.7582,-1.7681,-1.9124,-2.0436,-2.187,-2.337,-2.502,-2.6435,-2.6816,-2.7266,-2.7695,-2.7881,-2.8096,-2.8291,-2.8291,-2.8291,-2.8291,-2.8291,-2.8291,-2.8291,-2.8291,-2.8291,-2.834,-2.8525,-2.875,-2.9033,-2.9473,-2.9902,-3.0332,-3.0801,-3.0889,-3.0889,-3.0889,-3.0889,-3.0889,-3.0889,-3.0889,-3.0889,-3.0889,-3.0889,-3.0889,-3.0889,-3.0889,-3.0889,-3.0889,-3.0889,-3.0889,-3.0889,-3.0889,-3.0889,-3.0889,-3.0889,-3.0889,-3.0889,-3.0889,-3.0889,-3.0889,-3.0889,-3.0889,-3.0918,-3.1768,-3.2168,-0.9917,-1.0813,-1.1724,0.0,0.0,0.0,0.0,0.0,-1.5832,0.0,-1.5832,-1.5832,-1.5832,-1.5832,-1.5927,-1.6204,-1.7037,-1.7777,-1.8141,-1.9222,-2.0417,-2.1643,-2.2053,-2.2606,-2.3534,-2.3623,-2.3486,-2.3164,-2.3135,-2.3135,-2.3135,-2.2775,-2.2677,-2.2677,-2.1798,-2.1163,-2.0845,-2.0397,-1.9513,-1.8511,-1.8811,-1.849,-1.7475,-1.7549,-1.7582,-1.7582,-1.7582,-1.7582,-1.7582,-1.7582,-1.7786,-1.8199,-1.9627,-2.0947,-2.2366,-2.3683,-2.5013,-2.624,-2.6348,-2.6875,-2.7519,-2.7627,-2.7949,-2.8291,-2.8291,-2.8291,-2.8291,-2.8291,-2.8291,-2.8291,-2.8291,-2.8291,-2.832,-2.8428,-2.8769,-2.9199,-2.9639,-3.0068,-3.0478,-3.082,-3.0889,-3.0889,-3.0889,-3.0889,-3.0889,-3.0889,-3.0889,-3.0889,-3.0889,-3.0889,-3.0889,-3.0889,-3.0889,-3.0889,-3.0889,-3.0889,-3.0889,-3.0889,-3.0889,-3.0889,-3.0889,-3.0889,-3.0889,-3.0889,-3.0889,-3.0889,-3.0889,-3.0889,-3.0889,-3.0908,-3.165,-3.206,-1.1197,-1.1857,0.0,0.0,0.0,0.0,0.0,0.0,-1.5832,-1.5832,-1.5832,-1.5832,-1.5832,-1.5832,-1.6197,-1.7404,-1.7692,-1.8141,-1.9222,-2.0486,-2.1212,-2.132,-2.2344,-2.3086,-2.3174,-2.3174,-2.3164,-2.3135,-2.3135,-2.3135,-2.3135,-2.2031,-2.1382,-2.1382,-2.0232,-1.9604,-1.9579,-1.8667,-1.7638,-1.6424,-1.6995,-1.7271,-1.7181,-1.7455,-1.7582,-1.7582,-1.7582,-1.7582,-1.7582,-1.7582,-1.8297,-1.9627,-2.1041,-2.2366,-2.3791,-2.5118,-2.5655,-2.583,-2.625,-2.668,-2.7119,-2.7529,-2.7949,-2.8291,-2.8291,-2.8291,-2.8291,-2.8291,-2.8291,-2.8291,-2.8291,-2.8291,-2.8398,-2.8789,-2.9219,-2.9648,-3.0068,-3.0527,-3.0859,-3.0889,-3.0889,-3.0889,-3.0889,-3.0889,-3.0889,-3.0889,-3.0889,-3.0889,-3.0889,-3.0889,-3.0889,-3.0889,-3.0889,-3.0889,-3.0889,-3.0889,-3.0889,-3.0889,-3.0889,-3.0889,-3.0889,-3.0889,-3.0889,-3.0889,-3.0889,-3.0889,-3.0889,-3.0889,-3.0889,-3.0898,-3.1348,-3.1768,-1.1002,-1.1721,0.0,0.0,0.0,0.0,-1.5524,-1.5698,-1.5832,-1.5832,-1.5832,-1.6015,-1.685,-1.7037,-1.7131,-1.7598,-1.9047,-2.0124,-2.0567,-2.1667,-2.2492,-2.2492,-2.2862,-2.3135,-2.3135,-2.3135,-2.3135,-2.3135,-2.3135,-2.2765,-2.2031,-2.1569,-2.0935,-2.0124,-1.8948,-1.7948,-1.7117,-1.6971,-1.6842,-1.6553,-1.6961,-1.7248,-1.7428,-1.7535,-1.7582,-1.7687,-1.8506,-1.8916,-1.8916,-1.8916,-1.9723,-2.1041,-2.2466,-2.3276,-2.389,-2.5226,-2.5742,-2.5801,-2.624,-2.666,-2.709,-2.7529,-2.7949,-2.8291,-2.8291,-2.8291,-2.8291,-2.8291,-2.8291,-2.8291,-2.8291,-2.8291,-2.8398,-2.8818,-2.9453,-3.001,-3.0166,-3.0566,-3.0889,-3.0889,-3.0889,-3.0889,-3.0889,-3.0889,-3.0889,-3.0889,-3.0889,-3.0889,-3.0889,-3.0889,-3.0889,-3.0889,-3.0889,-3.0889,-3.0889,-3.0889,-3.0889,-3.0889,-3.0889,-3.0889,-3.0889,-3.0889,-3.0889,-3.0889,-3.0889,-3.0889,-3.0889,-3.0889,-3.0889,-3.0898,-3.1318,-3.1601,-1.1484,0.0,0.0,0.0,0.0,-1.5177,-1.5478,-1.5618,-1.5799,-1.6365,-1.648,-1.685,-1.8048,-1.868,-1.8956,-1.8956,-2.0215,-2.148,-2.1845,-2.258,-2.3135,-2.3135,-2.3135,-2.3135,-2.3135,-2.3135,-2.3135,-2.3135,-2.2677,-2.212,-2.1382,-2.0567,-1.9488,-1.8303,-1.749,-1.6669,-1.5832,-1.6025,-1.6219,-1.642,-1.6814,-1.7101,-1.7288,-1.7388,-1.7796,-1.8297,-1.9111,-1.953,-1.9627,-2.0135,-2.1143,-2.2466,-2.3384,-2.3998,-2.451,-2.5333,-2.5742,-2.5781,-2.6074,-2.6543,-2.706,-2.7353,-2.7832,-2.8291,-2.8291,-2.8291,-2.8291,-2.8291,-2.8291,-2.8291,-2.8291,-2.8398,-2.8643,-2.9209,-2.9785,-3.0234,-3.0391,-3.0674,-3.0889,-3.0889,-3.0889,-3.0889,-3.0889,-3.0889,-3.0889,-3.0889,-3.0889,-3.0889,-3.0889,-3.0889,-3.0889,-3.0889,-3.0889,-3.0889,-3.0889,-3.0889,-3.0889,-3.0889,-3.0889,-3.0889,-3.0889,-3.0889,-3.0889,-3.0889,-3.0889,-3.0889,-3.0889,-3.0889,-3.0889,-3.0898,-3.1172,-3.1377,0.0,0.0,0.0,0.0,0.0,0.0,-1.5591,0.0,-1.5828,-1.7323,-1.7669,-1.8126,-1.9314,-2.0477,-2.1293,-2.1382,-2.1382,-2.1756,-2.295,-2.3154,-2.3154,-2.3154,-2.3154,-2.3154,-2.3154,-2.3144,-2.3057,-2.3047,-2.1943,-2.1293,-2.1203,-1.8956,-1.7037,-1.5825,-1.5832,-1.5832,-1.5832,-1.5832,-1.5832,-1.5845,-1.642,-1.67,-1.6714,-1.7116,-1.8107,-1.9598,-1.9393,-1.9438,-1.9834,-2.1245,-2.2567,-2.3791,-2.3791,-2.451,-2.5742,-2.5742,-2.5742,-2.5742,-2.5752,-2.6309,-2.7012,-2.7031,-2.7607,-2.8291,-2.8291,-2.8291,-2.8291,-2.8291,-2.8291,-2.8301,-2.831,-2.8633,-2.917,-3.0,-3.0205,-3.0342,-3.0791,-3.0889,-3.0889,-3.0889,-3.0889,-3.0889,-3.0889,-3.0889,-3.0889,-3.0889,-3.0889,-3.0889,-3.0889,-3.0889,-3.0889,-3.0889,-3.0889,-3.0889,-3.0889,-3.0889,-3.0889,-3.0889,-3.0889,-3.0889,-3.0889,-3.0889,-3.0889,-3.0889,-3.0889,-3.0889,-3.0889,-3.0889,-3.0889,-3.0889,-3.0898,-3.1133,-1.2325,0.0,0.0,0.0,0.0,0.0,-1.4776,0.0,-1.6475,-1.7145,-1.8029,-1.9011,-2.0523,-2.1114,-2.1569,-2.2492,-2.2589,-2.2677,-2.3047,-2.3408,-2.3613,-2.3613,-2.3613,-2.3613,-2.3613,-2.332,-2.2765,-2.1845,-2.148,-2.0576,-1.8772,-1.7217,-1.6204,-1.5832,-1.5832,-1.5832,-1.5832,-1.5832,-1.5939,-1.6152,-1.6313,-1.6506,-1.6714,-1.8002,-1.8898,-1.9385,-2.1545,-2.2481,-2.2576,-2.2976,-2.389,-2.5128,-2.5128,-2.5333,-2.5742,-2.5742,-2.5742,-2.5781,-2.6103,-2.6562,-2.707,-2.7383,-2.7851,-2.8291,-2.8291,-2.8291,-2.8291,-2.8291,-2.8291,-2.8359,-2.8672,-2.9287,-2.9902,-3.0137,-3.0449,-3.0732,-3.0859,-3.0889,-3.0889,-3.0889,-3.0889,-3.0889,-3.0889,-3.0889,-3.0889,-3.0889,-3.0889,-3.0889,-3.0889,-3.0889,-3.0889,-3.0889,-3.0889,-3.0889,-3.0889,-3.0889,-3.0889,-3.0889,-3.0889,-3.0889,-3.0889,-3.0889,-3.0889,-3.0889,-3.0889,-3.0889,-3.0889,-3.0889,-3.0889,-3.0898,-3.1201,-3.1406,-1.2225,-1.2518,-1.2896,-1.3133,0.0,0.0,-1.4583,-1.5687,-1.6987,-1.799,-1.9085,-2.0332,-2.1808,-2.2031,-2.2306,-2.296,-2.3135,-2.3135,-2.3135,-2.3359,-2.3516,-2.3516,-2.3682,-2.3789,-2.3789,-2.3099,-2.2311,-2.1654,-2.049,-1.8948,-1.7037,-1.6197,-1.5832,-1.5832,-1.5832,-1.5832,-1.5832,-1.5832,-1.5919,-1.6086,-1.6213,-1.6647,-1.7309,-1.85,-1.9606,-2.0933,-2.2742,-2.3941,-2.4501,-2.4501,-2.502,-2.5742,-2.5742,-2.5742,-2.5742,-2.5742,-2.5742,-2.5771,-2.6025,-2.6396,-2.6826,-2.7256,-2.7685,-2.8066,-2.8242,-2.8291,-2.8291,-2.8291,-2.8418,-2.8652,-2.9082,-2.9687,-3.0244,-3.0439,-3.0693,-3.0889,-3.0889,-3.0889,-3.0889,-3.0889,-3.0889,-3.0889,-3.0889,-3.0889,-3.0889,-3.0889,-3.0889,-3.0889,-3.0889,-3.0889,-3.0889,-3.0889,-3.0889,-3.0889,-3.0889,-3.0889,-3.0889,-3.0889,-3.0889,-3.0889,-3.0889,-3.0889,-3.0889,-3.0889,-3.0889,-3.0889,-3.0889,-3.0889,-3.0889,-3.0898,-3.1318,-3.1514,-1.2225,-1.2492,-1.2856,-1.3277,-1.3561,0.0,-1.5014,-1.6148,-1.7525,-1.9166,-2.0491,-2.1599,-2.2727,-2.3037,-2.3057,-2.3008,-2.3076,-2.3135,-2.3135,-2.3223,-2.3281,-2.3281,-2.3483,-2.3745,-2.3745,-2.2584,-2.1803,-2.1618,-1.9135,-1.7073,-1.5832,-1.5832,-1.5832,-1.5832,-1.5832,-1.5832,-1.5832,-1.5832,-1.5832,-1.5832,-1.6285,-1.7001,-1.8185,-1.8791,-2.0581,-2.3096,-2.345,-2.4378,-2.5742,-2.5742,-2.5742,-2.5742,-2.5742,-2.5742,-2.5742,-2.5742,-2.5742,-2.5742,-2.5742,-2.6025,-2.6455,-2.6875,-2.7314,-2.7744,-2.8164,-2.8291,-2.8291,-2.8291,-2.8594,-2.9023,-2.9453,-2.9883,-3.0312,-3.0781,-3.0889,-3.0889,-3.0889,-3.0889,-3.0889,-3.0889,-3.0889,-3.0889,-3.0889,-3.0889,-3.0889,-3.0889,-3.0889,-3.0889,-3.0889,-3.0889,-3.0889,-3.0889,-3.0889,-3.0889,-3.0889,-3.0889,-3.0889,-3.0889,-3.0889,-3.0889,-3.0889,-3.0889,-3.0889,-3.0889,-3.0889,-3.0889,-3.0889,-3.0889,-3.0918,-3.0976,-3.1396,-3.1611,-1.2225,-1.2345,-1.2736,-1.412,-1.4543,0.0,-1.6468,-1.7713,-1.874,-1.9445,-2.0412,-2.137,-2.1977,-2.2402,-2.2519,-2.2187,-2.2705,-2.3135,-2.3135,-2.373,-2.417,-2.417,-2.358,-2.3158,-2.3158,-2.17,-2.0279,-1.9233,-1.7592,-1.6368,-1.5845,-1.5832,-1.5832,-1.5832,-1.5832,-1.5832,-1.5832,-1.5832,-1.5832,-1.5832,-1.6914,-1.7734,-1.8369,-2.0707,-2.2336,-2.3326,-2.4657,-2.545,-2.5742,-2.5742,-2.5742,-2.5742,-2.5742,-2.5742,-2.5742,-2.5742,-2.5742,-2.5742,-2.5742,-2.6025,-2.6455,-2.6875,-2.7314,-2.7744,-2.8164,-2.8291,-2.8291,-2.8291,-2.8594,-2.9023,-2.9453,-2.9883,-3.0312,-3.0781,-3.0889,-3.0889,-3.0889,-3.0889,-3.0889,-3.0889,-3.0889,-3.0889,-3.0889,-3.0889,-3.0889,-3.0889,-3.0889,-3.0889,-3.0889,-3.0889,-3.0889,-3.0889,-3.0889,-3.0889,-3.0889,-3.0889,-3.0889,-3.0889,-3.0889,-3.0889,-3.0889,-3.0889,-3.0889,-3.0889,-3.0889,-3.0889,-3.0889,-3.0889,-3.1064,-3.1406,-3.1836,-3.2226,-1.2265,-1.2659,-1.3286,-1.4358,-1.505,0.0,0.0,-1.8377,-1.9354,-1.9742,-2.0696,-2.1621,-2.1846,-2.206,-2.2197,-2.2197,-2.2549,-2.29,-2.3105,-2.3691,-2.3828,-2.3166,-2.3021,-2.2699,-2.2097,-2.0655,-1.9216,-1.769,-1.6819,-1.6206,-1.6059,-1.5912,-1.5832,-1.5832,-1.5832,-1.5832,-1.5832,-1.5832,-1.6109,-1.6763,-1.7566,-1.8754,-2.0254,-2.2055,-2.3404,-2.4211,-2.5247,-2.5742,-2.5742,-2.5742,-2.5742,-2.5742,-2.5742,-2.5742,-2.5742,-2.5742,-2.5742,-2.5742,-2.5742,-2.5879,-2.6133,-2.6562,-2.6992,-2.7422,-2.7851,-2.8125,-2.8291,-2.8291,-2.8594,-2.9023,-2.9453,-2.9883,-3.0312,-3.0781,-3.0889,-3.0889,-3.0889,-3.0889,-3.0889,-3.0889,-3.0889,-3.0889,-3.0889,-3.0889,-3.0889,-3.0889,-3.0889,-3.0889,-3.0889,-3.0889,-3.0889,-3.0889,-3.0889,-3.0889,-3.0889,-3.0889,-3.0889,-3.0889,-3.0889,-3.0889,-3.0889,-3.0889,-3.0889,-3.0889,-3.0889,-3.0889,-3.0889,-3.0889,-3.1103,-3.1533,-3.1963,-3.2393,-1.2695,-1.3396,-1.429,-1.4997,-1.5845,-1.6809,0.0,0.0,0.0,-2.0081,-2.0926,-2.1631,-2.1631,-2.1699,-2.1846,-2.209,-2.2275,-2.251,-2.2852,-2.334,-2.3323,-2.23,-2.242,-2.2292,-2.15,-2.0221,-1.8736,-1.6908,-1.6711,-1.664,-1.6359,-1.6079,-1.5912,-1.5912,-1.5858,-1.5832,-1.5832,-1.6164,-1.6848,-1.7789,-1.8673,-2.019,-2.2278,-2.3208,-2.423,-2.5215,-2.5586,-2.5742,-2.5742,-2.5742,-2.5742,-2.5742,-2.5742,-2.5742,-2.5742,-2.5742,-2.5742,-2.5742,-2.5742,-2.5791,-2.5937,-2.6367,-2.6855,-2.7324,-2.7676,-2.8027,-2.8291,-2.8291,-2.8535,-2.8896,-2.9336,-2.9756,-3.0195,-3.0644,-3.083,-3.0889,-3.0889,-3.0889,-3.0889,-3.0889,-3.0889,-3.0889,-3.0889,-3.0889,-3.0889,-3.0889,-3.0889,-3.0889,-3.0889,-3.0889,-3.0889,-3.0889,-3.0889,-3.0889,-3.0889,-3.0889,-3.0889,-3.0889,-3.0889,-3.0889,-3.0889,-3.0889,-3.0889,-3.0889,-3.0889,-3.0889,-3.0889,-3.0889,-3.1152,-3.165,-3.2002,-3.2441,-1.4261,-1.4832,-1.5946,-1.7649,-1.7841,-1.8133,-1.9811,0.0,-2.0488,-2.0537,0.0,-2.0713,-2.0713,0.0,0.0,-2.085,-2.1445,-2.1973,-2.2021,-2.2725,-2.3369,-2.3561,-2.2212,-2.1599,-2.2691,-2.1599,-1.9806,-1.7299,-1.7803,-1.7824,-1.6753,-1.638,-1.6219,-1.6219,-1.5965,-1.5832,-1.5832,-1.7311,-1.811,-1.8301,-2.083,-2.2438,-2.3172,-2.4336,-2.5178,-2.5664,-2.5713,-2.5742,-2.5742,-2.5742,-2.5742,-2.5742,-2.5742,-2.5742,-2.5742,-2.5742,-2.5742,-2.5742,-2.5742,-2.5986,-2.6387,-2.6807,-2.749,-2.8154,-2.8203,-2.8252,-2.8291,-2.8291,-2.833,-2.8457,-2.8877,-2.9316,-2.9746,-3.0176,-3.0596,-3.0889,-3.0889,-3.0889,-3.0889,-3.0889,-3.0889,-3.0889,-3.0889,-3.0889,-3.0889,-3.0889,-3.0889,-3.0889,-3.0889,-3.0889,-3.0889,-3.0889,-3.0889,-3.0889,-3.0889,-3.0889,-3.0889,-3.0889,-3.0889,-3.0889,-3.0889,-3.0889,-3.0889,-3.0889,-3.0889,-3.0889,-3.0889,-3.0889,-3.1309,-3.21,-3.2148,-3.2598,-1.5168,-1.592,-1.6923,-1.8154,-1.8778,-1.9344,-2.0343,-2.0566,-2.0566,-2.0566,0.0,0.0,0.0,0.0,0.0,0.0,-2.1269,-2.1592,-2.1846,-2.2197,-2.2495,-2.2662,-2.2129,-2.1864,-2.1876,-2.0718,-1.962,-1.8707,-1.7858,-1.7268,-1.7056,-1.668,-1.6446,-1.6279,-1.6814,-1.7208,-1.7208,-1.865,-1.9857,-2.0838,-2.2274,-2.3432,-2.4393,-2.514,-2.5557,-2.5742,-2.5742,-2.5742,-2.5742,-2.5742,-2.5742,-2.5742,-2.5742,-2.5742,-2.5742,-2.5742,-2.5742,-2.5742,-2.5742,-2.6025,-2.6494,-2.7178,-2.7637,-2.7978,-2.8223,-2.8291,-2.8291,-2.8291,-2.8291,-2.8389,-2.8809,-2.9248,-2.9678,-3.0098,-3.0547,-3.0889,-3.0889,-3.0889,-3.0889,-3.0889,-3.0889,-3.0889,-3.0889,-3.0889,-3.0889,-3.0889,-3.0889,-3.0889,-3.0889,-3.0889,-3.0889,-3.0889,-3.0889,-3.0889,-3.0889,-3.0889,-3.0889,-3.0889,-3.0889,-3.0889,-3.0889,-3.0889,-3.0889,-3.0889,-3.0889,-3.0889,-3.0889,-3.1133,-3.1572,-3.2168,-3.2168,-3.2617,-1.6468,-1.7193,-1.8091,-1.8759,-1.9374,-1.9971,-2.0166,-2.04,-2.0566,-2.0566,-2.0664,0.0,0.0,0.0,-2.0996,-2.1201,0.0,-2.1387,-2.1826,-2.1787,-2.1794,-2.194,-2.2419,-2.2303,-2.0925,-2.0295,-1.9844,-1.947,-1.8081,-1.7264,-1.7351,-1.7387,-1.7313,-1.7099,-1.8253,-1.8866,-1.8962,-2.0281,-2.1613,-2.2767,-2.357,-2.4458,-2.5264,-2.5586,-2.5742,-2.5742,-2.5742,-2.5742,-2.5742,-2.5742,-2.5742,-2.5742,-2.5742,-2.5742,-2.5742,-2.5742,-2.5742,-2.5752,-2.5879,-2.6279,-2.6855,-2.7598,-2.7832,-2.7891,-2.8203,-2.8291,-2.8291,-2.8291,-2.8291,-2.8389,-2.8809,-2.9248,-2.9678,-3.0098,-3.0547,-3.0889,-3.0889,-3.0889,-3.0889,-3.0889,-3.0889,-3.0889,-3.0889,-3.0889,-3.0889,-3.0889,-3.0889,-3.0889,-3.0889,-3.0889,-3.0889,-3.0889,-3.0889,-3.0889,-3.0889,-3.0889,-3.0889,-3.0889,-3.0889,-3.0889,-3.0889,-3.0889,-3.0889,-3.0889,-3.0889,-3.0947,-3.1064,-3.1367,-3.1797,-3.2334,-3.2334,-3.2725,-1.8502,-1.9099,-1.9798,-1.9827,-1.9912,-1.9814,-1.9424,-1.9971,-2.0566,-2.0566,-2.0908,-2.1348,-2.1768,-2.1846,-2.1709,-2.1299,-2.123,0.0,0.0,-2.1523,-2.15,-2.2366,-2.3203,-2.2842,-2.0649,-2.1327,-2.1148,-1.922,-1.8651,-1.8146,-1.764,-1.8599,-1.9127,-1.9112,-2.0159,-2.0745,-2.0745,-2.2381,-2.3166,-2.3175,-2.4802,-2.5616,-2.5713,-2.5732,-2.5742,-2.5742,-2.5742,-2.5742,-2.5742,-2.5742,-2.5742,-2.5742,-2.5742,-2.5742,-2.5742,-2.5742,-2.5742,-2.5791,-2.6221,-2.6914,-2.7695,-2.8135,-2.8271,-2.8271,-2.8291,-2.8291,-2.8291,-2.8291,-2.8291,-2.8389,-2.8809,-2.9248,-2.9678,-3.0098,-3.0547,-3.0889,-3.0889,-3.0889,-3.0889,-3.0889,-3.0889,-3.0889,-3.0889,-3.0889,-3.0889,-3.0889,-3.0889,-3.0889,-3.0889,-3.0889,-3.0889,-3.0889,-3.0889,-3.0889,-3.0889,-3.0889,-3.0889,-3.0889,-3.0889,-3.0889,-3.0889,-3.0889,-3.0889,-3.0889,-3.0889,-3.1094,-3.1494,-3.1514,-3.1953,-3.2773,-3.2773,-3.3008,-1.9411,-1.9676,-1.998,-2.0273,-2.0127,-1.9873,-1.9736,-1.9922,-2.0215,-2.0508,-2.0918,-2.1367,-2.1807,-2.1885,-2.1836,-2.1689,-2.167,-2.1611,0.0,-2.1328,-2.1553,-2.2412,-2.3271,-2.3467,-2.276,-2.1661,-2.1266,-2.1573,-2.0027,-1.9366,-2.0302,-2.0624,-2.0761,-2.0528,-2.1676,-2.2303,-2.2408,-2.3821,-2.4622,-2.4908,-2.546,-2.5742,-2.5742,-2.5742,-2.5742,-2.5742,-2.5742,-2.5742,-2.5742,-2.5742,-2.5742,-2.5742,-2.5742,-2.5742,-2.5742,-2.5742,-2.5918,-2.6269,-2.6982,-2.7422,-2.7734,-2.8154,-2.8291,-2.8291,-2.8291,-2.8291,-2.8291,-2.8291,-2.8291,-2.833,-2.8467,-2.9033,-2.96,-2.9746,-3.0351,-3.0889,-3.0889,-3.0889,-3.0889,-3.0889,-3.0889,-3.0889,-3.0889,-3.0889,-3.0889,-3.0889,-3.0889,-3.0889,-3.0889,-3.0889,-3.0889,-3.0889,-3.0889,-3.0889,-3.0889,-3.0889,-3.0889,-3.0889,-3.0889,-3.0889,-3.0889,-3.0889,-3.0889,-3.0889,-3.0889,-3.0957,-3.1103,-3.1377,-3.1816,-3.2383,-3.2383,-3.2607,-2.0068,-2.0146,-2.0176,-2.0303,-2.0244,-2.0068,-1.9766,-1.9922,-2.0273,-2.0713,-2.1162,-2.1641,-2.2227,-2.2334,-2.2285,-2.2129,-2.2109,-2.1904,0.0,-2.1631,-2.2002,-2.2256,-2.291,0.0,-2.376,-2.2005,-2.1492,-2.284,-2.0999,-2.0245,-2.1626,-2.2156,-2.2347,-2.2107,-2.3304,-2.3809,-2.342,-2.4708,-2.5247,-2.502,-2.543,-2.5742,-2.5742,-2.5742,-2.5917,-2.638,-2.5927,-2.5917,-2.639,-2.5927,-2.5742,-2.5742,-2.5742,-2.5742,-2.5752,-2.5908,-2.6338,-2.6924,-2.748,-2.7764,-2.7939,-2.8203,-2.8291,-2.8291,-2.8291,-2.8291,-2.8291,-2.8291,-2.8291,-2.833,-2.8476,-2.9043,-2.9609,-2.9756,-3.0351,-3.0889,-3.0889,-3.0889,-3.0889,-3.0889,-3.0889,-3.0889,-3.0889,-3.0889,-3.0889,-3.0889,-3.0889,-3.0889,-3.0889,-3.0889,-3.0889,-3.0889,-3.0889,-3.0889,-3.0889,-3.0889,-3.0889,-3.0889,-3.0889,-3.0889,-3.0889,-3.0889,-3.0889,-3.0889,-3.0889,-3.0967,-3.1113,-3.1387,-3.1738,-3.2168,-3.2168,-3.2226]},{"header":{"parameterUnit":"m.s-1","parameterCategory":1,"la1":30.6,"la2":29.2853,"lo1":-89.7004,"lo2":-87.6739,"dy":0.0162,"dx":0.0183,"nx":112,"ny":82,"refTime":"2026-05-07T00:00:00:Z","depth":0,"parameterNumber":3,"parameterNumberName":"V-component_of_WINDS"},"data":[0.0,0.0,0.0,0.0,0.0,0.0,0.0,0.0,0.0,0.0,0.0,0.0,0.0,0.0,0.0,0.0,0.0,0.0,0.0,0.0,0.0,0.0,0.0,0.0,0.0,0.0,0.0,0.0,0.0,0.0,0.0,0.0,0.0,0.0,0.0,0.0,0.0,0.0,0.0,0.0,0.0,0.0,0.0,0.0,0.0,0.0,0.0,0.0,0.0,0.0,0.0,0.0,0.0,0.0,0.0,0.0,0.0,0.0,0.0,0.0,0.0,0.0,0.0,0.0,0.0,0.0,0.0,0.0,0.0,0.0,0.0,0.0,0.0,0.0,0.0,0.0,0.0,0.0,0.0,0.0,0.0,0.0,0.0,0.0,0.0,0.0,0.0,0.0,0.0,0.0,-3.8036,-3.9135,-4.1825,-4.3818,-4.4553,-4.458,-4.3882,-4.231,0.0,0.0,0.0,0.0,0.0,0.0,0.0,0.0,0.0,0.0,0.0,0.0,0.0,0.0,0.0,0.0,0.0,0.0,0.0,0.0,0.0,0.0,0.0,0.0,0.0,0.0,0.0,0.0,0.0,0.0,0.0,0.0,0.0,0.0,0.0,0.0,0.0,0.0,0.0,0.0,0.0,0.0,0.0,0.0,0.0,0.0,0.0,0.0,0.0,0.0,0.0,0.0,0.0,0.0,0.0,0.0,0.0,0.0,0.0,0.0,0.0,0.0,0.0,0.0,0.0,0.0,0.0,0.0,0.0,0.0,0.0,0.0,0.0,0.0,0.0,0.0,0.0,0.0,0.0,0.0,0.0,0.0,0.0,0.0,0.0,0.0,0.0,0.0,0.0,0.0,0.0,0.0,0.0,0.0,0.0,0.0,0.0,0.0,0.0,0.0,0.0,0.0,0.0,0.0,-3.8701,-4.2201,-4.3707,-4.4533,-4.4665,-4.4417,-4.3837,-4.2843,0.0,0.0,0.0,0.0,0.0,0.0,0.0,0.0,0.0,0.0,0.0,0.0,0.0,0.0,0.0,0.0,0.0,0.0,0.0,0.0,0.0,0.0,0.0,0.0,0.0,0.0,0.0,0.0,0.0,0.0,0.0,0.0,0.0,0.0,0.0,0.0,0.0,0.0,0.0,0.0,0.0,0.0,0.0,0.0,0.0,0.0,0.0,0.0,0.0,0.0,0.0,0.0,0.0,0.0,0.0,0.0,0.0,0.0,0.0,0.0,0.0,0.0,0.0,0.0,0.0,0.0,0.0,0.0,0.0,0.0,0.0,0.0,0.0,0.0,0.0,0.0,0.0,0.0,0.0,0.0,0.0,0.0,0.0,0.0,0.0,0.0,0.0,0.0,0.0,0.0,0.0,0.0,0.0,0.0,0.0,0.0,0.0,0.0,0.0,0.0,0.0,0.0,0.0,-3.978,-4.1232,-4.3784,-4.4848,-4.5352,-4.5359,-4.5172,-4.449,-4.3156,-4.2866,0.0,0.0,0.0,0.0,0.0,0.0,0.0,0.0,0.0,0.0,0.0,0.0,0.0,0.0,0.0,0.0,0.0,0.0,0.0,0.0,0.0,0.0,0.0,0.0,0.0,0.0,0.0,0.0,0.0,0.0,0.0,0.0,0.0,0.0,0.0,0.0,0.0,0.0,0.0,0.0,0.0,0.0,0.0,0.0,0.0,0.0,0.0,0.0,0.0,0.0,0.0,0.0,0.0,0.0,0.0,0.0,0.0,0.0,0.0,0.0,0.0,0.0,0.0,0.0,0.0,0.0,0.0,0.0,0.0,0.0,0.0,0.0,0.0,0.0,0.0,0.0,0.0,0.0,0.0,0.0,0.0,0.0,0.0,0.0,0.0,0.0,0.0,0.0,0.0,0.0,0.0,0.0,0.0,0.0,0.0,0.0,0.0,0.0,0.0,0.0,0.0,0.0,-4.2848,-4.3596,-4.4834,-4.5712,-4.6108,-4.5903,-4.5834,-4.5085,-4.3352,-4.304,0.0,0.0,0.0,0.0,0.0,0.0,0.0,0.0,0.0,0.0,0.0,0.0,0.0,0.0,0.0,0.0,0.0,0.0,0.0,0.0,0.0,0.0,0.0,0.0,0.0,0.0,0.0,0.0,0.0,0.0,0.0,0.0,0.0,0.0,0.0,0.0,0.0,0.0,0.0,0.0,0.0,0.0,0.0,0.0,0.0,0.0,0.0,0.0,0.0,0.0,0.0,0.0,0.0,0.0,0.0,0.0,0.0,0.0,0.0,0.0,0.0,0.0,0.0,0.0,0.0,0.0,0.0,0.0,0.0,0.0,0.0,0.0,0.0,0.0,0.0,0.0,0.0,0.0,0.0,0.0,0.0,0.0,0.0,0.0,0.0,0.0,0.0,0.0,0.0,0.0,0.0,0.0,0.0,0.0,0.0,0.0,0.0,0.0,0.0,0.0,0.0,0.0,-4.3096,-4.4529,-4.5614,-4.6542,-4.6757,-4.5878,-4.5859,-4.5172,-4.3481,-4.2633,0.0,0.0,0.0,0.0,0.0,0.0,0.0,0.0,0.0,0.0,0.0,0.0,0.0,0.0,0.0,0.0,0.0,0.0,0.0,0.0,0.0,0.0,0.0,0.0,0.0,0.0,0.0,0.0,0.0,0.0,0.0,0.0,0.0,0.0,0.0,0.0,0.0,0.0,0.0,0.0,0.0,0.0,0.0,0.0,0.0,0.0,0.0,0.0,0.0,0.0,0.0,0.0,0.0,0.0,0.0,0.0,0.0,0.0,0.0,0.0,0.0,0.0,0.0,0.0,0.0,0.0,0.0,0.0,0.0,0.0,0.0,0.0,0.0,0.0,0.0,0.0,0.0,0.0,0.0,0.0,0.0,0.0,0.0,0.0,0.0,0.0,0.0,0.0,0.0,0.0,0.0,0.0,0.0,0.0,0.0,0.0,0.0,0.0,0.0,0.0,0.0,0.0,-4.3701,-4.477,-4.5753,-4.6191,-4.6255,-4.5883,-4.5848,-4.51,-4.3368,0.0,0.0,0.0,0.0,0.0,0.0,0.0,0.0,0.0,0.0,0.0,0.0,0.0,0.0,0.0,0.0,0.0,0.0,0.0,0.0,0.0,0.0,0.0,0.0,0.0,0.0,0.0,0.0,0.0,0.0,0.0,0.0,0.0,0.0,0.0,0.0,0.0,0.0,0.0,0.0,0.0,0.0,0.0,0.0,0.0,0.0,0.0,0.0,0.0,0.0,0.0,0.0,0.0,0.0,0.0,0.0,0.0,0.0,0.0,0.0,0.0,0.0,0.0,0.0,0.0,0.0,0.0,0.0,0.0,0.0,0.0,0.0,0.0,0.0,0.0,0.0,0.0,0.0,0.0,0.0,0.0,0.0,0.0,0.0,0.0,0.0,0.0,0.0,0.0,0.0,0.0,0.0,0.0,0.0,0.0,0.0,0.0,0.0,0.0,0.0,0.0,0.0,-4.3066,-4.4302,-4.5188,-4.5789,-4.6246,-4.6243,-4.5687,-4.5744,-4.4958,-4.2986,0.0,0.0,0.0,0.0,0.0,0.0,0.0,0.0,0.0,0.0,0.0,0.0,0.0,0.0,0.0,0.0,0.0,0.0,0.0,0.0,0.0,0.0,0.0,0.0,0.0,0.0,0.0,0.0,0.0,0.0,0.0,0.0,0.0,0.0,0.0,0.0,0.0,0.0,0.0,0.0,0.0,0.0,0.0,0.0,0.0,0.0,0.0,0.0,0.0,0.0,0.0,0.0,0.0,0.0,0.0,0.0,0.0,0.0,0.0,0.0,0.0,0.0,0.0,0.0,0.0,0.0,0.0,0.0,0.0,0.0,0.0,0.0,0.0,0.0,0.0,0.0,0.0,0.0,0.0,0.0,0.0,0.0,0.0,0.0,0.0,0.0,0.0,0.0,0.0,0.0,0.0,0.0,0.0,0.0,0.0,0.0,0.0,0.0,0.0,0.0,0.0,0.0,-4.318,-4.4868,-4.5892,-4.5797,-4.6956,-4.6996,-4.5246,-4.5533,-4.4742,0.0,0.0,0.0,0.0,0.0,0.0,0.0,0.0,0.0,0.0,0.0,0.0,0.0,0.0,0.0,0.0,0.0,0.0,0.0,0.0,0.0,0.0,0.0,0.0,0.0,0.0,0.0,0.0,0.0,0.0,0.0,0.0,0.0,0.0,0.0,0.0,0.0,0.0,0.0,0.0,0.0,0.0,0.0,0.0,0.0,0.0,0.0,0.0,0.0,0.0,0.0,0.0,0.0,0.0,0.0,0.0,0.0,0.0,0.0,0.0,0.0,0.0,0.0,0.0,0.0,0.0,0.0,0.0,0.0,0.0,0.0,0.0,0.0,0.0,0.0,0.0,0.0,0.0,0.0,0.0,0.0,0.0,0.0,0.0,0.0,0.0,0.0,0.0,0.0,0.0,0.0,0.0,0.0,0.0,0.0,0.0,0.0,0.0,0.0,0.0,0.0,0.0,0.0,-4.3172,-4.503,-4.6158,-4.6139,-4.6771,-4.6773,-4.5691,-4.5719,-4.4497,-4.1453,0.0,0.0,0.0,0.0,0.0,0.0,0.0,0.0,0.0,0.0,0.0,0.0,0.0,0.0,0.0,0.0,0.0,0.0,0.0,0.0,0.0,0.0,0.0,0.0,0.0,0.0,0.0,0.0,0.0,0.0,0.0,0.0,0.0,0.0,0.0,0.0,0.0,0.0,0.0,0.0,0.0,0.0,0.0,0.0,0.0,0.0,0.0,0.0,0.0,0.0,0.0,0.0,0.0,0.0,0.0,0.0,0.0,0.0,0.0,0.0,0.0,0.0,0.0,0.0,0.0,0.0,0.0,0.0,0.0,0.0,0.0,0.0,0.0,0.0,0.0,0.0,0.0,0.0,0.0,0.0,0.0,0.0,0.0,0.0,0.0,0.0,0.0,0.0,0.0,0.0,0.0,0.0,0.0,0.0,0.0,0.0,0.0,0.0,0.0,0.0,0.0,0.0,-4.335,-4.5175,-4.6382,-4.6562,-4.6996,-4.6802,-4.565,-4.5728,-4.4442,-4.1185,0.0,0.0,0.0,0.0,0.0,0.0,0.0,0.0,0.0,0.0,0.0,0.0,0.0,0.0,0.0,0.0,0.0,0.0,0.0,0.0,0.0,0.0,0.0,0.0,0.0,0.0,0.0,0.0,0.0,0.0,0.0,0.0,0.0,0.0,0.0,0.0,0.0,0.0,0.0,0.0,0.0,0.0,0.0,0.0,0.0,0.0,0.0,0.0,0.0,0.0,0.0,0.0,0.0,0.0,0.0,0.0,0.0,0.0,0.0,0.0,0.0,0.0,0.0,0.0,0.0,0.0,0.0,0.0,0.0,0.0,0.0,0.0,0.0,0.0,0.0,0.0,0.0,0.0,0.0,0.0,0.0,0.0,0.0,0.0,0.0,0.0,0.0,0.0,0.0,0.0,0.0,0.0,0.0,0.0,0.0,0.0,0.0,0.0,0.0,0.0,0.0,0.0,-4.3639,-4.5295,-4.6499,-4.7014,-4.746,-4.7103,-4.5518,-4.5709,-4.4525,-4.1313,0.0,0.0,0.0,0.0,0.0,0.0,0.0,0.0,0.0,0.0,0.0,0.0,0.0,0.0,0.0,0.0,0.0,0.0,0.0,0.0,0.0,0.0,0.0,0.0,0.0,0.0,0.0,0.0,0.0,0.0,0.0,0.0,0.0,0.0,0.0,0.0,0.0,0.0,0.0,0.0,0.0,0.0,0.0,0.0,0.0,0.0,0.0,0.0,0.0,0.0,0.0,0.0,0.0,0.0,0.0,0.0,0.0,0.0,0.0,0.0,-2.675,-2.7626,0.0,0.0,0.0,0.0,0.0,0.0,0.0,0.0,0.0,0.0,0.0,0.0,0.0,0.0,0.0,0.0,0.0,0.0,0.0,0.0,0.0,0.0,0.0,0.0,0.0,0.0,0.0,0.0,0.0,0.0,0.0,0.0,0.0,0.0,0.0,0.0,0.0,0.0,0.0,0.0,-4.3573,-4.5331,-4.6681,-4.7466,-4.7918,-4.7776,-4.6801,-4.6195,-4.4525,-4.1313,-4.1176,0.0,0.0,0.0,0.0,0.0,0.0,0.0,0.0,0.0,0.0,0.0,0.0,0.0,0.0,0.0,0.0,0.0,0.0,0.0,0.0,0.0,0.0,0.0,0.0,0.0,0.0,0.0,0.0,0.0,0.0,0.0,0.0,0.0,0.0,0.0,0.0,0.0,0.0,0.0,0.0,0.0,0.0,0.0,0.0,0.0,0.0,0.0,0.0,0.0,0.0,0.0,0.0,0.0,0.0,0.0,0.0,0.0,0.0,0.0,-3.0477,-3.0012,0.0,0.0,0.0,0.0,0.0,0.0,0.0,0.0,0.0,0.0,0.0,0.0,0.0,0.0,0.0,0.0,0.0,0.0,0.0,0.0,0.0,0.0,0.0,0.0,0.0,0.0,0.0,0.0,0.0,0.0,0.0,0.0,0.0,0.0,0.0,0.0,0.0,0.0,0.0,0.0,-4.3844,-4.5469,-4.681,-4.7864,-4.82,-4.7976,-4.7186,-4.6361,-4.4856,-4.2415,-4.1322,0.0,0.0,0.0,0.0,0.0,0.0,0.0,0.0,0.0,0.0,0.0,0.0,0.0,0.0,0.0,0.0,0.0,0.0,0.0,0.0,0.0,0.0,0.0,0.0,0.0,0.0,0.0,0.0,0.0,0.0,0.0,0.0,0.0,0.0,0.0,0.0,0.0,0.0,0.0,0.0,0.0,0.0,0.0,0.0,0.0,0.0,0.0,0.0,0.0,0.0,0.0,0.0,0.0,-3.1983,-3.3227,-3.5638,-3.6156,-3.6371,-3.6242,-3.3768,-3.2403,-3.1957,-3.217,0.0,0.0,0.0,0.0,0.0,0.0,0.0,0.0,0.0,0.0,0.0,0.0,0.0,0.0,0.0,0.0,0.0,0.0,0.0,0.0,0.0,0.0,-4.1293,-4.1024,-4.1596,-4.1596,-3.9438,0.0,0.0,0.0,0.0,0.0,0.0,0.0,0.0,0.0,0.0,0.0,-4.435,-4.573,-4.6974,-4.8179,-4.8306,-4.8031,-4.7388,-4.6581,-4.5424,-4.3809,-4.1699,-4.0102,0.0,0.0,0.0,0.0,0.0,0.0,0.0,0.0,0.0,0.0,0.0,0.0,0.0,0.0,0.0,0.0,0.0,0.0,0.0,0.0,0.0,0.0,0.0,0.0,0.0,0.0,0.0,0.0,0.0,0.0,0.0,0.0,-1.8882,-1.8879,0.0,0.0,0.0,0.0,0.0,0.0,0.0,0.0,0.0,0.0,0.0,0.0,0.0,-2.9995,-3.0609,-3.0634,-3.2085,-3.5018,-3.5006,-3.5217,-3.5672,-3.8303,-3.95,-3.9448,-3.8805,0.0,-3.5087,-3.6017,0.0,0.0,0.0,0.0,0.0,0.0,0.0,0.0,0.0,0.0,0.0,0.0,0.0,0.0,0.0,0.0,0.0,0.0,0.0,0.0,0.0,0.0,-4.3779,-4.2973,-4.2868,-4.2852,-4.251,-4.0804,-3.9258,-3.9042,-3.8233,-3.7613,0.0,0.0,0.0,0.0,0.0,0.0,-4.5235,-4.6401,-4.7334,-4.8214,-4.8306,-4.8269,-4.8159,-4.7407,-4.6269,-4.4654,-4.3589,-4.2341,-4.0855,-4.001,0.0,0.0,0.0,0.0,0.0,0.0,0.0,0.0,0.0,0.0,0.0,0.0,0.0,0.0,0.0,0.0,0.0,0.0,0.0,0.0,0.0,0.0,0.0,0.0,0.0,0.0,0.0,0.0,0.0,-1.605,-1.8482,-2.155,-2.1942,-2.0578,0.0,0.0,0.0,0.0,0.0,0.0,0.0,0.0,0.0,-2.9154,-3.2109,-3.3678,-3.3669,-3.3689,-3.4297,-3.5622,-3.7322,-3.8108,-3.8197,-4.0839,-4.1642,-4.1011,-4.0531,-3.9376,-3.7872,-3.8377,-3.8467,-3.8343,0.0,0.0,0.0,0.0,-3.8998,-3.9558,-4.1229,-4.1397,-4.1047,-4.2047,0.0,0.0,0.0,0.0,0.0,0.0,0.0,-4.3447,-4.3924,-4.4951,-4.5855,-4.5893,-4.5913,-4.5913,-4.5913,-4.4682,-4.3008,-4.1085,-4.0658,-4.0241,-3.8954,-3.9235,0.0,0.0,0.0,-4.366,-4.5223,-4.6403,-4.7425,-4.8214,-4.8306,-4.8306,-4.8306,-4.7572,-4.6819,-4.6104,-4.4874,-4.3663,-4.2506,-4.168,-4.1038,0.0,0.0,0.0,0.0,0.0,0.0,0.0,0.0,0.0,0.0,0.0,0.0,0.0,0.0,0.0,0.0,0.0,0.0,0.0,0.0,0.0,0.0,0.0,0.0,0.0,0.0,0.0,0.0,-1.5388,-1.7432,-2.2852,-2.3561,-2.2596,0.0,0.0,0.0,0.0,0.0,0.0,-2.4591,-2.8867,-3.1596,-3.2303,-3.4405,-3.5592,-3.5658,-3.5611,-3.5992,-3.6788,-3.9018,-4.0422,-4.1022,-4.2577,-4.2979,-4.2351,-4.1962,-4.1546,-4.1112,-4.0272,-4.0359,-4.0935,-4.0689,-4.0356,-4.0113,-4.0922,-4.1146,-4.1506,-4.4685,-4.5108,-4.4382,-4.5429,-4.5016,-4.3902,-4.2871,0.0,0.0,0.0,0.0,-4.5221,-4.6157,-4.6799,-4.7355,-4.7971,-4.8105,-4.8068,-4.7972,-4.7472,-4.6244,-4.35,-4.3234,-4.2871,-4.0939,-4.1373,0.0,-4.1513,-4.3248,-4.4922,-4.5741,-4.676,-4.7645,-4.8251,-4.8306,-4.8306,-4.8306,-4.7755,-4.7333,-4.7131,-4.5993,-4.4947,-4.414,-4.3534,-4.2837,-4.2047,0.0,0.0,0.0,0.0,0.0,0.0,0.0,0.0,0.0,0.0,0.0,0.0,0.0,0.0,0.0,0.0,0.0,0.0,0.0,0.0,0.0,0.0,0.0,0.0,0.0,0.0,0.0,0.0,0.0,-2.2495,-2.3414,0.0,0.0,0.0,0.0,-2.7018,-2.7343,-2.741,-2.742,-2.9977,-3.267,-3.5188,-3.5421,-3.5605,-3.5771,-3.5589,-3.6986,-3.9863,-4.0014,-4.1237,-4.3302,-4.3004,-4.3202,-4.3896,-4.4122,-4.4673,-4.5149,-4.2099,-4.0864,-4.099,-4.1702,-4.2166,-4.2522,-4.3399,-4.4384,-4.5453,-4.6675,-4.7055,-4.7198,-4.8328,-4.7459,-4.6106,-4.6855,-4.5856,0.0,0.0,-4.6797,-4.7049,-4.7798,-4.8009,-4.8048,-4.8086,-4.8105,-4.7991,-4.7602,-4.7518,-4.7194,-4.626,-4.5228,-4.4436,-4.4188,0.0,-4.4229,-4.5264,-4.5933,-4.6583,-4.7452,-4.7941,-4.8269,-4.8306,-4.8306,-4.8306,-4.8306,-4.8269,-4.7921,-4.713,-4.704,-4.6636,-4.581,-4.5736,-4.5351,-4.4544,-4.3736,0.0,0.0,0.0,0.0,0.0,0.0,0.0,0.0,0.0,0.0,0.0,0.0,0.0,0.0,0.0,0.0,0.0,0.0,0.0,0.0,0.0,0.0,0.0,0.0,0.0,0.0,0.0,0.0,-2.5377,-2.4553,0.0,-2.4739,-2.5649,-2.7254,-2.9913,-3.0091,-3.012,-3.0098,-3.0991,-3.3615,-3.8311,-3.848,-3.8031,-3.7088,-3.7994,-3.936,-4.1186,-4.195,-4.287,-4.3961,-4.4196,-4.4998,-4.6245,-4.5909,-4.6071,-4.6518,-4.5601,-4.5217,-4.5243,-4.5542,-4.5848,-4.6187,-4.6494,-4.6915,-4.7488,-4.8507,-4.8569,-4.8239,-4.8633,-4.8327,-4.7799,-4.7934,-4.7511,-4.7088,-4.7587,-4.8106,-4.8606,-4.8875,-4.9356,-4.9721,-4.9458,-4.9395,-4.9285,-4.8863,-4.8783,-4.8634,-4.8077,-4.6977,-4.594,-4.5348,-4.541,-4.5525,-4.5406,-4.6209,-4.6965,-4.726,-4.7868,-4.8306,-4.8306,-4.8306,-4.8306,-4.8306,-4.8306,-4.8196,-4.7902,-4.7884,-4.7517,-4.6728,-4.6673,-4.6305,-4.5498,-4.469,-4.3479,0.0,0.0,0.0,0.0,0.0,0.0,0.0,0.0,0.0,0.0,0.0,0.0,0.0,0.0,0.0,0.0,0.0,0.0,0.0,0.0,0.0,0.0,0.0,0.0,0.0,-2.1192,-2.3742,-2.7176,-2.6783,-2.6978,-2.8716,-2.8904,-2.963,-3.1344,-3.1503,-3.152,-3.1528,-3.2374,-3.4605,-3.8415,-3.9539,-3.9587,-3.8448,-3.946,-4.0679,-4.215,-4.3191,-4.4148,-4.5078,-4.5515,-4.6397,-4.7562,-4.736,-4.7598,-4.8105,-4.8174,-4.8384,-4.8594,-4.8001,-4.7913,-4.8144,-4.8432,-4.8605,-4.8834,-4.9876,-4.9923,-4.9539,-4.9548,-4.949,-4.9413,-4.9221,-4.9163,-4.9106,-4.9009,-4.9394,-4.9837,-4.9837,-5.0181,-5.0421,-5.0159,-5.0019,-4.9827,-4.9561,-4.9386,-4.9234,-4.8963,-4.8321,-4.755,-4.6707,-4.6954,-4.701,-4.6342,-4.6984,-4.7517,-4.7517,-4.7976,-4.8306,-4.8306,-4.8306,-4.8306,-4.8306,-4.8306,-4.8306,-4.8306,-4.8306,-4.8067,-4.7535,-4.726,-4.6874,-4.6324,-4.5259,-4.4195,-4.3112,0.0,0.0,0.0,0.0,0.0,0.0,0.0,0.0,0.0,0.0,0.0,0.0,0.0,0.0,0.0,0.0,0.0,0.0,0.0,0.0,0.0,0.0,0.0,-2.7598,-2.7523,-2.747,-2.7569,-2.9907,-3.1485,-3.1517,-3.1488,-3.15,-3.15,-3.1489,-3.147,-3.1501,-3.4063,-3.5597,-3.5621,-3.8545,-4.003,-3.9749,-3.9833,-4.0858,-4.2827,-4.3667,-4.5006,-4.6761,-4.6854,-4.7254,-4.7802,-4.8515,-4.933,-5.0083,-4.9642,-4.9933,-5.0529,-4.8836,-4.8182,-4.8298,-4.9144,-4.9452,-4.9603,-5.072,-5.1148,-5.1203,-5.1183,-5.1068,-5.0914,-5.0914,-5.0818,-5.0702,-5.0702,-5.0702,-5.0702,-5.0702,-5.0399,-5.0092,-5.0068,-4.9773,-4.9475,-4.9475,-4.9139,-4.8897,-4.8897,-4.9202,-4.9234,-4.8421,-4.8621,-4.8744,-4.8364,-4.8306,0.0,-4.8306,-4.8306,-4.8306,-4.8306,-4.8306,-4.8306,-4.8306,-4.8306,-4.8306,-4.8306,-4.8306,-4.8306,-4.8306,-4.7572,-4.715,-4.715,-4.5571,-4.4745,-4.4745,0.0,0.0,0.0,0.0,0.0,0.0,0.0,0.0,0.0,0.0,0.0,0.0,0.0,0.0,0.0,0.0,0.0,0.0,0.0,0.0,0.0,-2.5227,-2.7578,-2.7602,-2.5714,-2.4953,-2.6592,-2.9566,-3.1509,-3.1509,-3.1501,-3.1519,-3.1519,-3.1495,-3.1511,-3.1528,-3.5081,-3.7689,-3.877,-4.0157,-4.0798,-4.0569,-4.2061,-4.3093,-4.3611,-4.5178,-4.6478,-4.7418,-4.7448,-4.8203,-4.9459,-4.9657,-5.0042,-5.0525,-5.0413,-5.0471,-5.0644,-5.0164,-5.0029,-5.0144,-5.0394,-5.0587,-5.0761,-5.1058,-5.1184,-5.1183,-5.1029,-5.0952,-5.0895,-5.0779,-5.0721,-5.0702,-5.0702,-5.0702,-5.0702,-5.0702,-5.0399,-5.0043,-4.9746,-4.9356,-4.8996,-4.8692,-4.855,-4.844,-4.844,-4.8779,-4.8897,-4.8402,-4.8383,-4.8421,-4.8306,-4.8306,-4.8306,-4.8306,-4.8306,-4.8306,-4.8306,-4.8306,-4.8306,-4.8306,-4.8306,-4.8306,-4.8306,-4.8306,-4.8306,-4.8306,-4.8104,-4.7976,-4.7976,-4.6397,-4.5571,0.0,0.0,0.0,0.0,0.0,0.0,0.0,0.0,0.0,0.0,0.0,0.0,0.0,0.0,0.0,0.0,0.0,0.0,0.0,0.0,0.0,0.0,-2.7383,-2.8756,-2.7309,-2.5601,-2.5043,-2.6329,-2.9465,-3.1514,-3.15,-3.1529,-3.1515,-3.1501,-3.1485,-3.2549,-3.4957,-3.7423,-3.9194,-4.0076,-4.0798,-4.1549,-4.2209,-4.3373,-4.4417,-4.5269,-4.6505,-4.7516,-4.8222,-4.8551,-4.9238,-5.0092,-5.0272,-5.0483,-5.0702,-5.0702,-5.0721,-5.0779,0.0,0.0,0.0,0.0,-5.1062,-5.1161,-5.1154,-5.1106,-5.1068,-5.0952,-5.0875,-5.0818,-5.0721,-5.0702,-5.0663,-5.0483,-5.0462,-5.0421,-5.0249,-4.9898,-4.9532,-4.9295,-4.893,-4.8621,-4.8586,-4.8421,-4.8326,-4.8513,-4.8604,0.0,-4.8326,-4.8458,-4.8477,-4.8344,-4.8306,-4.8306,-4.8306,-4.8306,-4.8306,-4.8306,-4.8306,-4.8306,-4.8306,-4.8306,0.0,0.0,0.0,-4.8025,-4.7445,-4.7677,0.0,0.0,0.0,0.0,0.0,-4.6087,0.0,0.0,-4.5954,-4.6,0.0,0.0,0.0,0.0,0.0,0.0,0.0,0.0,0.0,0.0,0.0,0.0,0.0,0.0,0.0,0.0,-3.0016,-3.0315,-2.6958,-2.6519,-2.6498,-2.6524,-2.9449,-3.1503,-3.1515,-3.1753,-3.1974,-3.1968,-3.2139,-3.45,-3.9812,-4.0017,0.0,0.0,0.0,-4.2228,-4.3975,-4.4093,-4.5162,-4.7169,-4.7615,-4.8273,-4.9043,-4.9773,-5.0116,-5.0183,-5.0544,-5.0702,-5.0702,-5.0721,-5.0818,-5.0933,-5.0933,-5.0933,-5.0951,-5.1074,-5.1115,-5.1123,-5.1181,0.0,0.0,-5.0991,-5.0856,-5.0702,-5.0702,-5.0702,-5.0624,-5.0206,-5.0092,-5.0019,-4.9589,-4.9202,-4.8897,-4.8897,-4.8604,-4.8402,-4.8744,-4.8532,-4.8402,-4.8779,-4.8532,-4.8306,-4.8306,-4.8604,-4.8709,-4.8364,-4.8306,-4.8306,-4.8306,-4.8306,-4.8267,-4.821,-4.821,0.0,-4.8075,-4.8075,-4.8075,-4.8075,-4.8075,-4.7529,-4.629,-4.6761,-4.6797,-4.6356,-4.6978,-4.7733,-4.8524,-4.8626,-4.8806,-4.8912,-4.6561,-4.6611,0.0,0.0,0.0,0.0,0.0,0.0,0.0,0.0,0.0,0.0,0.0,0.0,0.0,0.0,0.0,-3.0238,-3.1185,-3.0335,-2.6998,-2.6498,-2.6485,-2.6519,-2.9439,-3.1516,-3.147,-3.3457,-3.4729,-3.4713,-3.5848,-3.7614,-3.9968,-3.9443,-3.9657,-4.0948,-4.1909,-4.2889,-4.3931,-4.498,-4.6194,-4.7571,-4.8323,0.0,-4.9879,-5.0043,-5.0272,-5.0604,-5.0663,-5.0702,-5.0702,-5.0837,-5.0972,-5.1145,-5.1145,-5.1145,-5.1151,-5.1166,-5.1194,-5.1254,-5.1741,-5.1466,-5.0991,-5.1529,-5.1241,-5.0702,-5.0702,-5.0702,0.0,-5.0206,-5.0092,-5.0019,-4.9589,-4.9202,-4.8897,-4.8897,-4.8604,-4.8344,-4.8402,-4.8364,-4.8344,-4.8383,-4.8364,-4.8306,-4.8306,-4.8364,-4.8402,-4.8306,-4.8306,-4.8306,-4.8306,-4.8306,-4.8114,-4.7614,-4.7572,-4.7385,-4.6801,-4.6756,-4.6756,-4.6756,-4.6756,-4.6639,-4.6358,-4.6478,-4.6799,-4.7317,-4.7477,-4.7921,-4.8653,-4.8696,-4.9321,-5.0505,-4.9387,-4.9118,0.0,0.0,0.0,0.0,0.0,0.0,0.0,0.0,0.0,0.0,0.0,-2.2684,-2.6814,0.0,-2.9997,-3.1298,-3.1471,-3.0893,-2.9246,-2.8977,-2.8352,-2.6688,-2.9477,-3.2048,-3.3393,-3.4696,-3.5505,-3.5531,-3.6914,-3.8235,-3.9259,-3.975,-4.0324,-4.1007,-4.2531,-4.3707,-4.4484,-4.5843,-4.7111,-4.83,-4.892,-4.9532,-5.0092,-5.0313,-5.0504,-5.0702,-5.0702,-5.0741,-5.0818,-5.0991,-5.108,-5.1141,-5.1199,-5.1191,-5.1208,-5.1159,-5.1112,-5.1087,-5.1375,-5.1183,-5.0817,-5.096,-5.087,-5.0624,-5.0206,-5.0249,-5.0272,-4.9673,-4.9504,-4.951,-4.9538,-4.9394,-4.9251,-4.9251,-4.9103,-4.882,-4.8398,-4.8306,-4.8306,-4.8306,-4.8306,-4.8306,-4.8306,-4.8306,-4.8306,-4.8306,-4.8306,-4.8172,-4.7897,-4.7856,-4.7614,-4.6955,-4.691,-4.6934,-4.6997,-4.6984,-4.6984,-4.6984,-4.6984,-4.7015,-4.7035,-4.7354,-4.7597,-4.7647,-4.8032,-4.84,-4.8732,-4.8826,-4.9457,-5.0547,-5.0506,-5.0679,0.0,0.0,0.0,0.0,0.0,0.0,0.0,0.0,-2.0423,-2.0421,-2.2219,-2.5342,-3.0524,-3.1492,-3.1297,-3.0651,-3.1105,-3.1304,-3.0586,-3.1525,-3.1237,-2.8574,-3.062,-3.3151,-3.5253,-3.5763,-3.59,-3.5827,-3.7345,-3.8497,-3.9016,-4.066,-4.1597,-4.1688,-4.3381,-4.4678,-4.5475,-4.6576,-4.7737,-4.9011,-4.9356,-4.9746,-5.0225,-5.0544,-5.0702,-5.0702,-5.0721,-5.0837,-5.0972,-5.1112,-5.1156,-5.1123,-5.1134,-5.1145,-5.1144,-5.1081,-5.099,-5.0952,-5.1241,-5.1009,-5.0582,-5.0588,-5.0539,-5.0374,-4.9881,-4.9833,-4.9865,-4.9295,-4.9139,-4.9203,-4.9525,-4.9701,-4.9811,-4.9811,-4.9701,-4.9444,-4.8912,-4.8655,-4.86,-4.8765,-4.8802,-4.8802,-4.8802,-4.8687,-4.8519,-4.8323,-4.821,-4.7992,-4.7644,-4.7515,-4.7241,-4.6711,-4.6632,-4.6864,-4.7415,-4.7417,-4.7417,-4.7417,-4.7417,-4.7439,-4.7545,-4.8014,-4.8137,-4.7748,-4.8333,-4.8712,-4.885,-4.8967,-4.9458,-5.0321,-5.093,-5.1571,-1.7693,-1.85,-1.9069,-1.7966,-1.8509,-1.9287,0.0,0.0,-2.2745,-2.2745,-2.4527,-2.7218,-3.0805,-3.15,-3.0514,-2.7547,-2.9559,-3.0455,-2.7456,-3.1661,-3.4942,-3.4546,-3.4831,-3.515,-3.5468,-3.6755,-3.7328,-3.6863,-3.8707,-4.0117,-4.0728,-4.2044,-4.3373,-4.4592,-4.5328,-4.6067,-4.6891,-4.7039,-4.7879,-4.9445,-4.9475,-4.9898,-5.0624,-5.0683,-5.0702,-5.0702,-5.0837,-5.0991,-5.1163,-5.1135,-5.1146,-5.1177,-5.0991,-5.0933,-5.0933,-5.0932,-5.0914,-5.1106,-5.2472,-5.1708,-5.0407,-5.1833,-5.1102,-4.9769,-5.0371,-5.0088,-4.9625,-4.9874,-4.9961,-4.9893,-4.9673,-5.0123,-5.0674,-5.0674,-5.0105,-4.9756,-5.0398,-4.9958,-4.9664,-5.038,-5.0527,-5.0527,-5.0527,-5.0004,-4.9245,-4.843,-4.7838,-4.768,-4.8315,-4.7936,-4.7562,-4.7541,-4.7557,-4.7355,-4.6907,-4.6867,-4.6867,-4.6867,-4.6867,-4.6901,-4.6886,-4.6986,-4.7308,-4.7886,-4.7971,-4.8327,-4.8989,-4.9012,-4.9729,-5.1099,-5.1183,-5.162,-2.0958,-2.0417,-1.9657,0.0,-2.0366,-2.1734,-2.1724,-2.2427,-2.3482,-2.4832,-2.7412,-2.9868,-3.1209,-3.2788,-3.2853,0.0,-3.1922,-3.3327,-3.1941,-3.3886,-3.5829,-3.6708,-3.6046,-3.5714,-3.6337,-3.6956,-3.74,-3.7464,-3.9413,-4.0762,-4.0985,-4.3057,-4.4497,-4.5062,-4.6061,-4.6764,-4.7113,-4.7811,-4.8595,-4.9504,-4.9746,-5.0159,-5.0702,-5.0702,-5.0741,-5.0837,-5.101,-5.1091,-5.1147,-5.116,-5.1116,-5.1029,-5.0933,-5.0856,-5.0837,-5.1298,-5.1331,-5.1312,-5.246,-5.1802,-5.0582,-5.1549,-5.1103,-5.0176,-5.0086,-4.9971,-4.9847,-4.9824,-4.9806,-4.999,-5.0809,-5.1242,-5.1499,-5.1499,-5.1242,-5.0949,-5.0839,-5.0545,-5.0398,-5.0729,-5.0802,-5.0802,-5.0802,-5.0173,-4.9577,-4.9186,-4.856,-4.8111,-4.8038,-4.7786,-4.7524,-4.7187,-4.7574,-4.7561,-4.6878,-4.7192,-4.7445,-4.7445,-4.7445,-4.7631,-4.8054,-4.8088,-4.824,-4.8545,-4.8545,-4.8697,-4.9001,-4.9001,-4.9763,-5.1217,-5.1217,-5.186,-2.2335,0.0,0.0,-2.0698,-2.1902,-2.3072,-2.3105,-2.3601,-2.454,-2.614,-2.9142,-3.1512,-3.1525,-3.2825,-3.3657,-3.273,-3.494,-3.6473,-3.5717,-3.5763,-3.6352,-3.7421,-3.6519,-3.6178,-3.7152,-3.7212,-3.763,-3.8585,-4.0318,-4.166,-4.2431,-4.4324,-4.5594,-4.599,-4.6905,-4.7463,-4.7592,-4.8447,-4.9171,-4.9664,-4.9949,-5.0333,-5.076,-5.0779,-5.085,-5.0956,-5.1125,-5.1145,-5.1105,-5.1121,-5.1029,-5.0875,-5.0737,-5.0774,-5.0945,-5.1664,-5.1663,-5.1434,-5.2441,-5.1935,-5.0917,-5.122,-5.09,-5.0351,-5.0026,-4.9953,-4.9954,-4.9947,-5.0068,-5.0472,-5.1408,-5.1995,-5.2325,-5.2325,-5.216,-5.1885,-5.1536,-5.1298,-5.1147,-5.1146,-5.1158,-5.1098,-5.0889,-5.0261,-4.9781,-4.9781,-4.9201,-4.8572,-4.8055,-4.8062,-4.7895,-4.7454,-4.7885,-4.8003,-4.7445,-4.7902,-4.8223,-4.8223,-4.8223,-4.846,-4.8984,-4.9001,-4.9001,-4.9001,-4.9001,-4.9001,-4.9001,-4.9001,-4.9763,-5.1217,-5.1217,-5.2046,0.0,0.0,-2.2975,-2.3012,-2.3032,-2.3119,-2.3096,-2.4824,-2.6426,-2.6516,-2.9169,-3.1525,-3.1475,-3.0649,-3.118,-3.4803,-3.7977,-3.8969,-3.6188,-3.6466,-3.6974,-3.699,-3.6751,-3.6919,-3.7706,-3.7764,-3.8641,-4.0746,-4.1673,-4.3335,-4.6026,-4.6217,-4.6862,-4.8157,-4.8251,-4.844,-4.8826,-4.8878,-4.9295,-5.0068,-5.0092,-5.0371,-5.0914,-5.1029,-5.1088,-5.1093,-5.1093,-5.1093,-5.1084,-5.0957,-5.0914,-5.0836,-5.0329,-5.0588,-5.1339,-5.1831,-5.1707,-5.1485,-5.2737,-5.2348,-5.1299,-5.1391,-5.0602,-4.9759,-5.0527,-5.0215,-4.9777,-5.0545,-5.1334,-5.1756,-5.1022,-5.1995,-5.317,-5.317,-5.2564,-5.2197,-5.2968,-5.2509,-5.1974,-5.2054,-5.204,-5.1832,-5.1221,-5.0484,-5.002,-5.002,-4.9393,-4.8933,-4.8791,-4.889,-4.8934,-4.8934,-4.8951,-4.8968,-4.8934,-4.8951,-4.8968,-4.8968,-4.8968,-4.8984,-4.9001,-4.9001,-4.9001,-4.9001,-4.9001,-4.9001,-4.9001,-4.9001,-4.9763,-5.1217,-5.1217,-5.2046,-1.9449,0.0,-2.309,-2.3081,-2.3096,-2.3131,-2.3098,-2.4856,-2.6518,-2.6476,-2.7434,-2.9434,-3.345,-3.3826,-3.4666,-3.8043,-3.8568,-3.8355,-3.7743,-3.7895,-3.8286,-3.878,-3.8313,0.0,-4.0292,-3.9304,-3.9259,-4.0983,-4.261,-4.4137,-4.5544,-4.6884,-4.7976,-4.8674,-4.8692,-4.8897,-4.9295,-4.9561,-4.9827,-5.0092,-5.0454,-5.0758,-5.1024,-5.1081,-5.1098,-5.1093,-5.1102,-5.1053,-5.0977,-5.1204,-5.1252,-5.1185,-5.1269,-5.1443,-5.1754,-5.2198,-5.2211,-5.2236,-5.3243,-5.2809,-5.1833,-5.2426,-5.1606,-5.0453,-5.0729,-5.0233,-4.9646,-4.9921,-5.0178,-5.0453,-5.0729,-5.1591,-5.2399,-5.2399,-5.2601,-5.2876,-5.3151,-5.2612,-5.2055,-5.2105,-5.1741,-5.1343,-5.1138,-5.05,-4.9879,-4.9419,-4.9152,-4.8961,-4.8959,-4.8938,-4.9001,-4.9001,-4.9001,-4.9001,-4.9001,-4.9001,-4.9001,-4.9001,-4.9001,-4.9001,-4.9001,-4.9001,-4.9001,-4.9001,-4.9001,-4.9001,-4.9001,-4.9492,-5.0236,-5.1234,-5.1708,-5.2503,-2.0441,-2.2036,-2.4293,-2.4343,-2.371,-2.3284,-2.41,-2.6401,-2.8302,-2.8295,-2.8271,-2.9443,-3.3369,-3.4485,-3.5629,-3.815,-3.828,-3.8319,-3.8969,-3.9056,-3.9301,-3.9997,-3.9648,-3.9893,0.0,0.0,-4.1123,-4.2506,-4.3821,-4.5195,-4.653,-4.7807,-4.8692,-4.9108,-4.9108,-4.9326,-4.9719,-5.0019,-5.0269,-5.047,-5.0809,-5.1015,-5.1096,-5.1093,-5.1065,-5.1016,-5.0887,-5.0903,-5.1034,-5.1159,-5.1328,-5.1527,-5.1657,-5.1842,-5.2146,-5.2271,-5.2491,-5.2824,-5.338,-5.3071,-5.2472,-5.2711,-5.2068,-5.1224,-5.1224,-5.0857,-5.0453,-5.0453,-5.0655,-5.093,-5.1169,-5.183,-5.2435,-5.2435,-5.2615,-5.2831,-5.2831,-5.2242,-5.1643,-5.1376,-5.1016,-5.0608,-5.0407,-4.9936,-4.9521,-4.9046,-4.9001,-4.9001,-4.9001,-4.9001,-4.9001,-4.9001,-4.9001,-4.9001,-4.9001,-4.9001,-4.9001,-4.9001,-4.9001,-4.9001,-4.9001,-4.9001,-4.9001,-4.9001,-4.9001,-4.9001,-4.9001,-4.9729,-5.0473,-5.1234,-5.1961,-5.2739,-2.323,-2.4846,-2.6501,-2.6479,-2.4985,-2.4103,-2.6253,-2.9176,-3.1418,-3.15,-3.1582,-3.1631,0.0,0.0,-3.4241,-3.5646,-3.7462,-3.8935,-3.9783,-3.99,-4.0095,0.0,0.0,0.0,0.0,0.0,-4.4132,-4.5204,-4.5351,-4.6434,-4.872,-4.8878,-4.9108,-4.9504,-4.9551,-4.9719,-5.0135,-5.0264,-5.0585,-5.1104,-5.1082,-5.1094,-5.1091,-5.1067,-5.099,-5.0836,-5.0441,-5.0634,-5.1237,-5.0874,-5.1217,-5.1889,-5.1535,-5.1861,-5.2494,-5.2198,-5.2546,-5.3206,-5.3206,-5.3206,-5.3078,-5.2307,-5.2013,-5.1995,-5.1995,-5.1958,-5.194,-5.194,-5.2491,-5.2913,-5.2142,-5.2485,-5.3091,-5.3091,-5.2563,-5.2047,-5.2047,-5.1544,-5.0823,-5.0146,-4.9976,-4.978,-4.9107,-4.9001,-4.9001,-4.9001,-4.9001,-4.9001,-4.9001,-4.9001,-4.9001,-4.9001,-4.9001,-4.9001,-4.9001,-4.9001,-4.9001,-4.9001,-4.9001,-4.9001,-4.9001,-4.9001,-4.9001,-4.9001,-4.9001,-4.9001,-4.9001,-4.9779,-5.0524,-5.1234,-5.2012,-5.2773,-2.4826,-2.6054,-2.6486,-2.6475,-2.7921,-2.9515,-3.0081,-2.9945,-2.9982,-3.1224,-3.2302,-3.3056,0.0,0.0,0.0,-3.8438,-3.9143,0.0,-4.1091,-4.1305,0.0,-4.2427,0.0,-4.3103,-4.4476,-4.5129,0.0,-4.7392,-4.7095,-4.726,-4.8182,-4.8936,-4.9532,-4.9924,-5.0043,-5.0297,-5.0678,-5.0728,-5.0862,-5.1104,-5.099,-5.1001,-5.1083,-5.0683,-5.0486,-5.0416,-4.9925,-5.0147,-5.0874,-5.1064,-5.1625,-5.2358,-5.2597,-5.2821,-5.3005,-5.2936,-5.3023,-5.3206,-5.3206,-5.3206,-5.3188,-5.2968,-5.2491,-5.1995,-5.1995,-5.1573,-5.1114,-5.1114,-5.1261,-5.1371,-5.1151,-5.1274,-5.1493,-5.1511,-5.1443,-5.1343,-5.1343,-5.077,-5.0241,-5.0033,-4.9622,-4.9212,-4.9001,-4.9001,-4.9001,-4.9001,-4.9001,-4.9001,-4.9001,-4.9001,-4.9001,-4.9001,-4.9001,-4.9001,-4.9001,-4.9001,-4.9001,-4.9001,-4.9001,-4.9001,-4.9001,-4.9001,-4.9001,-4.9001,-4.9001,-4.9001,-4.9001,-5.0304,-5.1031,-5.1251,-5.257,-5.3315,-2.5872,-2.6506,-2.6832,-2.8319,-3.0099,-3.1364,-3.0764,-3.033,-3.0203,-3.0748,-3.2099,0.0,-3.2918,-3.4805,0.0,0.0,0.0,0.0,-4.2354,-4.2631,-4.2921,0.0,-4.3806,0.0,-4.5874,-4.6463,-4.7286,-4.8526,-4.8183,-4.8236,-4.8973,-4.9539,-5.005,-5.053,-5.06,-5.076,-5.0984,-5.093,-5.0978,-5.1101,-5.0964,-5.0843,-5.0741,-5.0383,-5.0133,-4.9928,-4.9838,-5.0215,-5.1007,-5.1435,-5.2063,-5.2839,-5.3088,-5.3206,-5.3206,-5.3206,-5.3206,-5.3206,-5.3206,-5.3206,-5.3206,-5.3206,-5.2894,-5.2527,-5.2527,-5.2215,-5.1848,-5.1848,-5.1848,-5.1765,-5.1438,-5.1384,-5.1333,-5.1047,-5.0819,-5.0608,-5.0608,-5.0033,-4.9563,-4.9563,-4.9256,-4.9001,-4.9001,-4.9001,-4.9001,-4.9001,-4.9001,-4.9001,-4.9001,-4.9001,-4.9001,-4.9001,-4.9001,-4.9001,-4.9001,-4.9001,-4.9001,-4.9001,-4.9001,-4.9001,-4.9001,-4.9001,-4.9001,-4.9001,-4.9001,-4.9171,-4.9492,-5.0642,-5.1386,-5.1725,-5.2942,-5.3501,-2.6491,-2.6494,-2.7229,-3.0372,-3.1312,-3.1168,-3.0078,-3.0732,-3.1341,-3.0533,0.0,-3.2498,-3.2274,-3.4101,-3.6147,-3.7721,0.0,-4.1012,-4.3392,-4.3737,-4.3988,-4.4587,-4.4676,-4.5185,-4.6437,-4.7245,-4.8098,-4.9186,-4.907,-4.9329,-5.029,-5.0373,-5.0634,-5.1095,-5.1095,-5.1102,-5.1101,-5.0962,-5.0925,-5.0988,-5.097,-5.0684,-5.0202,-5.0133,-4.9917,-4.9593,-4.9877,-5.056,-5.1435,-5.1848,-5.2472,-5.3206,-5.3206,-5.3206,-5.3206,-5.3206,-5.3206,-5.3206,-5.3206,-5.3206,-5.3206,-5.3206,-5.3206,-5.3206,-5.3206,-5.3206,-5.3164,-5.3103,-5.3042,-5.2893,-5.2177,-5.1886,-5.1692,-5.1086,-5.0407,-4.9879,-4.9879,-4.9419,-4.9001,-4.9001,-4.9001,-4.9001,-4.9001,-4.9001,-4.9001,-4.9001,-4.9001,-4.9001,-4.9001,-4.9001,-4.9001,-4.9001,-4.9001,-4.9001,-4.9001,-4.9001,-4.9001,-4.9001,-4.9001,-4.9001,-4.9001,-4.9001,-4.9001,-4.9001,-4.9103,-4.9458,-5.0084,-5.0947,-5.1674,-5.2317,-5.3129,-5.3501,-2.6527,-2.6515,-2.6977,-2.8946,-3.0326,-3.1231,-3.1111,-3.1713,0.0,0.0,-3.2307,-3.3,-3.3339,-3.5283,-3.7253,-3.8654,0.0,0.0,0.0,0.0,-4.4205,0.0,-4.5011,-4.5791,-4.7761,-4.7991,0.0,-5.0584,-5.0598,-5.0508,-5.0478,-5.0777,-5.0996,-5.1105,-5.1109,-5.1096,-5.1103,-5.0971,-5.0741,-5.0449,-5.0975,-5.0679,-4.9655,-4.9965,-5.0071,-4.9989,-4.9769,-5.0538,-5.1879,-5.1963,-5.2472,-5.3206,-5.3206,-5.3206,-5.3206,-5.3206,-5.3206,-5.3206,-5.3206,-5.3206,-5.3206,-5.3206,-5.3206,-5.3206,-5.3206,-5.3206,-5.3042,-5.2445,-5.2271,-5.2112,-5.1444,-5.0805,-5.0335,-5.0241,-4.9681,-4.9152,-4.9152,-4.9107,-4.9001,-4.9001,-4.9001,-4.9001,-4.9001,-4.9001,-4.9001,-4.9001,-4.9001,-4.9001,-4.9001,-4.9001,-4.9001,-4.9001,-4.9001,-4.9001,-4.9001,-4.9001,-4.9001,-4.9001,-4.9001,-4.9001,-4.9001,-4.9001,-4.9001,-4.9001,-4.9593,-4.9965,-5.0084,-5.1454,-5.2181,-5.2317,-5.3129,-5.3501,-2.7543,-2.7798,-2.8226,-2.9903,-3.08,-3.121,-3.1021,0.0,0.0,0.0,-3.2417,-3.3358,-3.3424,0.0,0.0,0.0,0.0,0.0,0.0,0.0,0.0,0.0,-4.5419,-4.6206,0.0,-4.8239,-4.9028,-5.0991,-5.1087,-5.0985,-5.087,-5.1054,-5.1132,-5.1099,-5.1031,-5.0898,-5.0699,-5.055,-5.0484,-5.0506,-5.0827,-5.0581,-4.9846,-5.0456,-5.0413,-4.988,-5.0572,-5.1279,-5.2013,-5.2454,-5.2858,-5.3206,-5.3206,-5.3206,-5.3206,-5.3206,-5.3206,-5.3206,-5.3206,-5.3206,-5.3206,-5.3206,-5.3206,-5.3103,-5.2769,-5.2617,-5.249,-5.1759,-5.1593,-5.1444,-5.0716,-5.0241,-4.9919,-4.9563,-4.9195,-4.9001,-4.9001,-4.9001,-4.9001,-4.9001,-4.9001,-4.9001,-4.9001,-4.9001,-4.9001,-4.9001,-4.9001,-4.9001,-4.9001,-4.9001,-4.9001,-4.9001,-4.9001,-4.9001,-4.9001,-4.9001,-4.9001,-4.9001,-4.9001,-4.9001,-4.9001,-4.9373,-4.956,-4.956,-5.0304,-5.0862,-5.1251,-5.1961,-5.252,-5.2942,-5.3331,-5.3501,-2.8505,-2.8994,-2.9586,-3.111,-3.1489,-3.1474,-3.0998,-3.1536,0.0,0.0,-3.2458,-3.3491,-3.3352,0.0,-3.5957,0.0,0.0,0.0,0.0,0.0,0.0,0.0,-4.5885,0.0,-4.8237,-4.8334,-4.9124,-5.1087,-5.1228,-5.1197,-5.1197,-5.1187,-5.1136,-5.1054,-5.087,-5.0607,-5.026,-5.026,-5.0334,-5.0579,-5.0936,-5.0806,-5.0285,-5.1083,-5.0971,-5.016,-5.1444,-5.2087,-5.2307,-5.2949,-5.3206,-5.3206,-5.3206,-5.3206,-5.3206,-5.3206,-5.3103,-5.2937,-5.2937,-5.2893,-5.2743,-5.2743,-5.285,-5.2875,-5.2271,-5.2,-5.1759,-5.1086,-5.0894,-5.0716,-4.9976,-4.978,-4.9664,-4.9107,-4.9001,-4.9001,-4.9001,-4.9001,-4.9001,-4.9001,-4.9001,-4.9001,-4.9001,-4.9001,-4.9001,-4.9001,-4.9001,-4.9001,-4.9001,-4.9001,-4.9001,-4.9001,-4.9001,-4.9001,-4.9001,-4.9001,-4.9001,-4.9001,-4.9001,-4.9001,-4.9001,-4.9712,-5.0084,-5.0084,-5.098,-5.1725,-5.23,-5.2469,-5.2892,-5.3501,-5.3501,-5.3585,-2.8279,-2.9044,-3.0156,-3.1071,-3.1728,-3.2157,-3.2215,0.0,0.0,-3.2422,-3.283,-3.3345,-3.368,-3.4467,-3.5671,0.0,0.0,-4.0303,0.0,0.0,0.0,0.0,0.0,0.0,-4.8542,-4.843,-4.9162,-5.1222,-5.1277,-5.1199,-5.1199,-5.1142,-5.1049,-5.0913,-5.0539,-5.0291,-5.0106,-5.0458,-5.0472,-5.0179,-5.1651,-5.177,-5.0772,-5.1581,-5.1871,-5.1775,-5.194,-5.2417,-5.3115,-5.3188,-5.3206,-5.3206,-5.3206,-5.3206,-5.3206,-5.3206,-5.2769,-5.2224,-5.2224,-5.1808,-5.1292,-5.1292,-5.171,-5.2159,-5.2112,-5.1643,-5.1034,-5.0404,-5.0181,-4.9936,-4.9256,-4.9107,-4.9046,-4.9001,-4.9001,-4.9001,-4.9001,-4.9001,-4.9001,-4.9001,-4.9001,-4.9001,-4.9001,-4.9001,-4.9001,-4.9001,-4.9001,-4.9001,-4.9001,-4.9001,-4.9001,-4.9001,-4.9001,-4.9001,-4.9001,-4.9001,-4.9001,-4.9001,-4.9001,-4.9001,-4.9001,-4.9712,-5.0084,-5.0084,-5.1471,-5.2232,-5.23,-5.3044,-5.3433,-5.3501,-5.3501,-5.3856,-2.9317,-3.0076,-3.0982,-3.1886,-3.2215,-3.2406,-3.2696,0.0,-3.272,-3.288,-3.3255,-3.3606,-3.3762,-3.4186,-3.5136,-3.7007,-3.7853,-3.9261,-4.2112,0.0,0.0,0.0,-4.578,0.0,0.0,0.0,-4.9196,-5.1086,-5.1097,-5.091,-5.0673,-5.0631,-5.0558,-5.0412,-5.0012,-4.9703,-4.9367,-4.9553,-4.9676,-4.9824,-5.0951,-5.124,-5.0839,-5.1628,-5.1738,-5.1279,-5.1279,-5.1463,-5.1775,-5.1775,-5.205,-5.2472,-5.2472,-5.2498,-5.2554,-5.2554,-5.2083,-5.1494,-5.1494,-5.1343,-5.1086,-5.1086,-5.0981,-5.0858,-5.0858,-5.0662,-5.0297,-4.9656,-4.9436,-4.9376,-4.9046,-4.9001,-4.9001,-4.9001,-4.9001,-4.9001,-4.9001,-4.9001,-4.9001,-4.9001,-4.9001,-4.9001,-4.9001,-4.9001,-4.9001,-4.9001,-4.9001,-4.9001,-4.9001,-4.9001,-4.9001,-4.9001,-4.9001,-4.9001,-4.9001,-4.9001,-4.9001,-4.9001,-4.9001,-4.9001,-4.9001,-5.0135,-5.076,-5.076,-5.2249,-5.3027,-5.3027,-5.3348,-5.3501,-5.3518,-5.3957,-5.4313,-3.0435,-3.1287,-3.2173,-3.3008,-3.2935,-3.2807,0.0,-3.2904,-3.2648,-3.3105,-3.3522,-3.3815,-3.3902,-3.4068,-3.4777,-3.6509,-3.73,-3.8652,-4.1361,-4.2923,0.0,0.0,0.0,-4.6922,-4.8541,-4.9061,-4.9759,-5.084,-5.0798,-5.0554,-5.0144,-4.9967,-4.989,-4.9924,-4.9532,-4.9171,-4.8897,-4.9039,-4.9252,-4.9591,-5.0417,-5.0802,-5.082,-5.1389,-5.1334,-5.0802,-5.0802,-5.0802,-5.0802,-5.0802,-5.1261,-5.1958,-5.1517,-5.1645,-5.2029,-5.1652,-5.1197,-5.077,-5.077,-5.0608,-5.0462,-5.0462,-5.0146,-4.9722,-4.9722,-4.9722,-4.9622,-4.9107,-4.9001,-4.9001,-4.9001,-4.9001,-4.9001,-4.9001,-4.9001,-4.9001,-4.9001,-4.9001,-4.9001,-4.9001,-4.9001,-4.9001,-4.9001,-4.9001,-4.9001,-4.9001,-4.9001,-4.9001,-4.9001,-4.9001,-4.9001,-4.9001,-4.9001,-4.9001,-4.9001,-4.9001,-4.9001,-4.9001,-4.9001,-4.9103,-4.9323,-5.0541,-5.1319,-5.1539,-5.2841,-5.3501,-5.3501,-5.3501,-5.3501,-5.3518,-5.4245,-5.482,-3.1332,-3.2392,-3.3735,-3.4431,-3.3996,-3.3515,-3.3968,-3.3264,-3.2648,-3.3105,-3.3522,-3.3876,-3.4147,-3.42,-3.4697,-3.6255,-3.7186,-3.8782,-4.1851,-4.3663,0.0,0.0,0.0,-4.7586,-4.8594,-5.0188,-5.0996,-5.0553,-5.0369,-5.0136,-4.9714,-4.9183,-4.9075,-4.9475,-4.9108,-4.8897,-4.8897,-4.9362,-4.9612,-4.9591,-5.0417,-5.0802,-5.0802,-5.082,-5.082,-5.0802,-5.0802,-5.0802,-5.0802,-5.0802,-5.1261,-5.1862,-5.0377,-5.0769,-5.191,-5.0556,-5.003,-5.0033,-5.0033,-4.9563,-4.9001,-4.9001,-4.9001,-4.9001,-4.9001,-4.9001,-4.9001,-4.9001,-4.9001,-4.9001,-4.9001,-4.9001,-4.9001,-4.9001,-4.9001,-4.9001,-4.9001,-4.9001,-4.9001,-4.9001,-4.9001,-4.9001,-4.9001,-4.9001,-4.9001,-4.9001,-4.9001,-4.9001,-4.9001,-4.9001,-4.9001,-4.9001,-4.9001,-4.9001,-4.9001,-4.9001,-4.9001,-4.9001,-4.9001,-4.9323,-5.005,-5.0811,-5.1555,-5.2283,-5.3095,-5.3501,-5.3501,-5.3501,-5.3501,-5.3518,-5.4245,-5.5378,-3.1426,-3.2428,-3.3451,-3.3165,-3.3119,-3.3252,-3.3649,-3.3344,-3.3105,-3.3522,-3.3858,-3.4099,-3.4176,-3.4553,-3.5552,-3.7833,-3.8585,-3.9835,0.0,0.0,0.0,-4.5992,-4.7871,-4.9174,0.0,-5.0086,-5.0474,-5.0253,-4.9936,-4.9577,-4.9179,-4.8986,-4.8963,-4.9075,-4.8692,-4.8477,-4.8477,-4.864,-4.871,-4.8728,-4.9554,-4.9976,-4.9976,-4.9921,-4.9939,-4.9939,-4.9352,-4.9095,-4.9095,-4.9095,-4.9336,-4.9615,-4.9151,-4.9043,-4.9117,-4.868,-4.819,-4.7783,-4.7783,-4.7699,-4.7581,-4.8088,-4.8257,-4.8359,-4.8849,-4.9001,-4.9001,-4.9001,-4.9001,-4.9001,-4.9001,-4.9001,-4.9001,-4.9001,-4.9001,-4.9001,-4.9001,-4.9001,-4.9001,-4.9001,-4.9001,-4.9001,-4.9001,-4.9001,-4.9001,-4.9001,-4.9001,-4.9001,-4.9001,-4.9001,-4.9001,-4.9001,-4.9001,-4.9001,-4.9001,-4.9001,-4.9001,-4.9001,-4.9001,-4.9103,-4.934,-5.0541,-5.1319,-5.1555,-5.2841,-5.3501,-5.3501,-5.3501,-5.4025,-5.504,-5.5767,-5.6613,0.0,-3.2411,-3.3073,-3.3054,-3.3031,-3.3134,-3.3736,-3.3508,-3.3343,-3.3858,-3.4074,-3.4269,-3.4492,-3.487,-3.5812,-3.7865,-3.8633,0.0,0.0,0.0,0.0,-4.641,0.0,0.0,-4.9384,-4.994,-5.0119,-4.9664,-4.9416,-4.9075,-4.8692,-4.8657,-4.8657,-4.8657,-4.8421,-4.8306,-4.8306,-4.8306,-4.8306,-4.8324,-4.8838,-4.9095,-4.9095,-4.9058,-4.9058,-4.9077,-4.8545,-4.8172,0.0,-4.7977,-4.8085,-4.8227,-4.7629,-4.7583,-4.7746,-4.7214,-4.6885,-4.6786,-4.6786,-4.6786,-4.687,-4.7344,-4.7496,-4.7581,-4.8037,-4.8562,-4.8951,-4.8663,-4.8798,-4.9001,-4.9001,-4.9001,-4.9001,-4.9001,-4.9001,-4.9001,-4.9001,-4.9001,-4.9001,-4.9001,-4.9001,-4.9001,-4.9001,-4.9001,-4.9001,-4.9001,-4.9001,-4.9001,-4.9001,-4.9001,-4.9001,-4.9001,-4.9001,-4.9001,-4.9001,-4.9001,-4.9001,-4.9001,-4.9001,-4.912,-4.9407,-5.0574,-5.1352,-5.1623,-5.2858,-5.3501,-5.3501,-5.3788,-5.4532,-5.5733,-5.6461,-5.7205,0.0,-3.2375,-3.275,-3.3756,-3.3491,-3.3229,-3.4046,-3.3707,0.0,-3.4031,-3.4218,-3.4423,-3.5038,-3.5205,-3.5656,-3.6964,-3.7834,0.0,0.0,0.0,0.0,0.0,-4.8735,-4.9491,-4.9028,-4.972,-4.9835,-4.8982,-4.8863,-4.8674,-4.8306,-4.8306,-4.8306,-4.8306,-4.8306,-4.8306,-4.8306,-4.8306,-4.8306,-4.8306,-4.8306,-4.8306,-4.8306,-4.8306,-4.8306,-4.8306,-4.8306,-4.7937,-4.7385,-4.7385,-4.7465,-4.7395,-4.6028,-4.6377,-4.743,-4.6107,-4.6058,-4.6633,-4.6633,-4.6633,-4.6633,-4.6701,-4.6786,-4.6853,-4.6752,-4.775,-4.8781,-4.8037,-4.8392,-4.8984,-4.8934,-4.8968,-4.9001,-4.9001,-4.9001,-4.9001,-4.9001,-4.9001,-4.9001,-4.9001,-4.9001,-4.9001,-4.9001,-4.9001,-4.9001,-4.9001,-4.9001,-4.9001,-4.9001,-4.9001,-4.9001,-4.9001,-4.9001,-4.9001,-4.9001,-4.9001,-4.9001,-4.9001,-4.9001,-4.9306,-4.9982,-5.0794,-5.1539,-5.2215,-5.3061,-5.3501,-5.3501,-5.4228,-5.4972,-5.5733,-5.6461,-5.7205,-3.1377,0.0,-3.326,-3.2932,-3.3042,-3.3208,0.0,-3.3564,-3.3689,0.0,0.0,-3.4802,-3.5568,-3.5598,-3.6415,-3.9185,0.0,0.0,0.0,0.0,0.0,-4.7274,-4.9054,-4.9926,-4.8938,-4.9089,-4.9132,-4.893,-4.8586,-4.8383,-4.8306,-4.8306,-4.8306,-4.8306,-4.8306,-4.8306,-4.8306,-4.8306,-4.8306,-4.8306,-4.8306,-4.8306,-4.8306,-4.8306,-4.8306,-4.8306,-4.8306,-4.7937,-4.7385,-4.7385,-4.6835,-4.5993,-4.5632,-4.5438,-4.5324,-4.5004,-4.4959,-4.5111,-4.5111,-4.5111,-4.5196,-4.5771,-4.6735,-4.7445,-4.6312,-4.7005,-4.802,-4.7276,-4.8003,-4.8883,-4.8308,-4.8595,-4.9001,-4.9001,-4.9001,-4.9001,-4.9001,-4.9001,-4.9001,-4.9001,-4.9001,-4.9001,-4.9001,-4.9001,-4.9001,-4.9001,-4.9001,-4.9001,-4.9001,-4.9001,-4.9001,-4.9001,-4.9001,-4.9001,-4.9001,-4.9001,-4.9001,-4.9001,-4.9001,-4.9086,-4.9255,-5.0524,-5.1302,-5.1471,-5.2807,-5.3501,-5.3501,-5.4228,-5.4972,-5.5733,-5.6461,-5.7205,-3.0493,-3.1497,-3.2588,-3.2763,-3.3014,-3.3243,-3.3419,0.0,0.0,0.0,0.0,0.0,-3.5439,-3.5895,0.0,0.0,-3.9765,0.0,0.0,0.0,-4.7689,-4.7701,-4.8756,-4.9391,-4.9155,-4.9002,-4.8829,-4.8621,-4.8421,-4.8306,-4.8306,-4.8306,-4.8306,-4.8306,-4.8306,-4.8306,-4.8306,-4.8306,-4.8306,-4.8306,-4.8306,-4.8306,-4.8306,-4.8035,-4.8035,-4.8306,-4.7995,-4.753,-4.6955,-4.6955,-4.6209,-4.5089,-4.5089,-4.4906,-4.4587,-4.4587,-4.4587,-4.4587,-4.4587,-4.4807,-4.5162,-4.5568,-4.6481,-4.7192,-4.6041,-4.6498,-4.7242,-4.6498,-4.7361,-4.8409,-4.802,-4.846,-4.9001,-4.9001,-4.9001,-4.9001,-4.9001,-4.9001,-4.9001,-4.9001,-4.9001,-4.9001,-4.9001,-4.9001,-4.9001,-4.9001,-4.9001,-4.9001,-4.9001,-4.9001,-4.9001,-4.9001,-4.9001,-4.9001,-4.9001,-4.9001,-4.9001,-4.9001,-4.9001,-4.9001,-4.9001,-5.0439,-5.1539,-5.2249,-5.3078,-5.3501,-5.3501,-5.4228,-5.4972,-5.5733,-5.6461,-5.7205,-2.998,-3.0578,-3.1599,-3.2857,-3.3252,-3.3393,-3.3623,0.0,0.0,0.0,0.0,0.0,0.0,0.0,0.0,0.0,0.0,0.0,-4.42,-4.5728,-4.6965,-4.7894,-4.8251,-4.8622,-4.916,-4.8987,-4.8657,-4.8344,-4.8306,-4.8306,-4.8306,-4.8306,-4.8306,-4.8306,-4.8306,-4.8306,-4.8306,-4.8306,-4.8306,-4.8306,-4.8306,-4.8267,-4.8172,-4.7614,-4.7614,-4.7977,-4.747,-4.6864,-4.624,-4.624,-4.5597,-4.4587,-4.4587,-4.4587,-4.4587,-4.4587,-4.4587,-4.4604,-4.4705,-4.5314,-4.6024,-4.5906,-4.6363,-4.6819,-4.6092,-4.6295,-4.6667,-4.6041,-4.687,-4.7919,-4.7919,-4.846,-4.9001,-4.9001,-4.9001,-4.9001,-4.9001,-4.9001,-4.9001,-4.9001,-4.9001,-4.9001,-4.9001,-4.9001,-4.9001,-4.9001,-4.9001,-4.9001,-4.9001,-4.9001,-4.9001,-4.9001,-4.9001,-4.9001,-4.9001,-4.9001,-4.9001,-4.9001,-4.9001,-4.9103,-4.934,-5.0557,-5.1944,-5.3467,-5.3501,-5.3501,-5.3501,-5.4126,-5.4871,-5.5733,-5.6342,-5.7087,-3.0778,-3.1265,-3.1657,-3.276,-3.3555,-3.387,-3.325,0.0,0.0,0.0,0.0,0.0,0.0,0.0,0.0,0.0,0.0,-4.3733,0.0,0.0,-4.7015,-4.6796,-4.8097,-4.8731,-4.8035,-4.8216,-4.8364,-4.8306,-4.8306,-4.8306,-4.8306,-4.8306,-4.8306,-4.8306,-4.8306,-4.8306,-4.8306,-4.8306,-4.8306,-4.8306,-4.8306,-4.8035,-4.753,-4.7428,-4.715,-4.671,-4.6618,-4.6192,-4.5648,-4.5648,-4.5232,-4.4587,-4.4587,-4.4587,-4.4587,-4.4587,-4.4587,-4.4671,-4.5314,-4.643,-4.7479,-4.6836,-4.7141,-4.7597,-4.6853,-4.6701,-4.6769,-4.665,-4.7242,-4.7919,-4.7919,-4.846,-4.9001,-4.9001,-4.9001,-4.9001,-4.9001,-4.9001,-4.9001,-4.9001,-4.9001,-4.9001,-4.9001,-4.9001,-4.9001,-4.9001,-4.9001,-4.9001,-4.9001,-4.9001,-4.9001,-4.9001,-4.9001,-4.9001,-4.9001,-4.9001,-4.9001,-4.9001,-4.9001,-4.956,-5.0828,-5.1099,-5.1944,-5.3467,-5.3501,-5.3501,-5.3501,-5.3619,-5.438,-5.5716,-5.5835,-5.6613,-3.043,-3.1072,-3.1667,-3.2734,-3.3604,-3.4153,-3.3955,0.0,0.0,0.0,0.0,0.0,0.0,0.0,-3.9983,-4.2656,0.0,-4.4285,-4.5107,-4.5718,-4.6449,-4.7311,-4.7768,-4.8126,-4.8327,-4.831,-4.8306,-4.8306,-4.8306,-4.8306,-4.8306,-4.8306,-4.8306,-4.8306,-4.8306,-4.8306,-4.8306,-4.7995,-4.7995,-4.8306,-4.7977,-4.7656,-4.7385,-4.6682,-4.6383,-4.6383,-4.6063,-4.5732,-4.5511,-4.5511,-4.5125,-4.4587,-4.4587,-4.4587,-4.4587,-4.4587,-4.484,-4.5229,-4.5585,-4.6684,-4.7851,-4.7513,-4.7902,-4.8376,-4.7631,-4.7394,-4.7394,-4.7394,-4.7648,-4.7919,-4.7919,-4.846,-4.9001,-4.9001,-4.9001,-4.9001,-4.9001,-4.9001,-4.9001,-4.9001,-4.9001,-4.9001,-4.9001,-4.9001,-4.9001,-4.9001,-4.9001,-4.9001,-4.9001,-4.9001,-4.9001,-4.9001,-4.9001,-4.9001,-4.9001,-4.9001,-4.9001,-4.9001,-4.9373,-5.0084,-5.1166,-5.1589,-5.2334,-5.3484,-5.3501,-5.3501,-5.3501,-5.3501,-5.4262,-5.5716,-5.5716,-5.6494,-3.0341,-3.1059,-3.1869,-3.3156,0.0,-3.4379,-3.4634,0.0,0.0,0.0,0.0,0.0,0.0,-3.9518,0.0,-4.3444,-4.3961,-4.455,-4.5647,-4.5548,-4.6047,-4.7867,-4.767,-4.774,-4.8653,-4.8477,-4.8306,-4.8306,-4.8306,-4.8306,-4.8306,-4.8306,-4.8306,-4.8306,-4.8306,-4.821,-4.8075,-4.7614,-4.7614,-4.8075,-4.747,-4.7106,-4.691,-4.5933,-4.5699,-4.5965,-4.5511,-4.5267,-4.5267,-4.5267,-4.4998,-4.4587,-4.4587,-4.4587,-4.4604,-4.4773,-4.5314,-4.5991,-4.6177,-4.7073,-4.8173,-4.8173,-4.8545,-4.89,-4.8342,-4.8173,-4.8173,-4.8173,-4.8173,-4.8173,-4.8173,-4.8595,-4.9001,-4.9001,-4.9001,-4.9001,-4.9001,-4.9001,-4.9001,-4.9001,-4.9001,-4.9001,-4.9001,-4.9001,-4.9001,-4.9001,-4.9001,-4.9001,-4.9001,-4.9001,-4.9001,-4.9001,-4.9001,-4.9069,-4.9238,-4.9424,-4.9526,-4.9526,-4.9881,-5.0507,-5.1437,-5.2012,-5.2689,-5.3484,-5.3501,-5.3501,-5.3501,-5.3501,-5.4262,-5.5716,-5.5716,-5.6494,-3.1414,-3.1807,-3.2446,-3.4453,-3.4813,0.0,-3.4696,-3.5571,0.0,-3.6366,0.0,0.0,0.0,-4.1308,-4.2982,-4.2814,-4.3857,-4.4909,-4.5695,-4.5839,-4.6319,-4.7597,-4.8015,-4.8251,-4.8326,-4.8306,-4.8306,-4.8306,-4.8306,-4.8306,-4.8306,-4.8306,-4.8306,-4.8306,-4.8306,-4.8035,-4.747,-4.7428,-4.7428,-4.747,-4.6801,-4.6192,-4.5648,-4.5545,-4.5232,-4.472,-4.4665,-4.4682,-4.4682,-4.4682,-4.4626,-4.4587,-4.4587,-4.4587,-4.4654,-4.5365,-4.6092,-4.6819,-4.7513,-4.8274,-4.8934,-4.8934,-4.8968,-4.8984,-4.8951,-4.8934,-4.8934,-4.8934,-4.8934,-4.8934,-4.8934,-4.8968,-4.9001,-4.9001,-4.9001,-4.9001,-4.9001,-4.9001,-4.9001,-4.9001,-4.9001,-4.9001,-4.9001,-4.9001,-4.9001,-4.9001,-4.9001,-4.9001,-4.9001,-4.9001,-4.9001,-4.9001,-4.9001,-4.9272,-4.9949,-5.0659,-5.1065,-5.1065,-5.0439,-5.0727,-5.2164,-5.2266,-5.2689,-5.3484,-5.3501,-5.3501,-5.3501,-5.3501,-5.4262,-5.5716,-5.5716,-5.6494,-3.1673,-3.2512,-3.3294,-3.4597,0.0,0.0,0.0,-3.6428,-3.6919,-3.7495,-3.8336,0.0,0.0,0.0,-4.2757,-4.3512,-4.4002,-4.4456,-4.5032,-4.5563,-4.6268,-4.7204,-4.7923,-4.8306,-4.8306,-4.8306,-4.8306,-4.8306,-4.8306,-4.8132,-4.7756,-4.7756,-4.7554,-4.7132,-4.7132,-4.6999,-4.6756,-4.6401,-4.6209,-4.6209,-4.5965,-4.5732,-4.5511,-4.5089,-4.4814,-4.4587,-4.4587,-4.4587,-4.4587,-4.4587,-4.4587,-4.4587,-4.4587,-4.4587,-4.4671,-4.5432,-4.616,-4.6904,-4.7648,-4.8392,-4.9001,-4.9001,-4.9001,-4.9001,-4.9001,-4.9001,-4.9001,-4.9001,-4.9001,-4.9001,-4.9001,-4.9001,-4.9001,-4.9001,-4.9001,-4.9001,-4.9001,-4.9001,-4.9001,-4.9001,-4.9001,-4.9001,-4.9001,-4.9001,-4.9001,-4.9001,-4.939,-4.9678,-4.9678,-5.0084,-5.0388,-5.0388,-5.0388,-5.049,-5.076,-5.1048,-5.142,-5.186,-5.1623,-5.1725,-5.2283,-5.279,-5.3196,-5.3501,-5.3501,-5.3501,-5.3501,-5.3501,-5.4262,-5.5716,-5.5716,-5.6494,-3.2013,-3.307,-3.4107,0.0,0.0,0.0,-3.7532,-3.7483,-3.7645,-3.8822,-3.9447,-4.0376,-4.2327,0.0,0.0,0.0,-4.3886,-4.4159,-4.4651,-4.5388,-4.6195,-4.7021,-4.7829,-4.8306,-4.8306,-4.8306,-4.821,-4.8035,-4.8035,-4.7756,-4.7106,-4.7088,-4.6847,-4.6413,-4.6383,-4.6336,-4.6112,-4.5681,-4.5407,-4.5232,-4.5232,-4.5232,-4.5178,-4.4759,-4.4587,-4.4587,-4.4587,-4.4587,-4.4587,-4.4587,-4.4587,-4.4587,-4.4587,-4.4587,-4.4705,-4.5686,-4.6363,-4.6938,-4.7919,-4.8595,-4.9001,-4.9001,-4.9001,-4.9001,-4.9001,-4.9001,-4.9001,-4.9001,-4.9001,-4.9001,-4.9001,-4.9001,-4.9001,-4.9001,-4.9001,-4.9001,-4.9001,-4.9001,-4.9001,-4.9001,-4.9001,-4.9001,-4.9001,-4.9001,-4.9086,-4.9306,-4.9779,-5.0168,-5.0422,-5.0896,-5.1217,-5.1217,-5.142,-5.1555,-5.1555,-5.1792,-5.2147,-5.2655,-5.2689,-5.2689,-5.2689,-5.3213,-5.3501,-5.3501,-5.3501,-5.3501,-5.3501,-5.3501,-5.4262,-5.5716,-5.5716,-5.6494,-3.2642,-3.3487,0.0,0.0,0.0,0.0,-3.9032,-3.8785,-3.8684,-4.035,-4.0442,-4.0628,-4.1958,-4.2149,0.0,-4.2731,-4.3483,-4.4159,-4.4632,-4.5388,-4.6195,-4.7003,-4.781,-4.8306,-4.8306,-4.8306,-4.8035,-4.7428,-4.7385,-4.7106,-4.643,-4.6383,-4.6383,-4.6383,-4.6383,-4.6112,-4.5511,-4.5511,-4.5178,-4.4587,-4.4587,-4.4587,-4.4587,-4.4587,-4.4587,-4.4587,-4.4587,-4.4587,-4.4587,-4.4643,-4.4643,-4.4587,-4.4643,-4.4643,-4.4773,-4.6244,-4.6786,-4.7005,-4.8494,-4.9001,-4.9001,-4.9001,-4.9001,-4.9001,-4.9001,-4.9001,-4.9001,-4.9001,-4.9001,-4.9001,-4.9001,-4.9001,-4.9001,-4.9001,-4.9001,-4.9001,-4.9001,-4.9001,-4.9001,-4.9001,-4.9001,-4.9001,-4.9001,-4.9018,-4.9255,-4.9982,-5.0101,-5.0388,-5.115,-5.1234,-5.1234,-5.1234,-5.1894,-5.2317,-5.2317,-5.3044,-5.3501,-5.3501,-5.3501,-5.3501,-5.3501,-5.3501,-5.3501,-5.3501,-5.3501,-5.3501,-5.3501,-5.3501,-5.4262,-5.5716,-5.5716,-5.6494,-3.2752,0.0,0.0,0.0,0.0,0.0,0.0,-3.9004,0.0,0.0,-4.1003,-4.1472,-4.2443,-4.2396,-4.2464,-4.3185,-4.3498,-4.3704,-4.3844,-4.5039,-4.5993,-4.6232,-4.748,-4.8306,-4.8306,-4.7937,-4.7572,-4.7428,-4.6955,-4.643,-4.5783,-4.5783,-4.5545,-4.5142,-4.5125,-4.5052,-4.4852,-4.4869,-4.4776,-4.4587,-4.4587,-4.4587,-4.4587,-4.4587,-4.4587,-4.4587,-4.4587,-4.4587,-4.4626,-4.5035,-4.4998,-4.4626,-4.5089,-4.5268,-4.5483,-4.6447,-4.7124,-4.7716,-4.868,-4.9001,-4.9001,-4.9001,-4.9001,-4.9001,-4.9001,-4.9001,-4.9001,-4.9001,-4.9001,-4.9001,-4.9001,-4.9001,-4.9001,-4.9001,-4.9001,-4.9001,-4.9001,-4.9001,-4.9001,-4.9001,-4.9001,-4.9001,-4.9001,-4.9424,-4.9847,-5.005,-5.098,-5.1928,-5.2723,-5.2824,-5.2824,-5.2824,-5.301,-5.3145,-5.3145,-5.3365,-5.3501,-5.3501,-5.3501,-5.3501,-5.3501,-5.3501,-5.3501,-5.3501,-5.3501,-5.3501,-5.3501,-5.3501,-5.4262,-5.5716,-5.5716,-5.6494,-3.3475,0.0,0.0,0.0,0.0,0.0,0.0,0.0,0.0,0.0,-4.1353,-4.188,-4.2897,-4.2654,-4.2561,-4.3369,-4.3497,-4.3497,-4.3497,-4.4892,-4.5902,-4.5902,-4.7315,-4.821,-4.7977,-4.7614,-4.7194,-4.6682,-4.624,-4.5783,-4.5178,-4.5125,-4.4998,-4.4626,-4.4587,-4.4587,-4.4587,-4.4587,-4.4587,-4.4587,-4.4587,-4.4587,-4.4587,-4.4587,-4.4587,-4.4626,-4.4852,-4.4961,-4.4998,-4.5597,-4.5511,-4.4998,-4.5372,-4.556,-4.5708,-4.6513,-4.7073,-4.7614,-4.8646,-4.9001,-4.9001,-4.9001,-4.9001,-4.9001,-4.9001,-4.9001,-4.9001,-4.9001,-4.9001,-4.9001,-4.9001,-4.9001,-4.9001,-4.9001,-4.9001,-4.9001,-4.9001,-4.9001,-4.9001,-4.9001,-4.9238,-4.9441,-4.9441,-5.005,-5.0642,-5.093,-5.1995,-5.2959,-5.345,-5.3501,-5.3501,-5.3501,-5.3501,-5.3501,-5.3501,-5.3501,-5.3501,-5.3501,-5.3501,-5.3501,-5.3501,-5.3501,-5.3501,-5.3501,-5.3501,-5.3501,-5.3501,-5.3501,-5.411,-5.526,-5.526,-5.6055,-3.4595,0.0,0.0,0.0,0.0,0.0,0.0,0.0,-4.148,-4.1614,0.0,-4.2143,-4.3272,-4.2892,-4.2653,-4.3369,-4.3497,-4.3497,-4.3497,-4.4819,-4.581,-4.5883,-4.7222,-4.7904,-4.7428,-4.7299,-4.6692,-4.5493,-4.5356,-4.5075,-4.4524,-4.4468,-4.4502,-4.4587,-4.4587,-4.4587,-4.4587,-4.4587,-4.4587,-4.4587,-4.4587,-4.4587,-4.4587,-4.4587,-4.4587,-4.4626,-4.5232,-4.5511,-4.5545,-4.6192,-4.6143,-4.5597,-4.5648,-4.5631,-4.5684,-4.6556,-4.6878,-4.709,-4.8511,-4.9001,-4.9001,-4.9001,-4.9001,-4.9001,-4.9001,-4.9001,-4.9001,-4.9001,-4.9001,-4.9001,-4.9001,-4.9001,-4.9001,-4.9001,-4.9001,-4.9018,-4.9086,-4.9103,-4.912,-4.9187,-4.9729,-5.0185,-5.0185,-5.0811,-5.1555,-5.23,-5.3044,-5.3501,-5.3501,-5.3501,-5.3501,-5.3501,-5.3501,-5.3501,-5.3501,-5.3501,-5.3501,-5.3501,-5.3501,-5.3501,-5.3501,-5.3501,-5.3501,-5.3501,-5.3501,-5.3501,-5.3501,-5.3501,-5.3873,-5.4583,-5.4668,-5.5446,0.0,0.0,0.0,0.0,0.0,0.0,0.0,0.0,-4.2416,-4.2184,-4.264,-4.3177,-4.3458,-4.3351,-4.3296,-4.3461,-4.3497,-4.3497,-4.3497,-4.4342,-4.5186,-4.581,-4.6327,-4.6843,-4.7373,-4.6495,-4.5538,-4.4696,-4.4127,-4.3803,-4.3673,-4.3673,-4.3944,-4.4553,-4.4587,-4.4587,-4.4587,-4.4587,-4.4587,-4.4587,-4.4587,-4.4587,-4.4587,-4.4587,-4.4587,-4.4626,-4.5232,-4.5511,-4.5597,-4.6728,-4.6819,-4.624,-4.6774,-4.6707,-4.6446,-4.7217,-4.7557,-4.78,-4.8697,-4.9001,-4.9001,-4.9001,-4.9001,-4.9001,-4.9001,-4.9001,-4.9001,-4.9001,-4.9001,-4.9001,-4.9001,-4.9001,-4.9001,-4.9001,-4.9001,-4.9171,-4.9729,-4.9847,-5.0033,-5.0625,-5.0862,-5.098,-5.098,-5.1589,-5.2334,-5.3129,-5.3399,-5.3501,-5.3501,-5.3501,-5.3501,-5.3501,-5.3501,-5.3501,-5.3501,-5.3501,-5.3501,-5.3501,-5.3501,-5.3501,-5.3501,-5.3501,-5.3501,-5.3501,-5.3501,-5.3501,-5.3501,-5.3501,-5.3873,-5.46,-5.5192,-5.5953,0.0,0.0,0.0,0.0,0.0,0.0,0.0,-4.1638,-4.2641,-4.2815,-4.3204,-4.3497,-4.3497,-4.3497,-4.3497,-4.3497,-4.3497,-4.3497,-4.3497,-4.4195,-4.4876,-4.5419,-4.5906,-4.6144,-4.5985,-4.5373,-4.4543,-4.3494,-4.3059,-4.2878,-4.2878,-4.2878,-4.3064,-4.347,-4.3842,-4.3842,-4.3487,-4.4215,-4.4401,-4.4028,-4.4736,-4.5178,-4.5459,-4.5178,-4.5372,-4.5933,-4.6257,-4.6401,-4.6495,-4.7428,-4.747,-4.691,-4.7237,-4.7023,-4.6547,-4.7038,-4.7266,-4.7479,-4.8223,-4.8714,-4.9001,-4.9001,-4.9001,-4.9001,-4.9001,-4.9001,-4.9001,-4.9001,-4.9001,-4.9001,-4.9001,-4.9001,-4.9001,-4.9001,-4.9001,-4.9204,-4.9932,-5.0084,-5.0321,-5.1065,-5.1505,-5.1742,-5.1742,-5.2367,-5.3027,-5.345,-5.3501,-5.3501,-5.3501,-5.3501,-5.3501,-5.3501,-5.3501,-5.3501,-5.3501,-5.3501,-5.3501,-5.3501,-5.3501,-5.3501,-5.3501,-5.3501,-5.3501,-5.3501,-5.3501,-5.3501,-5.3501,-5.3501,-5.3704,-5.4093,-5.4837,-5.5581,0.0,0.0,0.0,0.0,0.0,0.0,0.0,-4.1937,-4.269,-4.3351,-4.3497,-4.3497,-4.3497,-4.3497,-4.3497,-4.3497,-4.3497,-4.3497,-4.3497,-4.3996,-4.4454,-4.4773,-4.5234,-4.5125,-4.4292,-4.4127,-4.3512,-4.2204,-4.21,-4.21,-4.21,-4.21,-4.2168,-4.2286,-4.2895,-4.2929,-4.2303,-4.3647,-4.4075,-4.3566,-4.4993,-4.5965,-4.6571,-4.6063,-4.6353,-4.7237,-4.7342,-4.7385,-4.7446,-4.8035,-4.7995,-4.753,-4.7428,-4.6999,-4.6424,-4.6534,-4.658,-4.6718,-4.7614,-4.8308,-4.8832,-4.8968,-4.9001,-4.9001,-4.9001,-4.9001,-4.9001,-4.9001,-4.9001,-4.9001,-4.9001,-4.9001,-4.9035,-4.9171,-4.9187,-4.939,-5.0118,-5.0388,-5.0693,-5.1454,-5.2097,-5.252,-5.252,-5.3061,-5.3501,-5.3501,-5.3501,-5.3501,-5.3501,-5.3501,-5.3501,-5.3501,-5.3501,-5.3501,-5.3501,-5.3501,-5.3501,-5.3501,-5.3501,-5.3501,-5.3501,-5.3501,-5.3501,-5.3501,-5.3501,-5.3501,-5.3501,-5.3501,-5.3501,-5.3518,-5.4397,-5.5124,0.0,0.0,0.0,0.0,0.0,0.0,0.0,0.0,-4.3369,0.0,-4.3497,-4.3497,-4.3497,-4.3497,-4.3497,-4.3497,-4.3497,-4.3497,-4.3497,-4.3196,-4.324,-4.3978,-4.32,-4.2862,-4.3377,-4.2912,-4.2223,-4.1407,-4.1356,-4.1356,-4.1356,-4.1356,-4.1644,-4.2269,-4.2388,-4.2388,-4.2286,-4.3014,-4.368,-4.4267,-4.5628,-4.6618,-4.7237,-4.7194,-4.691,-4.6571,-4.715,-4.7385,-4.7446,-4.8035,-4.8267,-4.8132,-4.7614,-4.6999,-4.6424,-4.6534,-4.6272,-4.6041,-4.7445,-4.7986,-4.8173,-4.8798,-4.9001,-4.9001,-4.9001,-4.9001,-4.9001,-4.9001,-4.9001,-4.9001,-4.9001,-4.9001,-4.9171,-4.9796,-4.9949,-5.0152,-5.0896,-5.1572,-5.2249,-5.3044,-5.3281,-5.3348,-5.3348,-5.3433,-5.3501,-5.3501,-5.3501,-5.3501,-5.3501,-5.3501,-5.3501,-5.3501,-5.3501,-5.3501,-5.3501,-5.3501,-5.3501,-5.3501,-5.3501,-5.3501,-5.3501,-5.3501,-5.3501,-5.3501,-5.3501,-5.3501,-5.3501,-5.3501,-5.3501,-5.3534,-5.4921,-5.5632,-3.6727,-3.822,0.0,0.0,0.0,0.0,0.0,0.0,-4.3497,-4.3497,-4.3497,-4.3497,-4.3497,-4.3497,-4.3497,-4.3497,-4.325,-4.305,-4.305,-4.2559,-4.2383,-4.282,-4.2428,-4.2127,-4.2124,-4.1869,-4.1373,-4.0629,-4.0578,-4.0578,-4.0578,-4.0578,-4.0713,-4.1052,-4.1784,-4.1986,-4.1523,-4.2919,-4.4243,-4.5435,-4.6444,-4.7281,-4.7897,-4.7897,-4.7738,-4.7452,-4.7797,-4.7897,-4.7937,-4.8172,-4.8306,-4.8249,-4.7632,-4.6999,-4.6371,-4.6115,-4.5843,-4.5788,-4.6447,-4.7225,-4.797,-4.8291,-4.8663,-4.9001,-4.9001,-4.9001,-4.9001,-4.9001,-4.9001,-4.9001,-4.9001,-4.9001,-4.9086,-4.9407,-4.9796,-5.0287,-5.1048,-5.1792,-5.2536,-5.3348,-5.3501,-5.3501,-5.3501,-5.3501,-5.3501,-5.3501,-5.3501,-5.3501,-5.3501,-5.3501,-5.3501,-5.3501,-5.3501,-5.3501,-5.3501,-5.3501,-5.3501,-5.3501,-5.3501,-5.3501,-5.3501,-5.3501,-5.3501,-5.3501,-5.3501,-5.3501,-5.3501,-5.3501,-5.3501,-5.3551,-5.5023,-5.5716,-3.6691,-3.8023,-3.9264,0.0,0.0,0.0,0.0,0.0,-4.3497,0.0,-4.3497,-4.3497,-4.3497,-4.3497,-4.3463,-4.3339,-4.2976,-4.2655,-4.248,-4.1937,-4.163,-4.1799,-4.1695,-4.142,-4.0968,-4.0916,-4.0679,-4.0121,-4.007,-4.007,-4.007,-4.0254,-4.0286,-4.0286,-4.1432,-4.176,-4.1133,-4.3005,-4.461,-4.5816,-4.6853,-4.7547,-4.8012,-4.8214,-4.8306,-4.8306,-4.8306,-4.8306,-4.8306,-4.8306,-4.821,-4.8035,-4.7385,-4.6774,-4.6112,-4.5494,-4.5357,-4.5449,-4.5635,-4.6549,-4.7665,-4.7851,-4.8409,-4.9001,-4.9001,-4.9001,-4.9001,-4.9001,-4.9001,-4.9001,-4.9001,-4.9001,-4.9052,-4.9238,-4.983,-5.0574,-5.1336,-5.208,-5.279,-5.3382,-5.3501,-5.3501,-5.3501,-5.3501,-5.3501,-5.3501,-5.3501,-5.3501,-5.3501,-5.3501,-5.3501,-5.3501,-5.3501,-5.3501,-5.3501,-5.3501,-5.3501,-5.3501,-5.3501,-5.3501,-5.3501,-5.3501,-5.3501,-5.3501,-5.3501,-5.3501,-5.3501,-5.3501,-5.3501,-5.3534,-5.482,-5.553,-3.6341,-3.7322,0.0,0.0,0.0,0.0,0.0,0.0,-4.3497,-4.3497,-4.3497,-4.3497,-4.3497,-4.3497,-4.3321,-4.2808,-4.2711,-4.248,-4.1937,-4.1313,-4.0967,-4.0955,-4.0517,-4.0189,-4.0138,-4.0138,-4.0121,-4.007,-4.007,-4.007,-4.007,-4.0577,-4.0856,-4.0856,-4.1481,-4.1803,-4.175,-4.3189,-4.4209,-4.482,-4.6379,-4.713,-4.7205,-4.7957,-4.8306,-4.8306,-4.8306,-4.8306,-4.8306,-4.8306,-4.7977,-4.7385,-4.671,-4.6112,-4.5459,-4.4852,-4.466,-4.4739,-4.5466,-4.621,-4.6972,-4.7682,-4.8409,-4.9001,-4.9001,-4.9001,-4.9001,-4.9001,-4.9001,-4.9001,-4.9001,-4.9001,-4.9187,-4.9864,-5.0608,-5.1352,-5.208,-5.2875,-5.345,-5.3501,-5.3501,-5.3501,-5.3501,-5.3501,-5.3501,-5.3501,-5.3501,-5.3501,-5.3501,-5.3501,-5.3501,-5.3501,-5.3501,-5.3501,-5.3501,-5.3501,-5.3501,-5.3501,-5.3501,-5.3501,-5.3501,-5.3501,-5.3501,-5.3501,-5.3501,-5.3501,-5.3501,-5.3501,-5.3501,-5.3518,-5.4296,-5.5023,-3.5707,-3.6894,0.0,0.0,0.0,0.0,-4.2653,-4.313,-4.3497,-4.3497,-4.3497,-4.341,-4.305,-4.2976,-4.2939,-4.275,-4.2038,-4.149,-4.1251,-4.075,-4.0368,-4.0368,-4.0204,-4.007,-4.007,-4.007,-4.007,-4.007,-4.007,-4.0237,-4.0577,-4.078,-4.1087,-4.149,-4.2062,-4.2541,-4.2903,-4.3925,-4.4748,-4.548,-4.6599,-4.7388,-4.7884,-4.8177,-4.8306,-4.8267,-4.7897,-4.7715,-4.7715,-4.7715,-4.7324,-4.671,-4.6063,-4.5681,-4.5407,-4.4814,-4.4587,-4.4688,-4.5449,-4.6177,-4.6921,-4.7682,-4.8409,-4.9001,-4.9001,-4.9001,-4.9001,-4.9001,-4.9001,-4.9001,-4.9001,-4.9001,-4.9187,-4.9915,-5.1014,-5.1978,-5.2249,-5.2942,-5.3501,-5.3501,-5.3501,-5.3501,-5.3501,-5.3501,-5.3501,-5.3501,-5.3501,-5.3501,-5.3501,-5.3501,-5.3501,-5.3501,-5.3501,-5.3501,-5.3501,-5.3501,-5.3501,-5.3501,-5.3501,-5.3501,-5.3501,-5.3501,-5.3501,-5.3501,-5.3501,-5.3501,-5.3501,-5.3501,-5.3501,-5.3518,-5.4245,-5.4735,-3.5082,0.0,0.0,0.0,0.0,-4.1699,-4.2525,-4.291,-4.3114,-4.3195,-4.3214,-4.305,-4.2519,-4.2203,-4.208,-4.208,-4.1446,-4.0827,-4.0655,-4.0319,-4.007,-4.007,-4.007,-4.007,-4.007,-4.007,-4.007,-4.007,-4.0286,-4.0528,-4.0856,-4.1251,-4.1793,-4.2346,-4.2752,-4.3142,-4.3497,-4.403,-4.4562,-4.5112,-4.6195,-4.6985,-4.7498,-4.7774,-4.7915,-4.7977,-4.7301,-4.715,-4.7385,-4.715,-4.6664,-4.6063,-4.5648,-4.5372,-4.5142,-4.4776,-4.4587,-4.4654,-4.5162,-4.5974,-4.687,-4.7378,-4.8206,-4.9001,-4.9001,-4.9001,-4.9001,-4.9001,-4.9001,-4.9001,-4.9001,-4.9187,-4.961,-5.0591,-5.1589,-5.2367,-5.2638,-5.3129,-5.3501,-5.3501,-5.3501,-5.3501,-5.3501,-5.3501,-5.3501,-5.3501,-5.3501,-5.3501,-5.3501,-5.3501,-5.3501,-5.3501,-5.3501,-5.3501,-5.3501,-5.3501,-5.3501,-5.3501,-5.3501,-5.3501,-5.3501,-5.3501,-5.3501,-5.3501,-5.3501,-5.3501,-5.3501,-5.3501,-5.3501,-5.3518,-5.3991,-5.4346,0.0,0.0,0.0,0.0,0.0,0.0,-4.2837,0.0,-4.2333,-4.2609,-4.2657,-4.2444,-4.1895,-4.1296,-4.0903,-4.0856,-4.0856,-4.0703,-4.0154,-4.0104,-4.0104,-4.0104,-4.0104,-4.0104,-4.0104,-4.0087,-4.0138,-4.0121,-4.0625,-4.0903,-4.0949,-4.208,-4.2976,-4.3479,-4.3497,-4.3497,-4.3497,-4.3497,-4.3497,-4.3534,-4.5112,-4.5883,-4.592,-4.6709,-4.7171,-4.7313,-4.6531,-4.6639,-4.7299,-4.6618,-4.6014,-4.5459,-4.5459,-4.5142,-4.4587,-4.4587,-4.4587,-4.4587,-4.4604,-4.5568,-4.6786,-4.6819,-4.7817,-4.9001,-4.9001,-4.9001,-4.9001,-4.9001,-4.9001,-4.9018,-4.9035,-4.9593,-5.0524,-5.1961,-5.2317,-5.2553,-5.3331,-5.3501,-5.3501,-5.3501,-5.3501,-5.3501,-5.3501,-5.3501,-5.3501,-5.3501,-5.3501,-5.3501,-5.3501,-5.3501,-5.3501,-5.3501,-5.3501,-5.3501,-5.3501,-5.3501,-5.3501,-5.3501,-5.3501,-5.3501,-5.3501,-5.3501,-5.3501,-5.3501,-5.3501,-5.3501,-5.3501,-5.3501,-5.3501,-5.3501,-5.3518,-5.3923,-3.3862,0.0,0.0,0.0,0.0,0.0,-4.0598,0.0,-4.1035,-4.1648,-4.1465,-4.1239,-4.1163,-4.0995,-4.078,-4.0368,-4.0336,-4.0286,-4.0121,-4.0544,-4.0899,-4.0899,-4.0899,-4.0899,-4.0899,-4.0392,-4.0237,-4.0655,-4.0827,-4.1268,-4.2162,-4.2884,-4.3339,-4.3497,-4.3497,-4.3497,-4.3497,-4.3497,-4.3791,-4.4378,-4.4819,-4.5351,-4.592,-4.6291,-4.6481,-4.6513,-4.5941,-4.5839,-4.6032,-4.5833,-4.5407,-4.4869,-4.4869,-4.4776,-4.4587,-4.4587,-4.4587,-4.4654,-4.5213,-4.6007,-4.6887,-4.7428,-4.824,-4.9001,-4.9001,-4.9001,-4.9001,-4.9001,-4.9001,-4.912,-4.9661,-5.0727,-5.1792,-5.2198,-5.2739,-5.323,-5.345,-5.3501,-5.3501,-5.3501,-5.3501,-5.3501,-5.3501,-5.3501,-5.3501,-5.3501,-5.3501,-5.3501,-5.3501,-5.3501,-5.3501,-5.3501,-5.3501,-5.3501,-5.3501,-5.3501,-5.3501,-5.3501,-5.3501,-5.3501,-5.3501,-5.3501,-5.3501,-5.3501,-5.3501,-5.3501,-5.3501,-5.3501,-5.3501,-5.3518,-5.4042,-5.4397,-3.3587,-3.4394,-3.5192,-3.6083,0.0,0.0,-4.0065,-4.0338,-4.0508,-4.1375,-4.1162,-4.0779,-4.0586,-4.0577,-4.0449,-4.0171,-4.007,-4.007,-4.007,-4.046,-4.073,-4.073,-4.1018,-4.1204,-4.1204,-4.1035,-4.1091,-4.1375,-4.155,-4.2062,-4.2976,-4.3321,-4.3497,-4.3497,-4.3497,-4.3497,-4.3497,-4.3497,-4.3736,-4.4195,-4.4544,-4.4821,-4.5093,-4.5504,-4.5634,-4.5407,-4.512,-4.5027,-4.5125,-4.5125,-4.4906,-4.4587,-4.4587,-4.4587,-4.4587,-4.4587,-4.4587,-4.4637,-4.5077,-4.572,-4.6464,-4.7208,-4.7953,-4.8612,-4.8917,-4.9001,-4.9001,-4.9001,-4.9221,-4.9627,-5.0371,-5.142,-5.2384,-5.2723,-5.3162,-5.3501,-5.3501,-5.3501,-5.3501,-5.3501,-5.3501,-5.3501,-5.3501,-5.3501,-5.3501,-5.3501,-5.3501,-5.3501,-5.3501,-5.3501,-5.3501,-5.3501,-5.3501,-5.3501,-5.3501,-5.3501,-5.3501,-5.3501,-5.3501,-5.3501,-5.3501,-5.3501,-5.3501,-5.3501,-5.3501,-5.3501,-5.3501,-5.3501,-5.3501,-5.3518,-5.4245,-5.4583,-3.3587,-3.4321,-3.5082,-3.5988,-3.6758,0.0,-4.0156,-4.0219,-4.0065,-4.1102,-4.0874,-4.041,-3.9966,-3.9901,-3.9935,-3.9851,-3.9969,-4.007,-4.007,-4.0223,-4.0324,-4.0324,-4.1087,-4.1545,-4.1545,-4.2031,-4.2332,-4.2427,-4.2727,-4.3067,-4.3497,-4.3497,-4.3497,-4.3497,-4.3497,-4.3497,-4.3497,-4.3497,-4.3497,-4.3497,-4.4143,-4.429,-4.3902,-4.4538,-4.4644,-4.4368,-4.4337,-4.4436,-4.4587,-4.4587,-4.4587,-4.4587,-4.4587,-4.4587,-4.4587,-4.4587,-4.4587,-4.4587,-4.4587,-4.5077,-4.5821,-4.6549,-4.731,-4.8054,-4.8781,-4.9001,-4.9001,-4.9001,-4.9526,-5.027,-5.1014,-5.1758,-5.2503,-5.3315,-5.3501,-5.3501,-5.3501,-5.3501,-5.3501,-5.3501,-5.3501,-5.3501,-5.3501,-5.3501,-5.3501,-5.3501,-5.3501,-5.3501,-5.3501,-5.3501,-5.3501,-5.3501,-5.3501,-5.3501,-5.3501,-5.3501,-5.3501,-5.3501,-5.3501,-5.3501,-5.3501,-5.3501,-5.3501,-5.3501,-5.3501,-5.3501,-5.3501,-5.3501,-5.3551,-5.3653,-5.438,-5.4752,-3.3587,-3.3917,-3.4293,-3.5393,-3.577,0.0,-3.765,-3.7556,-3.7382,-3.8164,-3.7988,-3.7772,-3.8258,-3.8802,-3.9005,-3.843,-3.9326,-4.007,-4.007,-4.1102,-4.1863,-4.1863,-4.298,-4.3784,-4.3784,-4.3763,-4.3988,-4.4498,-4.4375,-4.407,-4.3534,-4.3497,-4.3497,-4.3497,-4.3497,-4.3497,-4.3497,-4.3497,-4.3497,-4.3497,-4.3214,-4.3348,-4.3804,-4.3658,-4.3837,-4.4336,-4.4483,-4.4529,-4.4587,-4.4587,-4.4587,-4.4587,-4.4587,-4.4587,-4.4587,-4.4587,-4.4587,-4.4587,-4.4587,-4.5077,-4.5821,-4.6549,-4.731,-4.8054,-4.8781,-4.9001,-4.9001,-4.9001,-4.9526,-5.027,-5.1014,-5.1758,-5.2503,-5.3315,-5.3501,-5.3501,-5.3501,-5.3501,-5.3501,-5.3501,-5.3501,-5.3501,-5.3501,-5.3501,-5.3501,-5.3501,-5.3501,-5.3501,-5.3501,-5.3501,-5.3501,-5.3501,-5.3501,-5.3501,-5.3501,-5.3501,-5.3501,-5.3501,-5.3501,-5.3501,-5.3501,-5.3501,-5.3501,-5.3501,-5.3501,-5.3501,-5.3501,-5.3501,-5.3805,-5.4397,-5.5141,-5.5818,-3.3697,-3.3634,-3.3728,-3.4663,-3.5029,0.0,0.0,-3.7061,-3.7178,-3.7923,-3.7723,-3.7449,-3.7838,-3.821,-3.8447,-3.8447,-3.9056,-3.9665,-4.002,-4.1035,-4.1902,-4.2227,-4.3525,-4.455,-4.4808,-4.5062,-4.527,-4.549,-4.4986,-4.4525,-4.4121,-4.3718,-4.3497,-4.3497,-4.3497,-4.3497,-4.3497,-4.3497,-4.3375,-4.3105,-4.3206,-4.313,-4.2944,-4.3519,-4.3786,-4.3903,-4.4398,-4.4587,-4.4587,-4.4587,-4.4587,-4.4587,-4.4587,-4.4587,-4.4587,-4.4587,-4.4587,-4.4587,-4.4587,-4.4823,-4.5263,-4.6007,-4.6752,-4.7496,-4.824,-4.8714,-4.9001,-4.9001,-4.9526,-5.027,-5.1014,-5.1758,-5.2503,-5.3315,-5.3501,-5.3501,-5.3501,-5.3501,-5.3501,-5.3501,-5.3501,-5.3501,-5.3501,-5.3501,-5.3501,-5.3501,-5.3501,-5.3501,-5.3501,-5.3501,-5.3501,-5.3501,-5.3501,-5.3501,-5.3501,-5.3501,-5.3501,-5.3501,-5.3501,-5.3501,-5.3501,-5.3501,-5.3501,-5.3501,-5.3501,-5.3501,-5.3501,-5.3501,-5.3873,-5.4617,-5.5361,-5.6105,-3.3954,-3.3579,-3.3463,-3.4285,-3.4569,-3.5044,0.0,0.0,0.0,-3.7966,-3.7752,-3.7466,-3.7466,-3.7584,-3.7838,-3.8261,-3.8582,-3.8988,-3.958,-4.0426,-4.1223,-4.194,-4.353,-4.4712,-4.5076,-4.5686,-4.6083,-4.614,-4.5297,-4.4803,-4.4947,-4.4176,-4.3718,-4.3718,-4.3571,-4.3497,-4.3497,-4.3521,-4.3324,-4.2946,-4.3463,-4.3297,-4.2569,-4.3647,-4.3938,-4.3673,-4.4316,-4.4587,-4.4587,-4.4587,-4.4587,-4.4587,-4.4587,-4.4587,-4.4587,-4.4587,-4.4587,-4.4587,-4.4587,-4.4671,-4.4925,-4.5669,-4.6515,-4.7327,-4.7936,-4.8545,-4.9001,-4.9001,-4.9424,-5.005,-5.0811,-5.1539,-5.23,-5.3078,-5.3399,-5.3501,-5.3501,-5.3501,-5.3501,-5.3501,-5.3501,-5.3501,-5.3501,-5.3501,-5.3501,-5.3501,-5.3501,-5.3501,-5.3501,-5.3501,-5.3501,-5.3501,-5.3501,-5.3501,-5.3501,-5.3501,-5.3501,-5.3501,-5.3501,-5.3501,-5.3501,-5.3501,-5.3501,-5.3501,-5.3501,-5.3501,-5.3501,-5.3501,-5.3957,-5.482,-5.5429,-5.619,-3.4429,-3.391,-3.3811,-3.4826,-3.464,-3.4466,-3.5557,0.0,-3.5847,-3.5932,0.0,-3.5876,-3.5876,0.0,0.0,-3.6113,-3.7144,-3.8058,-3.8142,-3.936,-4.0476,-4.1222,-4.3593,-4.5029,-4.4533,-4.5029,-4.5825,-4.6891,-4.5781,-4.5249,-4.5718,-4.5002,-4.4562,-4.4562,-4.3864,-4.3497,-4.3497,-4.3666,-4.3722,-4.3642,-4.3427,-4.3565,-4.4042,-4.3678,-4.383,-4.4451,-4.4536,-4.4587,-4.4587,-4.4587,-4.4587,-4.4587,-4.4587,-4.4587,-4.4587,-4.4587,-4.4587,-4.4587,-4.4587,-4.501,-4.5703,-4.643,-4.7614,-4.8765,-4.8849,-4.8934,-4.9001,-4.9001,-4.9069,-4.9289,-5.0016,-5.0777,-5.1522,-5.2266,-5.2993,-5.3501,-5.3501,-5.3501,-5.3501,-5.3501,-5.3501,-5.3501,-5.3501,-5.3501,-5.3501,-5.3501,-5.3501,-5.3501,-5.3501,-5.3501,-5.3501,-5.3501,-5.3501,-5.3501,-5.3501,-5.3501,-5.3501,-5.3501,-5.3501,-5.3501,-5.3501,-5.3501,-5.3501,-5.3501,-5.3501,-5.3501,-5.3501,-5.3501,-5.4228,-5.5598,-5.5683,-5.6461,-3.3868,-3.3564,-3.3574,-3.4874,-3.4765,-3.4542,-3.5413,-3.5622,-3.5622,-3.5622,0.0,0.0,0.0,0.0,0.0,0.0,-3.684,-3.7398,-3.7838,-3.8447,-3.9559,-4.1523,-4.3197,-4.4336,-4.4852,-4.5462,-4.6223,-4.7189,-4.6221,-4.5881,-4.6544,-4.5828,-4.5186,-4.4727,-4.409,-4.3686,-4.3686,-4.3409,-4.3322,-4.3444,-4.3715,-4.3838,-4.378,-4.3986,-4.4265,-4.4587,-4.4587,-4.4587,-4.4587,-4.4587,-4.4587,-4.4587,-4.4587,-4.4587,-4.4587,-4.4587,-4.4587,-4.4587,-4.4587,-4.5077,-4.5889,-4.7073,-4.7868,-4.846,-4.8883,-4.9001,-4.9001,-4.9001,-4.9001,-4.9171,-4.9898,-5.0659,-5.1403,-5.2131,-5.2909,-5.3501,-5.3501,-5.3501,-5.3501,-5.3501,-5.3501,-5.3501,-5.3501,-5.3501,-5.3501,-5.3501,-5.3501,-5.3501,-5.3501,-5.3501,-5.3501,-5.3501,-5.3501,-5.3501,-5.3501,-5.3501,-5.3501,-5.3501,-5.3501,-5.3501,-5.3501,-5.3501,-5.3501,-5.3501,-5.3501,-5.3501,-5.3501,-5.3923,-5.4685,-5.5716,-5.5716,-5.6494,-3.3951,-3.3743,-3.367,-3.473,-3.4772,-3.459,-3.4928,-3.5334,-3.5622,-3.5622,-3.5791,0.0,0.0,0.0,-3.6366,-3.6721,0.0,-3.7043,-3.7804,-3.7736,-3.852,-4.1047,-4.2164,-4.3305,-4.4873,-4.5054,-4.5638,-4.7006,-4.6197,-4.6175,-4.7351,-4.6504,-4.5697,-4.5131,-4.4339,-4.3912,-4.387,-4.3492,-4.3348,-4.3504,-4.4096,-4.4124,-4.3758,-4.4316,-4.4587,-4.4587,-4.4587,-4.4587,-4.4587,-4.4587,-4.4587,-4.4587,-4.4587,-4.4587,-4.4587,-4.4587,-4.4587,-4.4604,-4.4823,-4.5517,-4.6515,-4.78,-4.8206,-4.8308,-4.8849,-4.9001,-4.9001,-4.9001,-4.9001,-4.9171,-4.9898,-5.0659,-5.1403,-5.2131,-5.2909,-5.3501,-5.3501,-5.3501,-5.3501,-5.3501,-5.3501,-5.3501,-5.3501,-5.3501,-5.3501,-5.3501,-5.3501,-5.3501,-5.3501,-5.3501,-5.3501,-5.3501,-5.3501,-5.3501,-5.3501,-5.3501,-5.3501,-5.3501,-5.3501,-5.3501,-5.3501,-5.3501,-5.3501,-5.3501,-5.3501,-5.3602,-5.3805,-5.4329,-5.5074,-5.6004,-5.6004,-5.6681,-3.5353,-3.4812,-3.4464,-3.4515,-3.4489,-3.432,-3.3643,-3.459,-3.5622,-3.5622,-3.6214,-3.6975,-3.7702,-3.7838,-3.7601,-3.6891,-3.6772,0.0,0.0,-3.728,-3.7428,-3.8935,-4.0392,-4.207,-4.4031,-4.301,-4.336,-4.6116,-4.559,-4.6066,-4.8139,-4.6916,-4.6176,-4.614,-4.4751,-4.3986,-4.3986,-4.4164,-4.4265,-4.4283,-4.4514,-4.4592,-4.4536,-4.457,-4.4587,-4.4587,-4.4587,-4.4587,-4.4587,-4.4587,-4.4587,-4.4587,-4.4587,-4.4587,-4.4587,-4.4587,-4.4587,-4.4671,-4.5415,-4.6616,-4.797,-4.8731,-4.8968,-4.8968,-4.9001,-4.9001,-4.9001,-4.9001,-4.9001,-4.9171,-4.9898,-5.0659,-5.1403,-5.2131,-5.2909,-5.3501,-5.3501,-5.3501,-5.3501,-5.3501,-5.3501,-5.3501,-5.3501,-5.3501,-5.3501,-5.3501,-5.3501,-5.3501,-5.3501,-5.3501,-5.3501,-5.3501,-5.3501,-5.3501,-5.3501,-5.3501,-5.3501,-5.3501,-5.3501,-5.3501,-5.3501,-5.3501,-5.3501,-5.3501,-5.3501,-5.3856,-5.4549,-5.4583,-5.5344,-5.6765,-5.6765,-5.7171,-3.4661,-3.4601,-3.4607,-3.5115,-3.4861,-3.4421,-3.4184,-3.4506,-3.5013,-3.552,-3.6231,-3.7009,-3.777,-3.7905,-3.7821,-3.7567,-3.7533,-3.7432,0.0,-3.6941,-3.733,-3.8819,-4.0307,-4.1478,-4.2137,-4.2975,-4.3845,-4.4976,-4.5515,-4.6182,-4.6972,-4.6597,-4.6087,-4.557,-4.4689,-4.4248,-4.4216,-4.3872,-4.3966,-4.4477,-4.4546,-4.4587,-4.4587,-4.4587,-4.4587,-4.4587,-4.4587,-4.4587,-4.4587,-4.4587,-4.4587,-4.4587,-4.4587,-4.4587,-4.4587,-4.4587,-4.4891,-4.55,-4.6735,-4.7496,-4.8037,-4.8765,-4.9001,-4.9001,-4.9001,-4.9001,-4.9001,-4.9001,-4.9001,-4.9069,-4.9306,-5.0287,-5.1268,-5.1522,-5.257,-5.3501,-5.3501,-5.3501,-5.3501,-5.3501,-5.3501,-5.3501,-5.3501,-5.3501,-5.3501,-5.3501,-5.3501,-5.3501,-5.3501,-5.3501,-5.3501,-5.3501,-5.3501,-5.3501,-5.3501,-5.3501,-5.3501,-5.3501,-5.3501,-5.3501,-5.3501,-5.3501,-5.3501,-5.3501,-5.3501,-5.3619,-5.3873,-5.4346,-5.5108,-5.6089,-5.6089,-5.6478,-3.4759,-3.4895,-3.4945,-3.5165,-3.5064,-3.4759,-3.4235,-3.4506,-3.5115,-3.5876,-3.6654,-3.7483,-3.8497,-3.8684,-3.8599,-3.8328,-3.8294,-3.7939,0.0,-3.7466,-3.8108,-3.8548,-3.9681,0.0,-4.1153,-4.2272,-4.3343,-4.4347,-4.5032,-4.5739,-4.6377,-4.6192,-4.5817,-4.5326,-4.4766,-4.4544,-4.475,-4.4119,-4.4173,-4.4906,-4.472,-4.4587,-4.4587,-4.4587,-4.444,-4.4121,-4.4457,-4.444,-4.4138,-4.4457,-4.4587,-4.4587,-4.4587,-4.4587,-4.4604,-4.4874,-4.5618,-4.6633,-4.7597,-4.8088,-4.8392,-4.8849,-4.9001,-4.9001,-4.9001,-4.9001,-4.9001,-4.9001,-4.9001,-4.9069,-4.9323,-5.0304,-5.1285,-5.1539,-5.257,-5.3501,-5.3501,-5.3501,-5.3501,-5.3501,-5.3501,-5.3501,-5.3501,-5.3501,-5.3501,-5.3501,-5.3501,-5.3501,-5.3501,-5.3501,-5.3501,-5.3501,-5.3501,-5.3501,-5.3501,-5.3501,-5.3501,-5.3501,-5.3501,-5.3501,-5.3501,-5.3501,-5.3501,-5.3501,-5.3501,-5.3636,-5.389,-5.4363,-5.4972,-5.5716,-5.5716,-5.5818]}]]